[[{"header":{"parameterUnit":"m.s-1","parameterCategory":1,"la1":31.0,"la2":29.5877,"lo1":-88.7671,"lo2":-86.6584,"dx":0.0162,"dy":0.0185,"nx":115,"ny":88,"refTime":"2023-01-16T06:00:00:Z","depth":0,"parameterNumber":2,"parameterNumberName":"U-component_of_WINDS"},"data":[0.0,0.0,0.0,0.0,0.0,0.0,0.0,0.0,0.0,0.0,0.0,0.0,0.0,0.0,0.0,0.0,0.0,0.0,0.0,0.0,0.0,0.0,0.0,0.0,0.0,0.0,0.0,0.0,0.0,0.0,0.0,0.0,0.0,0.0,0.0,0.0,0.0,0.0,0.0,0.0,0.0,0.0,0.0,0.0,0.0,0.0,0.0,0.0,0.0,0.0,0.0,0.0,0.0,0.0,0.0,0.0,0.0,0.0,0.0,0.0,0.0,0.0,0.0,0.0,0.0,0.0,0.0,0.0,0.0,0.0,0.0,0.0,0.0,0.0,0.0,0.0,0.0,0.0,0.0,0.0,0.0,0.0,0.0,0.0,0.0,0.0,0.0,0.0,0.0,0.0,0.0,0.0,0.0,0.0,0.0,0.0,0.0,0.0,0.0,0.0,0.0,0.0,0.0,0.0,0.0,0.0,0.0,0.0,0.0,0.0,0.0,0.0,0.0,0.0,0.0,0.0,0.0,0.0,0.0,0.0,0.0,0.0,0.0,0.0,0.0,0.0,0.0,0.0,0.0,0.0,0.0,0.0,0.0,0.0,0.0,0.0,0.0,0.0,0.0,0.0,0.0,0.0,0.0,0.0,0.0,0.0,0.0,0.0,0.0,0.0,0.0,0.0,0.0,0.0,0.0,0.0,0.0,0.0,0.0,0.0,0.0,0.0,0.0,0.0,0.0,0.0,0.0,0.0,0.0,0.0,0.0,0.0,0.0,0.0,0.0,0.0,0.0,0.0,0.0,0.0,0.0,0.0,0.0,0.0,0.0,0.0,0.0,0.0,0.0,0.0,0.0,0.0,0.0,0.0,0.0,0.0,0.0,0.0,0.0,0.0,0.0,0.0,0.0,0.0,0.0,0.0,0.0,0.0,0.0,0.0,0.0,0.0,0.0,0.0,0.0,0.0,0.0,0.0,0.0,0.0,0.0,0.0,0.0,0.0,0.0,0.0,0.0,0.0,0.0,0.0,0.0,0.0,0.0,0.0,0.0,0.0,0.0,0.0,0.0,0.0,0.0,0.0,0.0,0.0,0.0,0.0,0.0,0.0,0.0,0.0,0.0,0.0,0.0,0.0,0.0,0.0,0.0,0.0,0.0,0.0,0.0,0.0,0.0,0.0,0.0,0.0,0.0,0.0,0.0,0.0,0.0,0.0,0.0,0.0,0.0,0.0,0.0,0.0,0.0,0.0,0.0,0.0,0.0,0.0,0.0,0.0,0.0,0.0,0.0,0.0,0.0,0.0,0.0,0.0,0.0,0.0,0.0,0.0,0.0,0.0,0.0,0.0,0.0,0.0,0.0,0.0,0.0,0.0,0.0,0.0,0.0,0.0,0.0,0.0,0.0,0.0,0.0,0.0,0.0,0.0,0.0,0.0,0.0,0.0,0.0,0.0,0.0,0.0,0.0,0.0,0.0,0.0,0.0,0.0,0.0,0.0,0.0,0.0,0.0,0.0,0.0,0.0,0.0,0.0,0.0,0.0,0.0,0.0,0.0,0.0,0.0,0.0,0.0,0.0,0.0,0.0,0.0,0.0,0.0,0.0,0.0,0.0,0.0,0.0,0.0,0.0,0.0,0.0,0.0,0.0,0.0,0.0,0.0,0.0,0.0,0.0,0.0,0.0,0.0,0.0,0.0,0.0,0.0,0.0,0.0,0.0,0.0,0.0,0.0,0.0,0.0,0.0,0.0,0.0,0.0,0.0,0.0,0.0,0.0,0.0,0.0,0.0,0.0,0.0,0.0,0.0,0.0,0.0,0.0,0.0,0.0,0.0,0.0,0.0,0.0,0.0,0.0,0.0,0.0,0.0,0.0,0.0,0.0,0.0,0.0,0.0,0.0,0.0,0.0,0.0,0.0,0.0,0.0,0.0,0.0,0.0,0.0,0.0,0.0,0.0,0.0,0.0,0.0,0.0,0.0,0.0,0.0,0.0,0.0,0.0,0.0,0.0,0.0,0.0,0.0,0.0,0.0,0.0,0.0,0.0,0.0,0.0,0.0,0.0,0.0,0.0,0.0,0.0,0.0,0.0,0.0,0.0,0.0,0.0,0.0,0.0,0.0,0.0,0.0,0.0,0.0,0.0,0.0,0.0,0.0,0.0,0.0,0.0,0.0,0.0,0.0,0.0,0.0,0.0,0.0,0.0,0.0,0.0,0.0,0.0,0.0,0.0,0.0,0.0,0.0,0.0,0.0,0.0,0.0,0.0,0.0,0.0,0.0,0.0,0.0,0.0,0.0,0.0,0.0,0.0,0.0,0.0,0.0,0.0,0.0,0.0,0.0,0.0,0.0,0.0,0.0,0.0,0.0,0.0,0.0,0.0,0.0,0.0,0.0,0.0,0.0,0.0,0.0,0.0,0.0,0.0,0.0,0.0,0.0,0.0,0.0,0.0,0.0,0.0,0.0,0.0,0.0,0.0,0.0,0.0,0.0,0.0,0.0,0.0,0.0,0.0,0.0,0.0,0.0,0.0,0.0,0.0,0.0,0.0,0.0,0.0,0.0,0.0,0.0,0.0,0.0,0.0,0.0,0.0,0.0,0.0,0.0,0.0,0.0,0.0,0.0,0.0,0.0,0.0,0.0,0.0,0.0,0.0,0.0,0.0,0.0,0.0,0.0,0.0,0.0,0.0,0.0,0.0,0.0,0.0,0.0,0.0,0.0,0.0,0.0,0.0,0.0,0.0,0.0,0.0,0.0,0.0,0.0,0.0,0.0,0.0,0.0,0.0,0.0,0.0,0.0,0.0,0.0,0.0,0.0,0.0,0.0,0.0,0.0,0.0,0.0,0.0,0.0,0.0,0.0,0.0,0.0,0.0,0.0,0.0,0.0,0.0,0.0,0.0,0.0,0.0,0.0,0.0,0.0,0.0,0.0,0.0,0.0,0.0,0.0,0.0,0.0,0.0,0.0,0.0,0.0,0.0,0.0,0.0,0.0,0.0,0.0,0.0,0.0,0.0,0.0,0.0,0.0,0.0,0.0,0.0,0.0,0.0,0.0,0.0,0.0,0.0,0.0,0.0,0.0,0.0,0.0,0.0,0.0,0.0,0.0,0.0,0.0,0.0,0.0,0.0,0.0,0.0,0.0,0.0,0.0,0.0,0.0,0.0,0.0,0.0,0.0,0.0,0.0,0.0,0.0,0.0,0.0,0.0,0.0,0.0,0.0,0.0,0.0,0.0,0.0,0.0,0.0,0.0,0.0,0.0,0.0,0.0,0.0,0.0,0.0,0.0,0.0,0.0,0.0,0.0,0.0,0.0,0.0,0.0,0.0,0.0,0.0,0.0,0.0,0.0,0.0,0.0,0.0,0.0,0.0,0.0,0.0,0.0,0.0,0.0,0.0,0.0,0.0,0.0,0.0,0.0,0.0,0.0,0.0,0.0,0.0,0.0,0.0,0.0,0.0,0.0,0.0,0.0,0.0,0.0,0.0,0.0,0.0,0.0,0.0,0.0,0.0,0.0,0.0,0.0,0.0,0.0,0.0,0.0,0.0,0.0,0.0,0.0,0.0,0.0,0.0,0.0,0.0,0.0,0.0,0.0,0.0,0.0,0.0,0.0,0.0,0.0,0.0,0.0,0.0,0.0,0.0,0.0,0.0,0.0,0.0,0.0,0.0,0.0,0.0,0.0,0.0,0.0,0.0,0.0,0.0,0.0,0.0,0.0,0.0,0.0,0.0,0.0,0.0,0.0,0.0,0.0,0.0,0.0,0.0,0.0,0.0,0.0,0.0,0.0,0.0,0.0,0.0,0.0,0.0,0.0,0.0,0.0,0.0,0.0,0.0,0.0,0.0,0.0,0.0,0.0,0.0,0.0,0.0,0.0,0.0,0.0,0.0,0.0,0.0,0.0,0.0,0.0,0.0,0.0,0.0,0.0,0.0,0.0,0.0,0.0,0.0,0.0,0.0,0.0,0.0,0.0,0.0,0.0,0.0,0.0,0.0,0.0,0.0,0.0,0.0,0.0,0.0,0.0,0.0,0.0,0.0,0.0,0.0,0.0,0.0,0.0,0.0,0.0,0.0,0.0,0.0,0.0,0.0,0.0,0.0,0.0,0.0,0.0,0.0,0.0,0.0,0.0,0.0,0.0,0.0,0.0,0.0,0.0,0.0,0.0,0.0,0.0,0.0,0.0,0.0,0.0,0.0,0.0,0.0,0.0,0.0,0.0,0.0,0.0,0.0,0.0,0.0,0.0,0.0,0.0,0.0,0.0,0.0,0.0,-3.545,0.0,0.0,0.0,0.0,0.0,0.0,0.0,0.0,0.0,0.0,0.0,0.0,0.0,0.0,0.0,0.0,0.0,0.0,0.0,0.0,0.0,0.0,0.0,0.0,0.0,0.0,0.0,0.0,0.0,0.0,0.0,0.0,0.0,0.0,0.0,0.0,0.0,0.0,0.0,0.0,0.0,0.0,0.0,0.0,0.0,0.0,0.0,0.0,0.0,0.0,0.0,0.0,0.0,0.0,0.0,0.0,0.0,0.0,0.0,0.0,0.0,0.0,0.0,0.0,0.0,0.0,0.0,0.0,0.0,0.0,0.0,0.0,0.0,0.0,0.0,0.0,0.0,0.0,0.0,0.0,0.0,0.0,0.0,0.0,0.0,0.0,0.0,0.0,0.0,0.0,0.0,0.0,0.0,0.0,0.0,0.0,0.0,0.0,0.0,0.0,0.0,0.0,0.0,0.0,0.0,0.0,0.0,0.0,0.0,0.0,-3.6528,-3.5305,-3.736,-3.7512,-3.5335,0.0,0.0,0.0,0.0,0.0,0.0,0.0,0.0,0.0,0.0,0.0,0.0,0.0,0.0,0.0,0.0,0.0,0.0,0.0,0.0,0.0,0.0,0.0,0.0,0.0,0.0,0.0,0.0,0.0,0.0,0.0,0.0,0.0,0.0,0.0,0.0,0.0,0.0,0.0,0.0,0.0,0.0,0.0,0.0,0.0,0.0,0.0,0.0,0.0,0.0,0.0,0.0,0.0,0.0,0.0,0.0,0.0,0.0,0.0,0.0,0.0,0.0,0.0,0.0,0.0,0.0,0.0,0.0,0.0,0.0,0.0,0.0,0.0,0.0,0.0,0.0,0.0,0.0,0.0,0.0,0.0,0.0,0.0,0.0,0.0,0.0,0.0,0.0,0.0,0.0,0.0,0.0,0.0,0.0,0.0,0.0,0.0,0.0,0.0,0.0,0.0,0.0,0.0,0.0,0.0,0.0,0.0,0.0,0.0,0.0,0.0,0.0,-3.8323,-3.8467,-3.5883,0.0,0.0,0.0,0.0,0.0,0.0,0.0,0.0,0.0,0.0,0.0,0.0,0.0,0.0,0.0,0.0,0.0,0.0,0.0,0.0,0.0,0.0,0.0,0.0,0.0,0.0,0.0,0.0,0.0,0.0,0.0,0.0,0.0,0.0,0.0,0.0,0.0,0.0,0.0,0.0,0.0,0.0,0.0,0.0,0.0,0.0,0.0,0.0,0.0,0.0,0.0,0.0,0.0,0.0,0.0,0.0,0.0,0.0,0.0,0.0,0.0,0.0,0.0,0.0,0.0,0.0,0.0,0.0,0.0,0.0,0.0,0.0,0.0,0.0,0.0,0.0,0.0,0.0,0.0,0.0,0.0,0.0,0.0,0.0,0.0,0.0,0.0,0.0,0.0,0.0,0.0,0.0,0.0,0.0,0.0,0.0,0.0,0.0,0.0,0.0,0.0,0.0,0.0,0.0,0.0,0.0,0.0,0.0,0.0,0.0,-3.6069,-3.7445,-3.7789,0.0,-3.7375,0.0,0.0,0.0,0.0,0.0,0.0,0.0,0.0,0.0,0.0,0.0,0.0,0.0,0.0,0.0,0.0,0.0,0.0,0.0,0.0,0.0,0.0,0.0,0.0,0.0,0.0,0.0,0.0,0.0,0.0,0.0,0.0,0.0,0.0,0.0,0.0,0.0,0.0,0.0,0.0,0.0,0.0,0.0,0.0,0.0,0.0,0.0,0.0,0.0,0.0,0.0,0.0,0.0,0.0,0.0,0.0,0.0,0.0,0.0,0.0,0.0,0.0,0.0,0.0,0.0,0.0,0.0,0.0,0.0,0.0,0.0,0.0,0.0,0.0,0.0,0.0,0.0,0.0,0.0,0.0,0.0,0.0,0.0,0.0,0.0,0.0,0.0,0.0,0.0,0.0,0.0,0.0,0.0,0.0,0.0,0.0,0.0,0.0,0.0,0.0,0.0,0.0,0.0,0.0,0.0,0.0,0.0,0.0,0.0,0.0,-3.6757,-3.8438,-3.7935,-3.7403,0.0,0.0,0.0,0.0,0.0,0.0,0.0,0.0,0.0,0.0,0.0,0.0,0.0,0.0,0.0,0.0,0.0,0.0,0.0,0.0,0.0,0.0,0.0,0.0,0.0,0.0,0.0,0.0,0.0,0.0,0.0,0.0,0.0,0.0,0.0,0.0,0.0,0.0,0.0,0.0,0.0,0.0,0.0,0.0,0.0,0.0,0.0,0.0,0.0,0.0,0.0,0.0,0.0,0.0,0.0,0.0,0.0,0.0,0.0,0.0,0.0,0.0,0.0,0.0,0.0,0.0,0.0,0.0,0.0,0.0,0.0,0.0,0.0,0.0,0.0,0.0,0.0,0.0,0.0,0.0,0.0,0.0,0.0,0.0,0.0,0.0,0.0,0.0,0.0,0.0,0.0,0.0,0.0,0.0,0.0,0.0,0.0,0.0,0.0,0.0,0.0,0.0,0.0,0.0,0.0,0.0,0.0,0.0,0.0,0.0,-3.6748,-3.7742,-3.9508,-3.8785,-3.769,-3.6406,0.0,0.0,0.0,0.0,0.0,0.0,0.0,0.0,0.0,0.0,0.0,0.0,0.0,0.0,0.0,0.0,0.0,0.0,0.0,0.0,0.0,0.0,0.0,0.0,0.0,0.0,0.0,0.0,0.0,0.0,0.0,0.0,0.0,0.0,0.0,0.0,0.0,0.0,0.0,0.0,0.0,0.0,0.0,0.0,0.0,0.0,0.0,0.0,0.0,0.0,0.0,0.0,0.0,0.0,0.0,0.0,0.0,0.0,0.0,0.0,0.0,0.0,0.0,0.0,0.0,0.0,0.0,0.0,0.0,0.0,0.0,0.0,0.0,0.0,0.0,0.0,0.0,0.0,0.0,0.0,0.0,0.0,0.0,0.0,0.0,0.0,0.0,0.0,0.0,0.0,0.0,0.0,0.0,0.0,0.0,0.0,0.0,0.0,0.0,0.0,0.0,0.0,0.0,0.0,0.0,0.0,0.0,0.0,0.0,-3.8438,-3.8858,-4.1266,-4.0433,-3.8821,0.0,0.0,0.0,0.0,0.0,0.0,0.0,0.0,0.0,0.0,0.0,0.0,0.0,0.0,0.0,0.0,0.0,0.0,0.0,0.0,0.0,0.0,0.0,0.0,0.0,0.0,0.0,0.0,0.0,0.0,0.0,0.0,0.0,0.0,0.0,0.0,0.0,0.0,0.0,0.0,0.0,0.0,0.0,0.0,0.0,0.0,0.0,0.0,0.0,0.0,0.0,0.0,0.0,0.0,0.0,0.0,0.0,0.0,0.0,0.0,0.0,0.0,0.0,0.0,0.0,0.0,0.0,0.0,0.0,0.0,0.0,0.0,0.0,0.0,0.0,0.0,0.0,0.0,0.0,0.0,0.0,0.0,0.0,0.0,0.0,0.0,0.0,0.0,0.0,0.0,0.0,0.0,0.0,0.0,0.0,0.0,0.0,0.0,0.0,0.0,0.0,0.0,0.0,0.0,0.0,0.0,0.0,0.0,0.0,-3.545,-3.691,-3.9202,-4.2068,-3.9299,-3.7413,0.0,0.0,0.0,0.0,0.0,0.0,0.0,0.0,0.0,0.0,0.0,0.0,0.0,0.0,0.0,0.0,0.0,0.0,0.0,0.0,0.0,0.0,0.0,0.0,0.0,0.0,0.0,0.0,0.0,0.0,0.0,0.0,0.0,0.0,0.0,0.0,0.0,0.0,0.0,0.0,0.0,0.0,0.0,0.0,0.0,0.0,0.0,0.0,0.0,0.0,0.0,0.0,0.0,0.0,0.0,0.0,0.0,0.0,0.0,0.0,0.0,0.0,0.0,0.0,0.0,0.0,0.0,0.0,0.0,0.0,0.0,0.0,0.0,0.0,0.0,0.0,0.0,0.0,0.0,0.0,0.0,0.0,0.0,0.0,0.0,0.0,0.0,0.0,0.0,0.0,0.0,0.0,0.0,0.0,0.0,0.0,0.0,0.0,0.0,0.0,0.0,0.0,0.0,0.0,0.0,0.0,0.0,0.0,0.0,-3.5182,0.0,-4.0616,-4.2144,-3.9175,-3.7119,0.0,0.0,0.0,0.0,0.0,0.0,0.0,0.0,0.0,0.0,0.0,0.0,0.0,0.0,0.0,0.0,0.0,0.0,0.0,0.0,0.0,0.0,0.0,0.0,0.0,0.0,0.0,0.0,0.0,0.0,0.0,0.0,0.0,0.0,0.0,0.0,0.0,0.0,0.0,0.0,0.0,0.0,0.0,0.0,0.0,0.0,0.0,0.0,0.0,0.0,0.0,0.0,0.0,0.0,0.0,0.0,0.0,0.0,0.0,0.0,0.0,0.0,0.0,0.0,0.0,0.0,0.0,0.0,0.0,0.0,0.0,0.0,0.0,0.0,0.0,0.0,0.0,0.0,0.0,0.0,0.0,0.0,0.0,0.0,0.0,0.0,0.0,0.0,0.0,0.0,0.0,0.0,0.0,0.0,0.0,0.0,0.0,0.0,0.0,0.0,0.0,0.0,0.0,0.0,0.0,0.0,0.0,0.0,-3.5229,-4.0005,-4.2488,-4.2957,-4.1581,-4.0529,-3.8109,0.0,0.0,0.0,0.0,0.0,0.0,0.0,0.0,0.0,0.0,0.0,0.0,0.0,0.0,0.0,0.0,0.0,0.0,0.0,0.0,0.0,0.0,0.0,0.0,0.0,0.0,0.0,0.0,0.0,0.0,0.0,0.0,0.0,0.0,0.0,0.0,0.0,0.0,0.0,0.0,0.0,0.0,0.0,0.0,0.0,0.0,0.0,0.0,0.0,0.0,0.0,0.0,0.0,0.0,0.0,0.0,0.0,0.0,0.0,0.0,0.0,0.0,0.0,0.0,0.0,0.0,0.0,0.0,0.0,0.0,0.0,0.0,0.0,0.0,0.0,0.0,0.0,0.0,0.0,0.0,0.0,0.0,0.0,0.0,0.0,0.0,0.0,0.0,0.0,0.0,0.0,0.0,0.0,0.0,0.0,0.0,0.0,0.0,0.0,0.0,0.0,0.0,0.0,0.0,0.0,0.0,0.0,0.0,0.0,-3.8637,-4.0564,-4.2189,-4.3349,-4.0854,-3.9044,0.0,0.0,0.0,0.0,0.0,0.0,0.0,0.0,0.0,0.0,0.0,0.0,0.0,0.0,0.0,0.0,0.0,0.0,0.0,0.0,0.0,0.0,0.0,0.0,0.0,0.0,0.0,0.0,0.0,0.0,0.0,0.0,0.0,0.0,0.0,0.0,0.0,0.0,0.0,0.0,0.0,0.0,0.0,0.0,0.0,0.0,0.0,0.0,0.0,0.0,0.0,0.0,0.0,0.0,0.0,0.0,0.0,0.0,0.0,0.0,0.0,0.0,0.0,0.0,0.0,0.0,0.0,0.0,0.0,0.0,0.0,0.0,0.0,0.0,0.0,0.0,0.0,0.0,0.0,0.0,0.0,0.0,0.0,0.0,0.0,0.0,0.0,0.0,0.0,0.0,0.0,0.0,0.0,0.0,0.0,0.0,0.0,0.0,0.0,0.0,0.0,0.0,0.0,0.0,0.0,0.0,0.0,0.0,0.0,-4.1362,-4.2893,-4.4435,-4.5843,-4.2725,-4.0973,-4.0743,0.0,0.0,0.0,0.0,0.0,0.0,0.0,0.0,0.0,0.0,0.0,0.0,0.0,0.0,0.0,0.0,0.0,0.0,0.0,0.0,0.0,0.0,0.0,0.0,0.0,0.0,0.0,0.0,0.0,0.0,0.0,0.0,0.0,0.0,0.0,0.0,0.0,0.0,0.0,0.0,0.0,0.0,0.0,0.0,0.0,0.0,0.0,0.0,0.0,0.0,0.0,0.0,0.0,0.0,0.0,0.0,0.0,0.0,0.0,0.0,0.0,0.0,0.0,0.0,0.0,0.0,0.0,0.0,0.0,0.0,0.0,0.0,0.0,0.0,0.0,0.0,0.0,0.0,0.0,0.0,0.0,0.0,0.0,0.0,0.0,0.0,0.0,0.0,0.0,0.0,0.0,0.0,0.0,0.0,0.0,0.0,0.0,0.0,0.0,0.0,0.0,0.0,0.0,0.0,0.0,0.0,0.0,0.0,-4.724,-4.8768,-4.9219,-4.8501,-4.5902,-4.3701,0.0,0.0,0.0,0.0,0.0,0.0,0.0,0.0,0.0,0.0,0.0,0.0,0.0,0.0,0.0,0.0,0.0,0.0,0.0,0.0,0.0,0.0,0.0,0.0,0.0,0.0,0.0,0.0,0.0,0.0,0.0,0.0,0.0,0.0,0.0,0.0,0.0,0.0,0.0,0.0,0.0,0.0,0.0,0.0,0.0,0.0,0.0,0.0,0.0,0.0,0.0,0.0,0.0,0.0,0.0,0.0,0.0,0.0,0.0,0.0,0.0,0.0,0.0,0.0,0.0,0.0,0.0,0.0,0.0,0.0,0.0,0.0,0.0,0.0,0.0,0.0,0.0,0.0,0.0,0.0,0.0,0.0,0.0,0.0,0.0,0.0,0.0,0.0,0.0,0.0,0.0,0.0,0.0,0.0,0.0,0.0,0.0,0.0,0.0,0.0,0.0,0.0,0.0,0.0,0.0,0.0,0.0,0.0,0.0,-5.0394,-5.2281,-5.2627,-5.1321,-4.8647,-4.6375,0.0,0.0,0.0,0.0,0.0,0.0,0.0,0.0,0.0,0.0,0.0,0.0,0.0,0.0,0.0,0.0,0.0,0.0,0.0,0.0,0.0,0.0,0.0,0.0,0.0,0.0,0.0,0.0,0.0,0.0,0.0,0.0,0.0,0.0,0.0,0.0,0.0,0.0,0.0,0.0,0.0,0.0,0.0,0.0,0.0,0.0,0.0,0.0,0.0,0.0,0.0,0.0,0.0,0.0,0.0,0.0,0.0,0.0,0.0,0.0,0.0,0.0,0.0,0.0,0.0,0.0,0.0,0.0,0.0,0.0,0.0,0.0,0.0,0.0,0.0,0.0,0.0,0.0,0.0,0.0,0.0,0.0,0.0,0.0,0.0,0.0,0.0,0.0,0.0,0.0,0.0,0.0,0.0,0.0,0.0,0.0,0.0,0.0,0.0,0.0,0.0,0.0,0.0,0.0,0.0,0.0,0.0,0.0,-4.8854,-5.3283,-5.4454,-5.4832,-5.4463,-5.1447,-4.8847,0.0,0.0,0.0,0.0,0.0,0.0,0.0,0.0,0.0,0.0,0.0,0.0,0.0,0.0,0.0,0.0,0.0,0.0,0.0,0.0,0.0,0.0,0.0,0.0,0.0,0.0,0.0,0.0,0.0,0.0,0.0,0.0,0.0,0.0,0.0,0.0,0.0,0.0,0.0,0.0,0.0,0.0,0.0,0.0,0.0,0.0,0.0,0.0,0.0,0.0,0.0,0.0,0.0,0.0,0.0,0.0,0.0,0.0,0.0,0.0,0.0,0.0,0.0,0.0,0.0,0.0,0.0,0.0,0.0,0.0,0.0,0.0,0.0,0.0,0.0,0.0,0.0,0.0,0.0,0.0,0.0,0.0,0.0,0.0,0.0,0.0,0.0,0.0,0.0,0.0,0.0,0.0,0.0,0.0,0.0,0.0,0.0,0.0,0.0,0.0,0.0,0.0,0.0,0.0,0.0,0.0,0.0,0.0,-5.2162,-5.5581,-5.5719,-5.6228,-5.7095,-5.3885,-5.0954,0.0,0.0,0.0,0.0,0.0,0.0,0.0,0.0,0.0,0.0,0.0,0.0,0.0,0.0,0.0,0.0,0.0,0.0,0.0,0.0,0.0,0.0,0.0,0.0,0.0,0.0,0.0,0.0,0.0,0.0,0.0,0.0,0.0,0.0,0.0,0.0,0.0,0.0,0.0,0.0,0.0,0.0,0.0,0.0,0.0,0.0,0.0,0.0,0.0,0.0,0.0,0.0,0.0,0.0,0.0,0.0,0.0,0.0,0.0,0.0,0.0,0.0,0.0,0.0,0.0,0.0,0.0,0.0,0.0,0.0,0.0,0.0,0.0,0.0,0.0,0.0,0.0,0.0,0.0,0.0,0.0,0.0,0.0,0.0,0.0,0.0,0.0,0.0,0.0,0.0,0.0,0.0,0.0,0.0,0.0,0.0,0.0,0.0,0.0,0.0,0.0,0.0,0.0,0.0,0.0,0.0,0.0,0.0,-5.2982,-5.6269,-5.6494,-5.6637,-5.6907,-5.4269,-5.1722,0.0,0.0,0.0,0.0,0.0,0.0,0.0,0.0,0.0,0.0,0.0,0.0,0.0,0.0,0.0,0.0,0.0,0.0,0.0,0.0,0.0,0.0,0.0,0.0,0.0,0.0,0.0,0.0,0.0,0.0,0.0,0.0,0.0,0.0,0.0,0.0,0.0,0.0,0.0,0.0,0.0,0.0,0.0,0.0,0.0,0.0,0.0,0.0,-3.2333,0.0,0.0,0.0,0.0,0.0,0.0,0.0,0.0,0.0,0.0,0.0,0.0,0.0,0.0,0.0,0.0,0.0,0.0,0.0,0.0,0.0,0.0,0.0,0.0,0.0,0.0,0.0,0.0,0.0,0.0,0.0,0.0,0.0,0.0,0.0,0.0,0.0,0.0,0.0,0.0,0.0,0.0,0.0,0.0,0.0,0.0,0.0,0.0,0.0,0.0,0.0,0.0,0.0,0.0,0.0,0.0,0.0,0.0,0.0,-5.4409,-5.7619,-5.7456,-5.7364,-5.737,-5.5688,-5.2894,0.0,0.0,0.0,0.0,0.0,0.0,0.0,0.0,0.0,0.0,0.0,0.0,0.0,0.0,0.0,0.0,0.0,0.0,0.0,0.0,0.0,0.0,0.0,0.0,0.0,0.0,0.0,0.0,0.0,0.0,0.0,0.0,0.0,0.0,0.0,0.0,0.0,0.0,0.0,0.0,0.0,0.0,0.0,0.0,0.0,0.0,0.0,0.0,0.0,0.0,0.0,0.0,0.0,0.0,0.0,0.0,0.0,0.0,0.0,0.0,0.0,0.0,0.0,0.0,0.0,0.0,0.0,0.0,0.0,0.0,0.0,0.0,0.0,0.0,0.0,0.0,0.0,0.0,0.0,0.0,0.0,0.0,0.0,0.0,0.0,0.0,0.0,0.0,0.0,0.0,0.0,0.0,0.0,0.0,0.0,0.0,0.0,0.0,0.0,0.0,0.0,0.0,0.0,0.0,0.0,0.0,0.0,-5.1268,-5.5708,-5.8904,-5.8421,-5.8119,-5.8244,-5.7175,-5.396,-4.8413,0.0,0.0,0.0,0.0,0.0,0.0,0.0,0.0,0.0,0.0,0.0,0.0,0.0,0.0,0.0,0.0,0.0,0.0,0.0,0.0,0.0,0.0,0.0,0.0,0.0,0.0,0.0,0.0,0.0,0.0,0.0,0.0,0.0,0.0,0.0,0.0,0.0,0.0,-3.2221,-3.5487,0.0,0.0,0.0,0.0,0.0,0.0,0.0,0.0,-3.4091,0.0,0.0,0.0,0.0,0.0,0.0,0.0,0.0,0.0,0.0,0.0,0.0,0.0,0.0,0.0,0.0,0.0,0.0,0.0,0.0,0.0,0.0,0.0,0.0,0.0,0.0,0.0,0.0,0.0,0.0,0.0,0.0,0.0,0.0,0.0,0.0,0.0,0.0,0.0,0.0,0.0,0.0,0.0,0.0,0.0,0.0,0.0,0.0,0.0,0.0,0.0,0.0,0.0,0.0,0.0,0.0,-4.925,-5.2488,-5.5747,-5.8981,-5.8942,-5.8893,-5.8882,-5.7403,-5.4167,-4.9182,0.0,0.0,0.0,0.0,0.0,0.0,0.0,0.0,0.0,0.0,0.0,0.0,0.0,0.0,0.0,0.0,0.0,0.0,0.0,0.0,0.0,0.0,0.0,0.0,0.0,0.0,0.0,0.0,0.0,0.0,0.0,0.0,0.0,0.0,0.0,0.0,0.0,0.0,0.0,-3.938,-4.0691,0.0,0.0,0.0,0.0,0.0,0.0,0.0,0.0,-3.538,0.0,0.0,0.0,0.0,0.0,0.0,0.0,0.0,0.0,0.0,0.0,0.0,0.0,0.0,0.0,0.0,0.0,0.0,0.0,0.0,0.0,0.0,0.0,0.0,0.0,0.0,0.0,0.0,0.0,0.0,0.0,0.0,0.0,0.0,0.0,0.0,0.0,0.0,0.0,0.0,0.0,0.0,0.0,0.0,0.0,0.0,0.0,0.0,0.0,0.0,0.0,0.0,0.0,0.0,0.0,-4.9276,-5.3954,-5.7506,-5.9668,-5.9759,-5.9568,-5.9095,-5.8307,-5.5135,0.0,0.0,0.0,0.0,0.0,0.0,0.0,0.0,0.0,0.0,0.0,0.0,0.0,0.0,0.0,0.0,0.0,0.0,0.0,0.0,0.0,0.0,0.0,0.0,0.0,0.0,0.0,0.0,0.0,0.0,0.0,0.0,0.0,0.0,0.0,0.0,0.0,0.0,0.0,0.0,-4.0781,-4.185,-4.2303,0.0,0.0,0.0,0.0,0.0,0.0,-3.7993,-3.6946,0.0,0.0,0.0,0.0,0.0,0.0,0.0,0.0,0.0,0.0,0.0,0.0,0.0,0.0,0.0,0.0,0.0,0.0,0.0,0.0,0.0,0.0,0.0,0.0,0.0,0.0,0.0,0.0,0.0,0.0,0.0,0.0,0.0,0.0,0.0,0.0,0.0,0.0,0.0,0.0,0.0,0.0,0.0,0.0,0.0,0.0,0.0,0.0,0.0,0.0,0.0,0.0,0.0,0.0,0.0,-4.8711,-5.4807,-5.8798,-6.0423,-6.0609,-6.0217,-5.9376,-5.9185,-5.6014,0.0,0.0,0.0,0.0,0.0,0.0,0.0,0.0,0.0,0.0,0.0,0.0,0.0,0.0,0.0,0.0,0.0,0.0,0.0,0.0,0.0,0.0,0.0,0.0,0.0,0.0,0.0,0.0,0.0,0.0,0.0,0.0,0.0,0.0,0.0,0.0,0.0,0.0,0.0,0.0,0.0,-4.2863,-4.415,-4.2556,0.0,0.0,0.0,0.0,-4.1506,-4.0637,0.0,0.0,0.0,0.0,0.0,0.0,0.0,0.0,0.0,0.0,0.0,0.0,0.0,0.0,0.0,0.0,0.0,0.0,0.0,0.0,0.0,0.0,0.0,0.0,0.0,0.0,0.0,0.0,0.0,0.0,0.0,0.0,0.0,0.0,0.0,0.0,0.0,0.0,0.0,0.0,0.0,0.0,0.0,0.0,0.0,0.0,0.0,0.0,0.0,0.0,0.0,0.0,0.0,0.0,0.0,0.0,-4.8915,-5.3805,-5.7801,-6.0768,-6.1294,-6.1058,-6.0255,-5.9491,-5.6268,0.0,0.0,0.0,0.0,0.0,0.0,0.0,0.0,0.0,0.0,0.0,0.0,0.0,0.0,0.0,0.0,0.0,0.0,0.0,0.0,0.0,0.0,0.0,0.0,0.0,0.0,0.0,0.0,0.0,0.0,0.0,0.0,0.0,0.0,0.0,0.0,0.0,0.0,0.0,0.0,0.0,-4.4947,-4.5128,-4.4295,-4.386,0.0,0.0,-4.3969,-4.5562,-4.5452,0.0,0.0,0.0,0.0,0.0,0.0,0.0,0.0,0.0,0.0,0.0,0.0,0.0,0.0,0.0,0.0,0.0,0.0,0.0,0.0,0.0,0.0,0.0,0.0,0.0,0.0,0.0,0.0,0.0,0.0,0.0,0.0,0.0,0.0,0.0,0.0,0.0,0.0,0.0,0.0,0.0,0.0,0.0,0.0,0.0,0.0,0.0,0.0,0.0,0.0,0.0,0.0,0.0,0.0,0.0,-4.571,-4.9574,-5.5229,-5.9325,-6.1633,-6.1923,-6.1751,-6.1096,-6.0714,-5.7313,0.0,0.0,0.0,0.0,0.0,0.0,0.0,0.0,0.0,0.0,0.0,0.0,0.0,0.0,0.0,0.0,0.0,0.0,0.0,0.0,0.0,0.0,0.0,0.0,0.0,0.0,0.0,0.0,0.0,0.0,0.0,0.0,0.0,0.0,0.0,0.0,0.0,0.0,0.0,0.0,0.0,0.0,-4.7829,-4.654,0.0,0.0,0.0,-4.7108,-4.7989,0.0,0.0,0.0,0.0,0.0,0.0,0.0,0.0,0.0,0.0,0.0,0.0,0.0,0.0,0.0,0.0,0.0,0.0,0.0,0.0,0.0,0.0,0.0,0.0,0.0,0.0,0.0,0.0,0.0,0.0,0.0,0.0,0.0,0.0,0.0,0.0,0.0,0.0,0.0,0.0,0.0,0.0,0.0,0.0,0.0,0.0,0.0,0.0,0.0,0.0,0.0,0.0,0.0,0.0,0.0,0.0,0.0,-5.0195,-5.6972,-6.118,-6.2402,-6.2715,-6.2543,-6.196,-6.1745,0.0,0.0,0.0,0.0,0.0,0.0,0.0,0.0,0.0,0.0,0.0,0.0,0.0,0.0,0.0,0.0,0.0,0.0,0.0,0.0,0.0,0.0,0.0,0.0,0.0,0.0,0.0,-2.9379,0.0,0.0,0.0,0.0,0.0,0.0,0.0,0.0,0.0,0.0,0.0,0.0,0.0,0.0,-4.7228,-5.0017,-4.9039,-4.896,0.0,0.0,-4.9811,-5.0341,-5.0225,-4.8891,0.0,0.0,0.0,0.0,0.0,0.0,0.0,0.0,0.0,0.0,0.0,0.0,0.0,0.0,0.0,0.0,0.0,0.0,0.0,0.0,0.0,0.0,0.0,0.0,0.0,0.0,0.0,0.0,0.0,0.0,0.0,0.0,0.0,0.0,0.0,0.0,0.0,0.0,0.0,0.0,0.0,0.0,0.0,0.0,0.0,0.0,0.0,0.0,0.0,0.0,0.0,0.0,0.0,0.0,0.0,-5.0659,-5.8409,-6.2588,-6.2859,-6.3655,-6.3679,-6.2839,-6.2051,-5.8459,0.0,0.0,0.0,0.0,0.0,0.0,0.0,0.0,0.0,0.0,0.0,0.0,0.0,0.0,0.0,0.0,0.0,0.0,0.0,0.0,0.0,0.0,0.0,0.0,0.0,0.0,0.0,0.0,0.0,0.0,0.0,0.0,0.0,0.0,0.0,0.0,0.0,0.0,0.0,0.0,0.0,-4.6794,-5.0669,-5.1719,-5.2557,0.0,0.0,-5.1983,-5.306,-5.2825,-5.0577,-4.4784,0.0,0.0,0.0,0.0,0.0,0.0,0.0,0.0,0.0,0.0,0.0,0.0,0.0,0.0,0.0,0.0,0.0,0.0,0.0,0.0,0.0,0.0,0.0,0.0,0.0,0.0,0.0,0.0,0.0,0.0,0.0,0.0,0.0,0.0,0.0,0.0,0.0,0.0,0.0,0.0,0.0,0.0,0.0,0.0,0.0,0.0,0.0,0.0,0.0,0.0,0.0,0.0,0.0,-4.7845,-5.0429,-5.8076,-6.2494,-6.3508,-6.4085,-6.4182,-6.3694,-6.3388,-6.0523,0.0,0.0,0.0,0.0,0.0,0.0,0.0,0.0,0.0,0.0,0.0,0.0,0.0,0.0,0.0,0.0,0.0,0.0,0.0,0.0,0.0,0.0,0.0,0.0,0.0,0.0,0.0,0.0,-3.5965,-3.5991,-3.4069,0.0,0.0,0.0,0.0,0.0,0.0,0.0,0.0,0.0,0.0,-5.1937,-5.3929,-5.4217,0.0,0.0,-5.5363,-5.4514,-5.5783,-5.3579,-5.0957,-4.8633,-4.5402,0.0,0.0,0.0,0.0,0.0,0.0,0.0,0.0,0.0,0.0,0.0,0.0,0.0,0.0,0.0,0.0,0.0,0.0,0.0,0.0,0.0,0.0,0.0,0.0,0.0,0.0,0.0,0.0,0.0,0.0,0.0,0.0,0.0,0.0,0.0,0.0,0.0,0.0,0.0,0.0,0.0,0.0,0.0,0.0,0.0,0.0,0.0,0.0,0.0,0.0,0.0,0.0,-4.8088,-5.0671,-5.823,-6.2692,-6.3896,-6.4292,-6.453,-6.4558,-6.4207,-6.194,0.0,0.0,0.0,0.0,0.0,0.0,0.0,0.0,0.0,0.0,0.0,0.0,0.0,0.0,0.0,0.0,0.0,0.0,0.0,0.0,0.0,0.0,0.0,0.0,0.0,0.0,0.0,0.0,-3.8207,-3.7265,-3.4552,0.0,0.0,0.0,0.0,0.0,0.0,0.0,0.0,0.0,0.0,-5.5087,-5.6562,-5.6338,-5.6473,-5.7832,-5.6364,-5.5249,-5.5757,-5.3648,-5.158,-5.0385,0.0,0.0,0.0,0.0,0.0,0.0,0.0,0.0,0.0,0.0,0.0,0.0,0.0,0.0,0.0,0.0,0.0,0.0,0.0,0.0,0.0,0.0,0.0,0.0,0.0,0.0,0.0,0.0,0.0,0.0,0.0,0.0,0.0,0.0,0.0,0.0,0.0,0.0,0.0,0.0,0.0,0.0,0.0,0.0,0.0,0.0,0.0,0.0,0.0,0.0,0.0,0.0,0.0,-4.8922,-5.1522,-5.921,-6.3438,-6.3876,-6.4292,-6.4757,-6.5291,-6.4302,-6.2252,-5.9043,0.0,0.0,0.0,0.0,0.0,0.0,0.0,0.0,0.0,0.0,0.0,0.0,0.0,0.0,0.0,0.0,0.0,0.0,0.0,0.0,0.0,0.0,0.0,0.0,0.0,0.0,-3.4914,-3.5478,-3.5327,0.0,0.0,0.0,0.0,0.0,0.0,0.0,0.0,0.0,0.0,-5.2625,-5.4939,-5.8073,-5.8029,-5.7349,-5.6357,-5.5069,-5.3763,-5.2574,-5.3151,-5.2652,0.0,0.0,0.0,0.0,0.0,0.0,0.0,0.0,0.0,0.0,0.0,0.0,0.0,0.0,0.0,0.0,0.0,0.0,0.0,0.0,0.0,0.0,0.0,0.0,0.0,0.0,0.0,-4.8569,-4.7849,0.0,0.0,0.0,0.0,0.0,0.0,0.0,0.0,0.0,0.0,0.0,-5.5615,-5.6928,0.0,0.0,0.0,0.0,0.0,0.0,0.0,0.0,0.0,0.0,0.0,0.0,-4.9459,-5.1615,-5.9027,-6.3121,-6.352,-6.4004,-6.4406,-6.4795,-6.4459,-6.2208,-5.7845,0.0,0.0,0.0,0.0,0.0,0.0,0.0,0.0,0.0,0.0,0.0,0.0,0.0,0.0,0.0,0.0,0.0,0.0,0.0,0.0,0.0,0.0,0.0,0.0,0.0,-3.687,0.0,0.0,0.0,0.0,0.0,0.0,0.0,0.0,0.0,0.0,0.0,-4.8967,-5.2444,-5.6102,-5.8707,-5.9509,-5.9579,-5.9304,0.0,0.0,0.0,0.0,0.0,0.0,0.0,0.0,0.0,0.0,0.0,0.0,0.0,0.0,-4.7868,-4.1834,-4.0514,-4.0415,-4.0647,0.0,0.0,0.0,0.0,0.0,0.0,0.0,0.0,0.0,0.0,0.0,0.0,0.0,0.0,0.0,0.0,-5.1714,0.0,0.0,0.0,0.0,0.0,0.0,0.0,0.0,-5.7753,-5.9347,-5.9515,-6.0529,-6.0191,0.0,-5.7135,-5.3808,0.0,0.0,0.0,0.0,0.0,0.0,0.0,0.0,-5.0633,-5.3481,-5.9591,-6.2941,-6.3285,-6.372,-6.4125,-6.4464,-6.4483,-6.2879,-5.9403,-5.6743,-5.3634,0.0,0.0,0.0,0.0,0.0,0.0,0.0,0.0,0.0,0.0,0.0,0.0,0.0,0.0,0.0,0.0,0.0,0.0,0.0,0.0,0.0,0.0,0.0,-3.9405,0.0,0.0,0.0,0.0,0.0,0.0,0.0,0.0,0.0,-4.4005,-4.8894,-5.3422,-5.5848,-5.8688,-6.0472,-6.0172,0.0,0.0,0.0,0.0,0.0,0.0,0.0,-5.2665,-5.3653,-5.1428,-4.962,-4.9859,-5.1756,-5.2945,-5.1879,0.0,0.0,-4.7106,-4.5748,-4.5649,-4.5914,-4.6971,-4.7664,-4.7249,-4.8519,-4.9654,0.0,0.0,0.0,0.0,0.0,0.0,0.0,0.0,-5.5268,-5.51,0.0,-5.5174,0.0,0.0,0.0,0.0,0.0,0.0,0.0,0.0,-6.2677,-6.4229,-6.4209,-6.4229,-6.4247,-6.4247,-6.3326,-6.126,-5.7885,-5.2657,0.0,0.0,0.0,0.0,0.0,0.0,-5.2552,-5.7069,-6.0845,-6.2941,-6.3262,-6.3474,-6.3873,-6.4445,-6.4445,-6.4162,-6.351,-6.0375,-5.7122,-5.3806,-4.7319,0.0,0.0,0.0,0.0,0.0,0.0,0.0,0.0,0.0,0.0,0.0,0.0,0.0,0.0,0.0,0.0,0.0,0.0,0.0,0.0,-4.2013,0.0,0.0,0.0,0.0,0.0,0.0,0.0,0.0,0.0,0.0,-5.0583,-5.3132,-5.65,-6.0194,0.0,0.0,0.0,0.0,-5.8572,-5.7877,-5.6638,-5.5438,-5.4292,-5.5111,-5.5447,-5.4382,0.0,0.0,-5.3328,-5.4941,-5.5719,-5.3069,-5.4825,-5.6216,-5.4659,-5.2572,-5.1614,-5.2243,-5.1846,-5.1886,-5.2832,-5.4276,-5.5892,-6.2401,0.0,0.0,0.0,0.0,-5.837,-5.9522,-6.1936,-6.1433,-6.0522,-5.9358,-5.9499,0.0,0.0,0.0,0.0,0.0,0.0,-5.8145,-5.995,-6.1704,-6.3158,-6.4284,-6.4284,-6.4186,-6.3984,-6.3797,-6.3094,-6.1949,-6.01,-5.4244,-4.4855,0.0,0.0,0.0,0.0,-5.5269,-5.7286,-6.0704,-6.2654,-6.2917,-6.3171,-6.3511,-6.3851,-6.3984,-6.4056,-6.401,-6.2673,-6.021,-5.6459,-5.321,0.0,0.0,0.0,0.0,0.0,0.0,0.0,0.0,0.0,0.0,0.0,0.0,0.0,0.0,0.0,0.0,0.0,0.0,0.0,-3.9478,-4.3172,-4.4548,0.0,0.0,0.0,0.0,0.0,0.0,0.0,0.0,0.0,-5.5993,-5.7804,-5.9325,0.0,0.0,-6.0999,-5.9719,-6.0278,-6.0496,-5.9599,0.0,0.0,0.0,-5.7491,-5.6552,-5.7431,-5.7185,-5.6573,-5.57,-5.6188,-5.6415,-5.5591,-5.6117,-5.6591,-5.634,-5.5733,-5.526,-5.5426,-5.5368,-5.5488,-5.6014,-5.6586,-5.71,-6.8264,-6.5483,-6.3183,-6.272,-6.3482,-6.2612,-6.3678,-6.5902,-6.5095,-6.4305,-6.3542,-6.3535,-6.1891,-5.9084,-5.7914,0.0,0.0,0.0,-6.0611,-6.219,-6.3062,-6.4016,-6.4951,-6.4989,-6.4887,-6.4696,-6.4361,-6.4331,-6.4545,-6.3574,-5.8976,-5.1137,0.0,0.0,-5.0373,-5.4399,-5.7514,-5.9569,-6.1464,-6.2709,-6.3282,-6.3331,-6.3442,-6.3579,-6.3698,-6.3857,-6.4087,-6.38,-6.2447,-5.9845,-5.7516,-5.4446,0.0,0.0,0.0,0.0,0.0,0.0,0.0,0.0,0.0,0.0,0.0,-3.4407,0.0,0.0,0.0,0.0,-4.1596,-4.3751,-4.578,-4.8025,0.0,0.0,0.0,0.0,0.0,0.0,0.0,-5.3929,-5.6717,-5.8854,-6.0122,-6.1136,-6.1462,-6.0665,-6.1515,-6.1724,-6.0418,0.0,-6.142,-6.0493,-6.051,-6.0637,-6.075,-5.9149,-5.8167,-5.9043,-5.8461,-5.777,-5.7614,-5.7574,-5.758,-5.7692,-5.7659,-5.7737,-5.7969,-5.7891,-5.7581,-5.7082,-5.7258,-5.7611,-5.78,-5.8073,-5.8387,-7.3055,-7.2618,-6.8638,-6.6666,-6.6258,-6.585,-6.6284,-6.7201,-6.6896,-6.6748,-6.6796,-6.706,-6.5578,-6.2702,-6.0944,0.0,0.0,-6.332,-6.4179,-6.5595,-6.5899,-6.6017,-6.6017,-6.6017,-6.5993,-6.5932,-6.5167,-6.5167,-6.5811,-6.419,-6.2248,-6.0069,-5.8677,-5.7812,-5.7424,-5.759,-5.9532,-6.3092,-6.2757,-6.3012,-6.398,-6.3733,-6.3579,-6.3557,-6.3557,-6.3669,-6.3814,-6.4046,-6.3873,-6.3276,-6.0585,-5.8202,-5.6274,0.0,0.0,0.0,0.0,0.0,0.0,0.0,0.0,0.0,0.0,0.0,0.0,0.0,0.0,0.0,-5.0995,0.0,-5.5595,-5.4617,0.0,0.0,0.0,-4.9691,-5.0886,-5.4074,-5.6573,-5.755,0.0,0.0,0.0,0.0,-6.3019,-6.2295,-6.2436,-6.2427,-6.1836,-6.1895,-6.1745,-6.0962,-6.07,-6.0544,-6.0608,-6.0329,-6.0042,-5.9766,-5.9538,-5.9282,-5.896,-5.8873,-5.8986,-5.9079,-5.9185,-5.9231,-5.9466,-5.9404,-5.9103,-5.7834,-5.8098,-5.8571,-5.8757,-5.9237,-5.9717,-7.3552,-7.2979,-7.2508,-7.1561,-7.0234,-6.9264,-6.9058,-6.9228,-6.8918,-6.8938,-6.9133,-6.8796,-6.7776,-6.6238,-6.5416,-6.5024,-6.5004,-6.5234,-6.5419,-6.562,-6.5861,-6.6017,-6.6017,-6.6017,-6.5899,-6.5693,-6.5484,-6.5423,-6.5444,-6.5025,-6.4497,-6.3945,-6.3496,-6.1343,-5.7802,-6.0441,-6.2332,-6.3164,-6.3655,-6.3957,-6.4016,-6.3756,-6.3511,-6.3302,-6.3265,-6.3275,-6.3308,-6.3535,-6.3664,-6.3651,-6.273,-6.1676,-6.0422,-5.1876,0.0,0.0,0.0,0.0,0.0,0.0,0.0,0.0,0.0,-4.2339,-3.7993,0.0,-4.4947,0.0,-5.5848,-5.755,-5.3711,-5.4617,0.0,0.0,-5.353,-5.3639,-5.8565,-5.8383,-5.8854,-6.1462,-6.244,-6.32,-6.3997,-6.4106,-6.4033,-6.3852,-6.3912,-6.3451,-6.2128,-6.2942,-6.3265,-6.2043,-6.193,-6.2119,-6.2229,-6.1828,-6.1337,-6.0849,-6.0102,-5.9466,-5.9382,-5.9225,-5.9139,-5.9218,-5.9343,-5.9499,-5.9761,-5.9737,-5.9742,-5.9452,-5.9443,-5.9501,-5.954,-5.9823,-6.0072,-7.4507,-7.4125,-7.4163,-7.3667,-7.2733,-7.1575,-7.1196,-7.1269,-7.0817,-7.0738,-7.0933,-7.0444,-7.0099,-6.9775,-6.8556,-6.798,-6.78,-6.7123,-6.6678,-6.6526,-6.6715,-6.6765,-6.6728,-6.6728,-6.669,-6.6526,-6.6526,-6.6486,-6.6366,-6.5999,-6.5763,-6.571,-6.5264,-6.3596,-6.0919,-6.2866,-6.3902,-6.3828,-6.431,-6.4357,-6.3837,-6.3432,-6.2691,-6.1503,-6.2474,-6.2511,-6.1429,-6.2623,-6.2717,-6.1496,-6.1307,-6.1025,-6.041,-5.4588,-5.1799,0.0,0.0,0.0,0.0,0.0,0.0,0.0,0.0,0.0,0.0,0.0,-4.9003,0.0,-5.7659,0.0,-5.5522,-5.7261,-5.8854,-5.9289,-5.7804,-5.8166,-6.1616,-6.1136,-6.1208,-6.2983,-6.3526,-6.4033,-6.483,-6.4939,-6.5026,-6.5235,-6.5242,-6.4681,-6.34,-6.3981,-6.4288,-6.3205,-6.3096,-6.3294,-6.3639,-6.3726,-6.3494,-6.3042,-6.2308,-6.1682,-6.1482,-6.1272,-6.1224,-6.1272,-6.1475,-6.1682,-6.1914,-6.1953,-6.1992,-6.2032,-6.184,-6.1407,-6.0796,-6.1402,-6.2071,-7.5806,-7.573,-7.4889,-7.4584,-7.4604,-7.3495,-7.3036,-7.2945,-7.2356,-7.2174,-7.2305,-7.1899,-7.2079,-7.2514,-7.0744,-7.0102,-7.0302,-6.8783,-6.7998,-6.7834,-6.7834,-6.777,-6.766,-6.766,-6.766,-6.7633,-6.7633,-6.766,-6.766,-6.6936,-6.6516,-6.6335,-6.5613,-6.5113,-6.4793,-6.4838,-6.4911,-6.4855,-6.4758,-6.4256,-6.3454,-6.291,-6.1594,-5.9585,-6.1569,-6.1765,-5.9795,-6.1787,-6.1758,-5.9132,-5.9112,-5.9239,-5.9139,-5.7574,-5.6007,0.0,-5.2753,0.0,0.0,0.0,0.0,0.0,0.0,0.0,0.0,-5.3373,-5.3264,-5.2154,-5.813,-6.1136,-5.9072,-6.0774,-6.2041,-6.1978,-6.2087,-6.2123,-6.2186,-6.2875,-6.3382,-6.349,-6.4106,-6.4867,-6.5627,-6.5707,-6.5879,-6.6181,-6.6243,-6.5846,-6.4906,-6.5054,-6.5118,-6.4431,-6.4187,-6.4295,-6.4646,-6.5309,-6.5623,-6.527,-6.4659,-6.4457,-6.3918,-6.3718,-6.3691,-6.381,-6.3985,-6.4368,-6.4607,-6.458,-6.4681,-6.458,-6.4386,-6.3785,-6.2513,-6.3012,-6.4226,-7.7526,-7.7449,-7.657,-7.6647,-7.722,-7.6288,-7.4799,-7.2962,-7.2621,-7.2658,-7.2994,-7.2984,-7.2589,-7.1884,-7.1271,-7.0573,-6.9855,-6.9969,-6.9483,-6.8678,-6.8577,-6.8184,-6.7561,-6.735,-6.7294,-6.7294,-6.7294,-6.735,-6.7524,-6.7204,-6.7131,-6.725,-6.6957,-6.6445,-6.5806,0.0,0.0,0.0,-6.4703,-6.3418,-6.2652,-6.2068,-6.1324,-6.026,-6.1689,0.0,-6.1854,-6.227,-6.2296,-6.17,-6.2032,0.0,0.0,0.0,0.0,0.0,0.0,0.0,0.0,0.0,0.0,0.0,-5.3892,-5.411,-5.4508,-5.805,-5.9165,-5.6525,-5.9792,-6.1933,-6.139,-6.1716,-6.2041,-6.2041,-6.2585,-6.2947,-6.2983,-6.3671,-6.4396,-6.5084,-6.5265,-6.5663,-6.6388,-6.6451,-6.6338,-6.6305,-6.6499,-6.6429,-6.6057,-6.6104,-6.604,-6.5766,-6.546,-6.5226,-6.5309,-6.5718,-6.6014,-6.5684,-6.5062,-6.4647,-6.4626,-6.4598,-6.4367,-6.4187,-6.4556,-6.5034,-6.4776,-6.5087,-6.5595,-6.5493,-6.6027,-6.5962,-6.3953,-6.3466,-6.3539,-7.7798,0.0,-7.749,-7.7473,0.0,-7.7453,-7.6464,-7.5056,-7.5208,-7.5018,-7.4594,-7.4416,-7.3823,-7.2898,-7.2035,-7.1417,-7.0858,-7.0481,-7.0,-6.9411,-6.9291,-6.9015,-6.8528,-6.8442,-6.8159,-6.783,-6.8231,-6.8041,-6.7395,-6.764,-6.7794,-6.783,-6.7745,-6.744,-6.699,-6.6932,-6.6874,-6.6822,-6.5335,-6.4366,-6.4002,-6.3338,-6.2292,-6.0908,0.0,0.0,0.0,0.0,0.0,0.0,0.0,0.0,0.0,0.0,0.0,-5.8202,-5.5715,-5.4327,-5.4701,-5.4738,-5.5993,-5.8746,-5.9687,-5.9822,-5.9139,-6.1396,-6.2267,-6.1052,-6.2449,-6.333,-6.3228,-6.32,-6.32,-6.32,-6.3526,-6.378,-6.3852,-6.4504,-6.512,-6.5555,-6.5953,-6.6351,-6.675,-6.6909,-6.6808,-6.6662,-6.6886,-6.7193,-6.727,-6.713,-6.6944,-6.6892,-6.6872,-6.675,-6.6711,-6.6828,-6.6945,-6.6902,-6.6776,-6.6575,-6.6568,-6.6635,-6.6661,-6.6592,-6.6947,-6.7057,-6.704,-6.7251,-6.7438,-6.7088,-6.719,-6.7022,-6.5647,-6.5315,-6.5359,-7.8044,-7.8064,-7.8198,-7.8104,-7.7865,-7.8085,-7.793,-7.7587,0.0,0.0,0.0,-7.566,-7.4925,-7.4066,-7.2858,-7.2232,-7.1969,-7.0983,-7.0384,-7.0161,-7.0104,-6.9879,-6.9588,-6.9559,-6.9202,-6.8582,-6.9238,-6.8837,-6.7628,-6.8109,-6.8342,-6.84,-6.8262,-6.8173,-6.8162,-6.7438,-6.7003,-6.6967,-6.5917,-6.5301,-6.5156,-6.4541,-6.3303,-6.1474,-6.2954,-6.2949,-6.1349,-6.2219,-6.1517,-5.8956,-5.8584,-5.842,-5.8275,-5.8239,-5.9434,-6.1969,-6.2195,-6.2268,-6.2412,-6.2412,-6.273,-6.3345,-6.3997,-6.4162,-6.3612,-6.3594,-6.3912,-6.4575,-6.4612,-6.4584,-6.4452,-6.4424,-6.4396,-6.4396,-6.4541,-6.4613,-6.4649,-6.5301,-6.5844,-6.5881,-6.6533,-6.6974,-6.6957,-6.7328,-6.7414,-6.7166,-6.7437,-6.7905,-6.8253,-6.8138,-6.7977,-6.8042,-6.8072,-6.8132,-6.8044,-6.7975,-6.8192,-6.8256,-6.8411,-6.8644,-6.8759,-6.8879,-6.9069,-6.9067,-6.9252,-6.9252,-6.9313,-6.9322,-6.9335,-6.8808,-6.8299,-6.787,-6.7498,-6.7495,-6.7499,-7.9814,-7.9796,-7.9323,-7.9305,-7.9575,-7.8995,-7.9029,-7.9286,-7.7814,-7.6972,-7.6545,-7.5746,-7.483,-7.3839,-7.3341,-7.2648,-7.179,-7.205,-7.177,0.0,-7.0822,-7.0303,-6.9617,-6.9352,-6.9195,-6.9122,-6.9231,-6.9219,-6.9054,-6.8391,-6.8427,-6.9031,-6.8433,-6.8374,-6.8917,-6.8235,-6.7836,-6.78,-6.57,-6.4215,-6.3554,-6.3418,-6.3012,-6.2334,-6.3575,-6.4265,-6.4174,-6.4148,-6.3909,-6.3474,-6.3409,-6.3056,-6.2404,-6.2295,-6.2549,-6.2983,-6.3019,-6.3309,-6.3997,-6.407,-6.4106,-6.4215,-6.4323,-6.4352,-6.4307,-6.4494,-6.4612,-6.4612,-6.4767,-6.4722,-6.4584,-6.4517,-6.4504,-6.4504,-6.5048,-6.5446,-6.5482,-6.617,-6.6648,-6.6684,-6.7329,-6.7686,-6.741,-6.7868,-6.8046,-6.7719,-6.8116,-6.861,-6.9063,-6.9163,-6.9159,-6.9155,-6.9005,-6.8854,-6.8725,-6.847,-6.8621,-6.9055,-6.8898,-6.9028,-6.9541,-6.9798,-6.9853,-6.9526,-6.9968,-7.007,-6.9671,-6.9934,-7.0239,-7.0105,-6.9716,-6.949,-6.9419,-6.8813,-6.8111,-7.9865,-7.9975,-7.9836,-7.9713,-7.9524,-7.894,-7.9062,-7.9524,-7.8554,-7.7655,-7.6827,-7.6334,-7.5256,-7.3827,-7.3464,-7.2955,-7.2364,-7.2455,-7.2255,-7.1874,-7.2005,-7.1854,-7.1508,-7.1692,-7.1313,-7.0517,-7.0879,-7.0475,-6.9376,-6.9279,-6.9497,-6.9884,-6.9497,-6.9502,-6.9787,-6.9032,-6.8633,-6.8597,-6.6714,-6.5518,-6.5156,-6.5156,-6.5117,-6.4995,-6.5213,-6.546,-6.5878,-6.5049,-6.4667,-6.4831,-6.4592,-6.4215,-6.3852,-6.3852,-6.3852,-6.3852,-6.3852,-6.3997,-6.4359,-6.4794,-6.5048,-6.5048,-6.5446,-6.57,-6.57,-6.5464,-6.5504,-6.5848,-6.5949,-6.5921,-6.5778,-6.5757,-6.57,-6.57,-6.6424,-6.6895,-6.6974,-6.7493,-6.7872,-6.7817,-6.8012,-6.8107,-6.7816,-6.8233,-6.8496,-6.8327,-6.8964,-6.9697,-6.9974,-7.0359,-7.0464,-7.0075,-6.9834,-6.988,-6.9845,-6.9445,-6.9376,-6.9802,-7.0058,-7.0278,-7.0648,-7.0926,-7.1113,-7.1157,-7.1311,-7.1172,-7.0865,-7.1411,-7.1503,-7.0797,-7.087,-7.0798,-7.0416,-7.0119,-6.9894,-7.9615,-7.9756,-7.9929,-7.9674,-7.9126,-7.8749,-7.8878,-7.9383,-7.919,-7.8326,-7.718,-7.6901,-7.5982,-7.4548,-7.3993,-7.3589,-7.3351,-7.3162,-7.3025,-7.2944,-7.3283,-7.3421,-7.3374,-7.3728,-7.3269,-7.2183,-7.2509,-7.1748,-7.0191,-7.0263,-7.0408,-7.0408,-7.0553,-7.0661,-7.0625,-6.9865,-6.9497,-6.9388,-6.8054,-6.7257,-6.7076,-6.6895,-6.6932,-6.7146,-6.659,-6.6454,-6.6806,-6.574,-6.5213,-6.553,-6.4975,-6.4685,-6.4649,-6.4649,-6.4649,-6.4649,-6.4649,-6.4758,-6.4939,-6.5518,-6.5881,-6.5881,-6.646,-6.6822,-6.675,-6.6504,-6.6482,-6.691,-6.691,-6.6961,-6.7055,-6.704,-6.7148,-6.7329,-6.7873,-6.8168,-6.8283,-6.86,-6.8737,-6.8578,-6.8597,-6.8508,-6.8382,-6.8677,-6.9035,-6.9282,-7.0087,-7.071,-7.085,-7.1333,-7.1392,-7.0962,-7.0566,-7.0384,-7.0724,-7.0202,-7.0023,-7.0526,-7.105,-7.1491,-7.1863,-7.227,-7.2631,-7.2957,-7.2889,-7.2663,-7.261,-7.2908,-7.2734,-7.1756,-7.162,-7.1507,-7.0582,-7.1141,-7.1489,-7.9523,-7.9523,-7.9494,-7.9293,-7.9004,-7.8903,-7.8929,-7.9103,-7.9116,-7.8441,-7.7416,-7.7352,-7.7084,-7.6594,-7.5514,-7.49,-7.4684,-7.4661,-7.4595,-7.4565,-7.4372,-7.429,-7.4259,-7.4051,-7.3849,-7.3595,-7.3052,-7.2581,-7.2146,-7.0987,-7.0408,-7.048,-7.106,-7.135,-7.1313,-7.0661,-7.0294,-7.0294,-6.9424,-6.8597,-6.7909,-6.7184,-6.6932,-6.721,-6.7137,-6.7129,-6.714,-6.6326,-6.6114,-6.654,-6.5902,-6.5482,-6.5482,-6.5482,-6.5482,-6.5482,-6.5482,-6.5808,-6.646,-6.6641,-6.6677,-6.6677,-6.675,-6.6858,-6.6895,-6.7402,-6.7563,-6.7215,-6.7055,-6.739,-6.7971,-6.7932,-6.8162,-6.87,-6.8989,-6.9007,-6.8853,-6.8701,-6.8578,-6.8454,-6.8904,-6.9059,-6.8892,-6.9389,-6.9918,-7.0115,-7.088,-7.1396,-7.1354,-7.1599,-7.1729,-7.1486,-7.1053,-7.051,-7.0333,-7.0065,-7.0511,-7.1243,-7.1463,-7.2119,-7.3008,-7.3525,-7.38,-7.4102,-7.449,-7.4203,-7.3964,-7.4058,-7.3775,-7.2707,-7.2168,-7.1622,-7.0815,-7.1337,-7.1853,-7.9359,-7.9477,-7.926,-7.9102,-7.8979,-7.8827,-7.8616,-7.844,-7.8891,-7.8554,-7.7754,-7.7819,-7.7189,-7.5995,-7.5485,-7.5174,-7.4918,-7.4888,-7.4888,-7.4895,-7.503,-7.5092,-7.5097,-7.5281,-7.508,-7.454,-7.3812,-7.3128,-7.2581,-7.1567,-7.106,-7.1096,-7.1386,-7.1494,-7.1494,-7.1205,-7.1024,-7.1024,-7.0299,-6.9502,-6.8706,-6.7909,-6.7352,-6.6998,-6.6961,-6.7076,-6.7117,-6.6713,-6.6627,-6.6975,-6.6548,-6.6315,-6.6315,-6.6315,-6.6315,-6.6315,-6.6315,-6.646,-6.6786,-6.6822,-6.6822,-6.6822,-6.7257,-6.751,-6.7547,-6.8235,-6.8555,-6.8361,-6.8318,-6.8463,-6.8724,-6.87,-6.885,-6.9207,-6.9642,-6.9808,-6.9457,-6.9692,-6.9716,-6.9381,-6.9387,-6.9601,-6.9809,-7.0441,-7.078,-7.0779,-7.125,-7.1623,-7.1255,-7.1545,-7.1662,-7.1284,-7.0881,-7.0994,-7.1165,-7.0951,-7.1422,-7.2398,-7.2843,-7.3326,-7.4085,-7.4464,-7.4602,-7.4903,-7.4972,-7.4797,-7.4193,-7.4525,-7.4534,-7.3505,-7.27,-7.2072,-7.1687,-7.2485,-7.306,-7.9335,-7.9453,-7.9177,-7.8991,-7.8916,-7.8827,-7.8603,-7.8303,-7.8779,-7.8591,-7.8015,-7.8052,-7.7262,-7.6006,-7.5867,-7.5721,-7.5579,-7.5579,-7.5549,-7.5525,-7.5833,-7.5899,-7.5907,-7.6119,-7.5985,-7.537,-7.4392,-7.3378,-7.2436,-7.182,-7.1494,-7.1494,-7.1494,-7.1494,-7.1494,-7.1494,-7.1494,-7.1458,-7.0951,-7.0258,-6.9279,-6.8633,-6.7866,-6.7012,-6.6903,-6.7019,-6.7182,-6.6801,-6.6743,-6.7069,-6.6685,-6.6569,-6.6786,-6.6822,-6.6822,-6.6822,-6.6822,-6.6822,-6.6822,-6.7003,-6.7148,-6.7184,-6.7873,-6.8343,-6.8452,-6.9032,-6.9497,-6.9533,-6.9714,-6.9787,-6.9533,-6.9533,-6.9605,-6.9792,-7.0372,-7.0536,-7.0321,-7.0527,-7.0441,-7.0062,-6.9883,-7.0085,-7.0745,-7.1294,-7.1473,-7.1151,-7.1456,-7.169,-7.1174,-7.1367,-7.1365,-7.0906,-7.0812,-7.1255,-7.2049,-7.1893,-7.2345,-7.3463,-7.405,-7.4292,-7.5007,-7.5179,-7.542,-7.58,-7.5514,-7.5337,-7.5219,-7.5333,-7.5018,-7.3724,-7.2944,-7.2624,-7.2579,-7.3511,-7.3988,-7.95,-7.9453,-7.9177,-7.8929,-7.8734,-7.8991,-7.9054,-7.8841,-7.8801,-7.8501,-7.8108,-7.792,-7.7599,-7.7151,-7.7078,-7.7157,-7.7127,-7.7053,-7.6992,-7.6868,-7.6751,-7.6668,-7.6541,-7.6412,-7.6275,-7.6022,-7.4718,-7.3197,-7.1748,-7.1531,-7.1494,-7.1494,-7.1494,-7.1494,-7.1494,-7.1494,-7.1494,-7.1494,-7.1422,-7.0698,-6.9461,-6.9171,-6.8493,-6.7316,-6.7182,-6.7154,-6.7109,-6.6453,-6.6304,-6.6779,-6.6163,-6.6062,-6.6714,-6.6822,-6.6822,-6.6822,-6.6822,-6.6822,-6.6931,-6.751,-6.7909,-6.8054,-6.8669,-6.9171,-6.9207,-6.9865,-7.0299,-7.0335,-7.0879,-7.0987,-7.0444,-7.0299,-7.0589,-7.1132,-7.135,-7.1327,-7.1204,-7.0817,-7.0444,-7.031,-7.0482,-7.089,-7.1549,-7.1743,-7.181,-7.1698,-7.1797,-7.1771,-7.162,-7.1255,-7.0961,-7.0934,-7.1011,-7.1256,-7.2189,-7.2384,-7.3084,-7.4253,-7.4947,-7.5154,-7.5671,-7.612,-7.6464,-7.6651,-7.6527,-7.637,-7.6336,-7.5905,-7.5268,-7.424,-7.3276,-7.2952,-7.3057,-7.3646,-7.4206,-7.9471,-7.9163,-7.9103,-7.8966,-7.8734,-7.8991,-7.8679,-7.809,-7.851,-7.8213,-7.758,-7.7678,-7.7725,-7.7607,-7.7365,-7.731,-7.731,-7.731,-7.7248,-7.7092,-7.6866,-7.6741,-7.6578,-7.6412,-7.6275,-7.613,-7.5189,-7.3816,-7.2364,-7.1748,-7.1494,-7.1494,-7.1494,-7.1494,-7.1494,-7.1494,-7.1494,-7.1494,-7.1494,-7.0987,-7.004,-6.9461,-6.8694,-6.7767,-6.7215,-6.6961,-6.6925,-6.6671,-6.6613,-6.6786,-6.6533,-6.6496,-6.675,-6.6822,-6.6822,-6.6822,-6.6822,-6.704,-6.751,-6.7836,-6.8235,-6.8778,-6.9533,-6.9968,-7.0113,-7.0625,-7.1096,-7.1168,-7.1277,-7.1313,-7.1205,-7.1096,-7.1205,-7.1422,-7.1494,-7.1399,-7.1251,-7.138,-7.14,-7.102,-7.1431,-7.2114,-7.2279,-7.2474,-7.232,-7.1927,-7.1494,-7.1289,-7.1224,-7.0984,-7.1023,-7.1442,-7.163,-7.2141,-7.3641,-7.3388,-7.3629,-7.4885,-7.5775,-7.6085,-7.6499,-7.6706,-7.6937,-7.6903,-7.6929,-7.6656,-7.638,-7.5689,-7.5097,-7.4506,-7.3577,-7.3318,-7.3337,-7.4003,-7.4506,-7.9691,-7.9526,-7.9216,-7.9166,-7.9238,-7.9053,-7.8553,-7.7898,-7.8234,-7.7969,-7.7413,-7.7533,-7.7673,-7.7577,-7.7335,-7.7248,-7.7248,-7.7212,-7.7118,-7.6998,-7.6838,-7.6643,-7.6478,-7.6378,-7.6167,-7.5804,-7.5116,-7.403,-7.2798,-7.2146,-7.1784,-7.1494,-7.1494,-7.1494,-7.1494,-7.1494,-7.1494,-7.1494,-7.1494,-7.1132,-7.0408,-6.9865,-6.9213,-6.8452,-6.7836,-6.7293,-6.6858,-6.6822,-6.6822,-6.6822,-6.6822,-6.6822,-6.6822,-6.6822,-6.6822,-6.6822,-6.7076,-6.7402,-6.7981,-6.8488,-6.9032,-6.9539,-7.0299,-7.0734,-7.077,-7.1205,-7.1458,-7.1494,-7.1494,-7.1494,-7.1494,-7.1494,-7.1494,-7.1494,-7.1494,-7.1544,-7.1536,-7.1909,-7.2042,-7.2013,-7.2345,-7.282,-7.3089,-7.2991,-7.2582,-7.2004,-7.1435,-7.1144,-7.0951,-7.1156,-7.1388,-7.1918,-7.2232,-7.2938,-7.4107,-7.4255,-7.4672,-7.5901,-7.6317,-7.674,-7.6947,-7.7109,-7.7178,-7.7133,-7.6918,-7.6599,-7.6101,-7.5436,-7.4902,-7.4456,-7.4105,-7.38,-7.4054,-7.4406,-7.4852,-8.0144,-8.0457,-7.9577,-7.9542,-7.9991,-7.9175,-7.8708,-7.8437,-7.8071,-7.7805,-7.7577,-7.7426,-7.7304,-7.731,-7.7155,-7.7092,-7.7092,-7.7061,-7.6998,-7.6801,-7.6676,-7.6512,-7.6309,-7.6203,-7.5841,-7.5192,-7.4392,-7.3595,-7.2834,-7.2653,-7.2255,-7.1639,-7.1494,-7.1494,-7.1494,-7.1494,-7.1494,-7.1494,-7.1494,-7.1132,-7.0511,-7.0366,-6.9932,-6.9279,-6.9098,-6.8343,-6.7003,-6.6967,-6.7003,-6.6895,-6.6895,-6.6822,-6.6822,-6.6822,-6.6822,-6.6931,-6.751,-6.7945,-6.8199,-6.9394,-7.0154,-7.0444,-7.106,-7.1386,-7.1386,-7.1458,-7.1494,-7.1494,-7.1494,-7.1494,-7.1494,-7.1494,-7.1494,-7.1531,-7.1567,-7.1897,-7.234,-7.2401,-7.2505,-7.3112,-7.3194,-7.3206,-7.3576,-7.3223,-7.2559,-7.2165,-7.1785,-7.1587,-7.1368,-7.1686,-7.1951,-7.225,-7.2828,-7.3769,-7.4503,-7.5229,-7.6061,-7.6839,-7.6916,-7.7154,-7.712,-7.7223,-7.7223,-7.7133,-7.6816,-7.6461,-7.6007,-7.5388,-7.5146,-7.4754,-7.4506,-7.4356,-7.4556,-7.4803,-7.5146,-8.0271,-8.078,-7.9626,-7.9466,-7.9949,-7.9071,-7.8495,-7.8071,-7.7842,-7.7703,-7.7426,-7.7279,-7.7155,-7.7124,-7.6961,-7.6897,-7.6866,-7.6806,-7.6708,-7.6643,-7.6614,-7.6515,-7.6236,-7.5732,-7.5336,-7.5083,-7.483,-7.4287,-7.3559,-7.2979,-7.2291,-7.1639,-7.1494,-7.1494,-7.1494,-7.1494,-7.1494,-7.1494,-7.1494,-7.135,-7.1096,-7.0661,-7.0263,-7.004,-6.9497,-6.8953,-6.8488,-6.8452,-6.8162,-6.7692,-6.7619,-6.7402,-6.6931,-6.6822,-6.6822,-6.6895,-6.7583,-6.8271,-6.885,-6.9756,-7.0661,-7.106,-7.1386,-7.1494,-7.1494,-7.1494,-7.1494,-7.1494,-7.1494,-7.1494,-7.1494,-7.1494,-7.1531,-7.1531,-7.2001,-7.2368,-7.2774,-7.3173,-7.3726,-7.4329,-7.4014,-7.3803,-7.3707,-7.3094,-7.2545,-7.2556,-7.1951,-7.1575,-7.2248,-7.2515,-7.3011,-7.3409,-7.4057,-7.4451,-7.5099,-7.5688,-7.637,-7.6953,-7.7133,-7.7223,-7.7223,-7.7178,-7.7178,-7.6998,-7.6679,-7.6356,-7.5852,-7.5532,-7.5291,-7.5146,-7.5048,-7.4951,-7.4951,-7.5146,-7.547,-8.0315,-8.0908,-7.9553,-7.9313,-7.9765,-7.8793,-7.8193,-7.782,-7.7636,-7.7457,-7.7248,-7.7155,-7.7061,-7.6929,-7.6769,-7.6741,-7.6708,-7.6545,-7.6478,-7.6478,-7.6478,-7.6412,-7.6203,-7.5478,-7.5083,-7.5011,-7.4757,-7.4395,-7.3885,-7.3088,-7.2291,-7.1639,-7.1494,-7.1494,-7.1494,-7.1494,-7.1494,-7.1494,-7.1494,-7.1494,-7.1422,-7.106,-7.0806,-7.0734,-7.0299,-7.0113,-7.0046,-7.0077,-6.9539,-6.8597,-6.8199,-6.7619,-6.6895,-6.6822,-6.6822,-6.7003,-6.78,-6.8669,-6.9243,-7.0191,-7.0951,-7.1422,-7.1494,-7.1494,-7.1494,-7.1494,-7.1494,-7.1494,-7.1494,-7.1494,-7.1494,-7.1494,-7.1603,-7.1929,-7.24,-7.2915,-7.3261,-7.3972,-7.4438,-7.4679,-7.4329,-7.4194,-7.4052,-7.3798,-7.3155,-7.3259,-7.2923,-7.2256,-7.3159,-7.3343,-7.3824,-7.424,-7.4505,-7.4996,-7.5723,-7.6228,-7.6599,-7.6953,-7.7178,-7.7223,-7.7223,-7.7178,-7.7178,-7.6816,-7.6495,-7.6216,-7.5757,-7.5676,-7.5532,-7.5484,-7.547,-7.5518,-7.547,-7.547,-7.5662,-8.0293,-8.0825,-7.9379,-7.9156,-7.9647,-7.8442,-7.7783,-7.7666,-7.7463,-7.7248,-7.7092,-7.7029,-7.6966,-7.6806,-7.6643,-7.6545,-7.6581,-7.6412,-7.6309,-7.6309,-7.6309,-7.6239,-7.5985,-7.5551,-7.5297,-7.5044,-7.4431,-7.4066,-7.3885,-7.3088,-7.2291,-7.1603,-7.1494,-7.1494,-7.1494,-7.1494,-7.1494,-7.1494,-7.1494,-7.1494,-7.1494,-7.1458,-7.1458,-7.1422,-7.135,-7.1313,-7.1277,-7.1241,-7.0661,-6.9424,-6.8488,-6.7692,-6.7076,-6.6895,-6.6967,-6.7076,-6.838,-6.9134,-6.9605,-7.0589,-7.1422,-7.1494,-7.1494,-7.1494,-7.1494,-7.1494,-7.1494,-7.1494,-7.1494,-7.1494,-7.1494,-7.1494,-7.1861,-7.2553,-7.2951,-7.3471,-7.443,-7.487,-7.4935,-7.474,-7.4389,-7.4326,-7.5028,-7.4973,-7.4621,-7.4346,-7.4412,-7.4026,-7.3689,-7.3757,-7.4223,-7.4573,-7.4886,-7.534,-7.5994,-7.6461,-7.6862,-7.6998,-7.7178,-7.7213,-7.7178,-7.7133,-7.7043,-7.6679,-7.6424,-7.6109,-7.5805,-7.5757,-7.5709,-7.5628,-7.5709,-7.5852,-7.5899,-7.5852,-7.5947,-8.0204,-8.0641,-7.9303,-7.9023,-7.94,-7.8327,-7.7614,-7.731,-7.7217,-7.7024,-7.6866,-7.6773,-7.6708,-7.661,-7.6478,-7.6378,-7.6378,-7.6309,-7.6275,-7.6275,-7.6275,-7.5913,-7.5659,-7.5841,-7.5659,-7.5152,-7.479,-7.4468,-7.3852,-7.3052,-7.2255,-7.1531,-7.1494,-7.1494,-7.1494,-7.1494,-7.1494,-7.1494,-7.1494,-7.1494,-7.1494,-7.1494,-7.1494,-7.1494,-7.1494,-7.1494,-7.1494,-7.1494,-7.1096,-7.0082,-6.8706,-6.7945,-6.7698,-6.7692,-6.7692,-6.7879,-6.9104,-7.0077,-7.0258,-7.0951,-7.1458,-7.1494,-7.1494,-7.1494,-7.1494,-7.1494,-7.1494,-7.1494,-7.1494,-7.1494,-7.1494,-7.1535,-7.2018,-7.2981,-7.3699,-7.4454,-7.5149,-7.5192,-7.5109,-7.5456,-7.5062,-7.5248,-7.5614,-7.5526,-7.5188,-7.4967,-7.4691,-7.4464,-7.4073,-7.4107,-7.4506,-7.4821,-7.5179,-7.5662,-7.6182,-7.6691,-7.7043,-7.7133,-7.7213,-7.7213,-7.7133,-7.7009,-7.6828,-7.6541,-7.6467,-7.6218,-7.594,-7.5743,-7.5709,-7.5879,-7.5852,-7.6028,-7.6122,-7.6169,-7.6262,-7.9849,-7.9889,-7.891,-7.8619,-7.871,-7.7946,-7.7396,-7.7155,-7.7092,-7.6966,-7.6741,-7.6647,-7.6614,-7.6581,-7.6412,-7.6378,-7.6412,-7.6309,-7.6275,-7.6275,-7.6275,-7.5877,-7.5478,-7.5913,-7.5877,-7.5119,-7.479,-7.4323,-7.3744,-7.2762,-7.1965,-7.1603,-7.1494,-7.1494,-7.1494,-7.1494,-7.1531,-7.1494,-7.1494,-7.1494,-7.1494,-7.1494,-7.1494,-7.1494,-7.1494,-7.1494,-7.1494,-7.1494,-7.1168,-7.0372,-6.9502,-6.8856,-6.8434,-6.8494,-6.8458,-6.847,-6.9653,-7.0372,-7.0517,-7.106,-7.1458,-7.1494,-7.1494,-7.1494,-7.1494,-7.1494,-7.1494,-7.1494,-7.1494,-7.1494,-7.1608,-7.1946,-7.2659,-7.3505,-7.4366,-7.5012,-7.5407,-7.5291,-7.5309,-7.5539,-7.5653,-7.5871,-7.6602,-7.6098,-7.5793,-7.5595,-7.5093,-7.4776,-7.4439,-7.4589,-7.4722,-7.5018,-7.5325,-7.5757,-7.6135,-7.6599,-7.6976,-7.7147,-7.765,-7.7581,-7.7239,-7.7034,-7.6839,-7.6709,-7.653,-7.6476,-7.6414,-7.6318,-7.6284,-7.6332,-7.6252,-7.6156,-7.6297,-7.6449,-7.6541,-7.9471,-7.8904,-7.8421,-7.8034,-7.782,-7.7463,-7.7248,-7.7124,-7.7061,-7.6902,-7.6676,-7.6614,-7.6614,-7.6614,-7.6478,-7.6445,-7.6581,-7.6478,-7.6376,-7.6342,-7.6273,-7.5949,-7.5515,-7.5985,-7.5841,-7.5083,-7.425,-7.3885,-7.3378,-7.2219,-7.1603,-7.1494,-7.1494,-7.1494,-7.1567,-7.1603,-7.1675,-7.1712,-7.1784,-7.1784,-7.1712,-7.1639,-7.1494,-7.1494,-7.1494,-7.1494,-7.1494,-7.1494,-7.1205,-7.049,-7.0377,-6.9746,-6.911,-6.9162,-6.9162,-6.9214,-6.9958,-7.0589,-7.0625,-7.1168,-7.1494,-7.1494,-7.1494,-7.1494,-7.1531,-7.1639,-7.1752,-7.1657,-7.1648,-7.1838,-7.1889,-7.2631,-7.3293,-7.3797,-7.4399,-7.4673,-7.4806,-7.5263,-7.5568,-7.5464,-7.6087,-7.6678,-7.7033,-7.6892,-7.6415,-7.5948,-7.5547,-7.5171,-7.4852,-7.4787,-7.4968,-7.5179,-7.5518,-7.5805,-7.6135,-7.6461,-7.6828,-7.7182,-7.8041,-7.8213,-7.7571,-7.733,-7.7097,-7.6931,-7.6727,-7.7038,-7.7483,-7.7367,-7.7096,-7.6787,-7.6639,-7.6522,-7.6517,-7.6633,-7.6771,-7.9249,-7.8723,-7.8339,-7.8034,-7.7754,-7.7426,-7.7248,-7.7092,-7.6929,-7.6838,-7.6741,-7.6643,-7.6614,-7.6614,-7.6643,-7.6676,-7.661,-7.6643,-7.6639,-7.6548,-7.6378,-7.6239,-7.6022,-7.6239,-7.5841,-7.5083,-7.4319,-7.3631,-7.2943,-7.2255,-7.1531,-7.1531,-7.1639,-7.1531,-7.1603,-7.211,-7.2436,-7.2436,-7.24,-7.2364,-7.2146,-7.1748,-7.1494,-7.1494,-7.1494,-7.1494,-7.1494,-7.1494,-7.1295,-7.0851,-7.0285,-6.9825,-6.9649,-6.9641,-6.9673,-6.9849,-7.0613,-7.1241,-7.1277,-7.1354,-7.1494,-7.1463,-7.1535,-7.1494,-7.1567,-7.2114,-7.2239,-7.2257,-7.2554,-7.2636,-7.2577,-7.3012,-7.3436,-7.3677,-7.4052,-7.4526,-7.491,-7.527,-7.5944,-7.678,-7.707,-7.7327,-7.7725,-7.751,-7.6992,-7.638,-7.5865,-7.5614,-7.5277,-7.4935,-7.5033,-7.5179,-7.5422,-7.5743,-7.6333,-7.6718,-7.7225,-7.7616,-7.8407,-7.8647,-7.8002,-7.7827,-7.7659,-7.7332,-7.6985,-7.745,-7.8182,-7.8044,-7.7705,-7.7377,-7.7094,-7.6957,-7.6883,-7.6976,-7.6953,-7.8941,-7.8458,-7.8155,-7.7842,-7.7547,-7.7402,-7.7248,-7.7092,-7.6866,-7.6838,-7.6806,-7.6643,-7.6712,-7.6806,-7.6838,-7.6806,-7.6806,-7.6769,-7.6741,-7.6614,-7.6478,-7.6412,-7.6275,-7.6275,-7.6022,-7.5515,-7.4428,-7.3849,-7.3559,-7.269,-7.211,-7.2074,-7.2074,-7.211,-7.2074,-7.2545,-7.2653,-7.2653,-7.269,-7.2581,-7.211,-7.1748,-7.1494,-7.1494,-7.1494,-7.1494,-7.1494,-7.1336,-7.1175,-7.0839,-7.0286,-6.9904,-7.0038,-7.0204,-7.0303,-7.0411,-7.0983,-7.1431,-7.1436,-7.1404,-7.1372,-7.1344,-7.1661,-7.191,-7.2095,-7.2604,-7.287,-7.2813,-7.2896,-7.3011,-7.3082,-7.3219,-7.3421,-7.3758,-7.4202,-7.4817,-7.5489,-7.578,-7.6243,-7.7328,-7.753,-7.767,-7.7797,-7.7553,-7.702,-7.6182,-7.5566,-7.5228,-7.4951,-7.4738,-7.4886,-7.5048,-7.5277,-7.5735,-7.6462,-7.7074,-7.7801,-7.8285,-7.8926,-7.8797,-7.83,-7.834,-7.8366,-7.8002,-7.7656,-7.815,-7.8691,-7.8503,-7.8416,-7.8209,-7.7929,-7.7502,-7.7203,-7.716,-7.7101,-7.866,-7.8118,-7.79,-7.7607,-7.7341,-7.731,-7.7248,-7.7124,-7.6897,-7.6866,-7.6834,-7.6741,-7.6874,-7.7029,-7.6966,-7.7029,-7.7029,-7.6902,-7.6741,-7.6643,-7.6512,-7.6412,-7.6345,-7.6275,-7.6239,-7.613,-7.4899,-7.45,-7.425,-7.3635,-7.2943,-7.2907,-7.2907,-7.2907,-7.2907,-7.3052,-7.316,-7.3052,-7.3016,-7.2653,-7.1929,-7.1675,-7.1494,-7.1494,-7.1494,-7.1431,-7.1336,-7.1143,-7.0946,-7.0814,-7.0236,-7.0026,-7.0237,-7.0579,-7.0847,-7.068,-7.1319,-7.1725,-7.1737,-7.1741,-7.1748,-7.1408,-7.2116,-7.2647,-7.2828,-7.3164,-7.339,-7.3329,-7.3297,-7.3257,-7.3456,-7.3557,-7.3758,-7.4163,-7.4787,-7.5484,-7.6222,-7.6468,-7.6854,-7.748,-7.7755,-7.7805,-7.7431,-7.7099,-7.6507,-7.5947,-7.5373,-7.4919,-7.4639,-7.4456,-7.4605,-7.4754,-7.5,-7.5759,-7.6569,-7.7861,-7.8476,-7.8797,-7.9405,-7.9274,-7.8924,-7.905,-7.9121,-7.8722,-7.8573,-7.896,-7.9213,-7.928,-7.9194,-7.9041,-7.8492,-7.7877,-7.7545,-7.7343,-7.7364,-7.8404,-7.7879,-7.7813,-7.7577,-7.7341,-7.731,-7.7273,-7.7248,-7.7124,-7.7124,-7.715,-7.7092,-7.7029,-7.7124,-7.7217,-7.7248,-7.715,-7.6961,-7.6769,-7.6708,-7.6545,-7.6378,-7.6309,-7.6275,-7.6275,-7.6058,-7.5334,-7.4757,-7.4359,-7.378,-7.374,-7.3704,-7.3704,-7.3704,-7.3885,-7.4214,-7.4142,-7.3631,-7.3559,-7.316,-7.2327,-7.1893,-7.1712,-7.1712,-7.168,-7.1444,-7.1179,-7.1048,-7.0714,-7.0131,-6.9956,-6.9956,-7.0168,-7.0517,-7.0758,-7.0965,-7.1827,-7.2412,-7.2322,-7.2864,-7.3089,-7.3166,-7.3305,-7.3444,-7.3591,-7.3926,-7.4044,-7.3868,-7.3783,-7.3818,-7.3881,-7.392,-7.4268,-7.4712,-7.5204,-7.5765,-7.6784,-7.7275,-7.7486,-7.8076,-7.8012,-7.7719,-7.7278,-7.6828,-7.6275,-7.5899,-7.547,-7.4984,-7.4655,-7.4356,-7.4256,-7.4456,-7.4655,-7.5616,-7.6642,-7.8206,-7.9284,-7.942,-7.9809,-8.0115,-7.9899,-7.9987,-7.982,-7.928,-7.9061,-7.9247,-7.955,-7.9753,-7.9685,-7.9363,-7.8729,-7.8068,-7.7874,-7.7708,-7.7979,-7.8183,-7.782,-7.7607,-7.7426,-7.7304,-7.731,-7.731,-7.7279,-7.7186,-7.7186,-7.7248,-7.7186,-7.7155,-7.7217,-7.7279,-7.7279,-7.7155,-7.7024,-7.687,-7.6708,-7.6545,-7.6412,-7.6309,-7.6275,-7.6275,-7.6203,-7.5877,-7.5515,-7.5116,-7.4718,-7.4573,-7.4537,-7.4537,-7.4537,-7.4573,-7.483,-7.4612,-7.4069,-7.3885,-7.3342,-7.2327,-7.2038,-7.2291,-7.2549,-7.2135,-7.1791,-7.1519,-7.0688,-7.0271,-7.0062,-7.0274,-7.0451,-7.0771,-7.1337,-7.1822,-7.1711,-7.2578,-7.3212,-7.3017,-7.338,-7.3353,-7.3219,-7.3714,-7.4034,-7.4076,-7.4297,-7.4511,-7.4173,-7.4011,-7.401,-7.3975,-7.4326,-7.4712,-7.5133,-7.573,-7.6538,-7.724,-7.7731,-7.8153,-7.8455,-7.7902,-7.7456,-7.7154,-7.6691,-7.6088,-7.5709,-7.547,-7.5048,-7.4572,-7.4256,-7.3953,-7.4352,-7.4771,-7.6124,-7.7242,-7.8634,-7.9713,-7.9883,-8.0053,-8.0324,-8.041,-8.0276,-7.9972,-7.9618,-7.955,-7.9533,-7.9516,-7.9667,-7.9618,-7.96,-7.8884,-7.836,-7.8203,-7.8201,-7.8463,-7.7957,-7.7703,-7.7396,-7.731,-7.731,-7.731,-7.731,-7.731,-7.7186,-7.7217,-7.7243,-7.7217,-7.7217,-7.7279,-7.731,-7.7212,-7.7092,-7.7061,-7.6838,-7.661,-7.6548,-7.6445,-7.6309,-7.6275,-7.6275,-7.6275,-7.6239,-7.6275,-7.6022,-7.5623,-7.5406,-7.5334,-7.5334,-7.537,-7.537,-7.5442,-7.4826,-7.4178,-7.4066,-7.3342,-7.2509,-7.2617,-7.3168,-7.3682,-7.2875,-7.2384,-7.2006,-7.1232,-7.0736,-7.0735,-7.1018,-7.1409,-7.1766,-7.2864,-7.3315,-7.3055,-7.3649,-7.3769,-7.3778,-7.3859,-7.39,-7.3619,-7.4224,-7.4404,-7.4404,-7.458,-7.4675,-7.4206,-7.4221,-7.4291,-7.4431,-7.4923,-7.5379,-7.5836,-7.6678,-7.7521,-7.7767,-7.8076,-7.8238,-7.8194,-7.7588,-7.7278,-7.7099,-7.6427,-7.5852,-7.5662,-7.5422,-7.4852,-7.4456,-7.4003,-7.3881,-7.4375,-7.5161,-7.674,-7.7984,-7.9111,-7.9837,-8.0072,-8.0106,-8.0242,-8.0259,-8.0209,-7.9955,-7.9786,-7.9718,-7.9684,-7.958,-7.9614,-7.9786,-7.9718,-7.9019,-7.8803,-7.89,-7.8946,-7.9106,-7.7636,-7.7335,-7.7341,-7.731,-7.731,-7.731,-7.731,-7.731,-7.7243,-7.7273,-7.731,-7.7273,-7.731,-7.731,-7.7273,-7.7181,-7.7092,-7.6934,-7.6741,-7.6581,-7.6412,-7.6309,-7.6275,-7.6275,-7.6275,-7.6275,-7.6275,-7.6275,-7.6239,-7.613,-7.6094,-7.6058,-7.6022,-7.6094,-7.5985,-7.5985,-7.537,-7.4319,-7.454,-7.4431,-7.3744,-7.3704,-7.3685,-7.3524,-7.3247,-7.29,-7.2406,-7.1833,-7.1689,-7.1868,-7.201,-7.2513,-7.3113,-7.3931,-7.4528,-7.4663,-7.4733,-7.46,-7.4575,-7.4724,-7.4798,-7.4473,-7.4868,-7.4937,-7.4755,-7.4567,-7.4514,-7.4088,-7.4501,-7.4923,-7.5063,-7.5695,-7.6362,-7.6819,-7.724,-7.7872,-7.8223,-7.8258,-7.8455,-7.8066,-7.7544,-7.7278,-7.7099,-7.6334,-7.5676,-7.5532,-7.5291,-7.4803,-7.4256,-7.3902,-7.4243,-7.4804,-7.5422,-7.6886,-7.8335,-7.9533,-7.9939,-8.0209,-8.0209,-8.0209,-8.0209,-8.0209,-8.0074,-7.9887,-7.9904,-7.9904,-7.9904,-8.0006,-8.0158,-7.9937,-7.9457,-7.963,-7.9946,-7.9924,-7.9921,-7.7426,-7.731,-7.731,-7.731,-7.731,-7.731,-7.731,-7.731,-7.731,-7.731,-7.731,-7.731,-7.731,-7.7273,-7.7212,-7.7092,-7.6934,-7.6773,-7.6578,-7.6478,-7.6345,-7.6275,-7.6275,-7.6275,-7.6275,-7.6275,-7.6275,-7.6275,-7.6275,-7.6275,-7.6275,-7.6275,-7.6275,-7.6239,-7.6275,-7.6275,-7.5623,-7.4899,-7.4504,-7.4468,-7.4504,-7.4576,-7.4591,-7.4611,-7.4008,-7.3404,-7.2898,-7.2174,-7.2107,-7.2363,-7.2795,-7.3512,-7.4147,-7.4961,-7.5634,-7.5701,-7.56,-7.5466,-7.533,-7.5371,-7.5189,-7.5041,-7.5004,-7.4896,-7.4707,-7.4511,-7.4491,-7.4646,-7.4888,-7.5274,-7.58,-7.6468,-7.6959,-7.7415,-7.7767,-7.8083,-7.8434,-7.8504,-7.8448,-7.798,-7.75,-7.7144,-7.6828,-7.6194,-7.5709,-7.5628,-7.5484,-7.5146,-7.4506,-7.3851,-7.4526,-7.5502,-7.614,-7.6949,-7.8366,-7.9718,-8.0006,-8.0209,-8.0209,-8.0209,-8.0209,-8.0158,-8.0074,-8.0158,-8.0259,-8.0259,-8.0209,-8.0259,-8.0309,-8.0238,-8.0047,-8.0378,-8.0694,-8.1053,-8.1401,-7.731,-7.731,-7.731,-7.731,-7.731,-7.731,-7.731,-7.731,-7.731,-7.731,-7.731,-7.731,-7.731,-7.7279,-7.7186,-7.7029,-7.6801,-7.6643,-7.6478,-7.6378,-7.6275,-7.6275,-7.6275,-7.6275,-7.6275,-7.6311,-7.6275,-7.6275,-7.6275,-7.6275,-7.6275,-7.6275,-7.6275,-7.6275,-7.6275,-7.6275,-7.5913,-7.5478,-7.4718,-7.479,-7.5228,-7.5236,-7.5323,-7.5154,-7.469,-7.3968,-7.3489,-7.302,-7.2778,-7.322,-7.394,-7.4617,-7.5143,-7.5961,-7.6531,-7.664,-7.6612,-7.669,-7.6373,-7.6051,-7.5435,-7.5212,-7.5165,-7.5263,-7.4794,-7.4448,-7.4396,-7.4993,-7.5344,-7.5836,-7.6503,-7.724,-7.7661,-7.7942,-7.8188,-7.8434,-7.8532,-7.8448,-7.8151,-7.7676,-7.7144,-7.6736,-7.6368,-7.5994,-7.5757,-7.5676,-7.558,-7.547,-7.4953,-7.4337,-7.4944,-7.604,-7.6882,-7.7522,-7.8633,-7.9683,-8.0023,-8.0209,-8.0259,-8.0259,-8.0259,-8.0209,-8.0158,-8.0309,-8.051,-8.056,-8.056,-8.051,-8.0476,-8.0554,-8.0678,-8.1026,-8.1424,-8.1882,-8.265,-7.731,-7.731,-7.731,-7.731,-7.731,-7.731,-7.731,-7.731,-7.731,-7.731,-7.731,-7.731,-7.731,-7.7279,-7.7124,-7.6966,-7.6769,-7.6643,-7.6478,-7.6378,-7.6275,-7.6275,-7.6311,-7.6348,-7.6384,-7.642,-7.6601,-7.6601,-7.6348,-7.6565,-7.642,-7.6275,-7.6348,-7.6311,-7.6275,-7.6275,-7.6348,-7.6058,-7.5551,-7.5623,-7.6029,-7.6039,-7.5691,-7.5226,-7.4821,-7.437,-7.4022,-7.4008,-7.4315,-7.465,-7.5192,-7.5832,-7.6359,-7.7002,-7.7398,-7.7472,-7.7661,-7.7737,-7.7559,-7.6803,-7.6034,-7.5752,-7.5728,-7.5834,-7.5376,-7.5112,-7.5138,-7.5384,-7.5941,-7.6538,-7.7275,-7.7942,-7.8223,-7.8328,-7.8434,-7.8469,-7.8448,-7.8151,-7.785,-7.7323,-7.6873,-7.6541,-7.6182,-7.5852,-7.5757,-7.5676,-7.6048,-7.5971,-7.5818,-7.5389,-7.5734,-7.655,-7.7525,-7.8281,-7.9072,-7.9717,-8.0107,-8.0309,-8.0309,-8.0276,-8.0276,-8.0276,-8.041,-8.051,-8.0709,-8.0808,-8.0906,-8.0956,-8.1005,-8.1068,-8.1318,-8.1829,-8.2673,-8.3493,-8.4064,-7.731,-7.731,-7.731,-7.731,-7.731,-7.731,-7.731,-7.731,-7.731,-7.731,-7.731,-7.731,-7.7279,-7.7155,-7.6998,-7.6838,-7.6676,-7.6478,-7.6378,-7.6345,-7.6275,-7.6275,-7.6384,-7.6818,-7.7072,-7.7144,-7.7434,-7.776,-7.7796,-7.7289,-7.7072,-7.6927,-7.6637,-7.6348,-7.6275,-7.6384,-7.6601,-7.6927,-7.6818,-7.6963,-7.7545,-7.7586,-7.7019,-7.5904,-7.5757,-7.5021,-7.4276,-7.4402,-7.503,-7.5724,-7.6231,-7.6872,-7.7474,-7.8014,-7.8195,-7.8233,-7.8385,-7.8423,-7.8243,-7.7445,-7.674,-7.6508,-7.6525,-7.6552,-7.6195,-7.6199,-7.6318,-7.6554,-7.6713,-7.7205,-7.8012,-7.8363,-7.8504,-7.8574,-7.8574,-7.8574,-7.8448,-7.8109,-7.7719,-7.7278,-7.6782,-7.6356,-7.6041,-7.5676,-7.5676,-7.5709,-7.6149,-7.6459,-7.6387,-7.6441,-7.6776,-7.7142,-7.8033,-7.8807,-7.9548,-7.9938,-8.0259,-8.036,-8.0376,-8.0476,-8.0526,-8.0675,-8.0808,-8.0823,-8.0956,-8.1151,-8.1297,-8.1442,-8.149,-8.1442,-8.2036,-8.2801,-8.3762,-8.4828,-8.5218,-7.731,-7.731,-7.731,-7.731,-7.731,-7.731,-7.731,-7.731,-7.731,-7.7279,-7.7248,-7.7212,-7.7118,-7.6961,-7.6838,-7.6708,-7.6545,-7.6412,-7.6526,-7.6601,-7.671,-7.6782,-7.7144,-7.7507,-7.7869,-7.8014,-7.8303,-7.8629,-7.8521,-7.8086,-7.7905,-7.7688,-7.7289,-7.6963,-7.6348,-7.6601,-7.7036,-7.7688,-7.7905,-7.805,-7.8629,-7.8313,-7.7919,-7.665,-7.6389,-7.5864,-7.5274,-7.5398,-7.596,-7.662,-7.72,-7.7844,-7.8416,-7.8883,-7.9028,-7.9031,-7.8999,-7.8855,-7.8673,-7.8125,-7.7741,-7.7756,-7.7752,-7.7567,-7.728,-7.717,-7.7178,-7.7211,-7.738,-7.7731,-7.8469,-7.8574,-7.8574,-7.8574,-7.8574,-7.8574,-7.8448,-7.8194,-7.7719,-7.7278,-7.6782,-7.6343,-7.615,-7.5946,-7.6251,-7.6251,-7.642,-7.6961,-7.7288,-7.7444,-7.7765,-7.8102,-7.864,-7.9331,-7.9939,-8.0174,-8.0392,-8.051,-8.061,-8.0759,-8.0857,-8.1005,-8.1102,-8.1151,-8.1297,-8.149,-8.1585,-8.1633,-8.1681,-8.1728,-8.2498,-8.3367,-8.4385,-8.53,-8.5531,-7.731,-7.731,-7.731,-7.731,-7.731,-7.731,-7.731,-7.731,-7.7273,-7.7212,-7.7124,-7.7124,-7.6998,-7.6838,-7.6712,-7.6614,-7.6584,-7.6487,-7.671,-7.7181,-7.7434,-7.7905,-7.8267,-7.8557,-7.8702,-7.8666,-7.8992,-7.9136,-7.8919,-7.8774,-7.8702,-7.8593,-7.8303,-7.776,-7.6529,-7.7108,-7.7869,-7.8557,-7.8666,-7.8774,-7.8851,-7.8495,-7.8094,-7.7546,-7.713,-7.6674,-7.6278,-7.6633,-7.7153,-7.7588,-7.8207,-7.8742,-7.9029,-7.9643,-7.9861,-7.9826,-8.0262,-8.0478,-8.0513,-7.9347,-7.8969,-7.9056,-7.8946,-7.8721,-7.8085,-7.7818,-7.7777,-7.782,-7.7626,-7.7907,-7.8293,-7.8574,-7.8574,-7.8574,-7.8574,-7.8574,-7.8448,-7.8194,-7.7719,-7.7367,-7.6862,-7.6424,-7.6286,-7.6284,-7.6758,-7.6893,-7.6893,-7.7333,-7.8044,-7.84,-7.8639,-7.8605,-7.8942,-7.9076,-7.9598,-8.0189,-8.0508,-8.0591,-8.0808,-8.1005,-8.1102,-8.12,-8.1297,-8.1393,-8.149,-8.162,-8.1681,-8.1776,-8.2012,-8.2303,-8.305,-8.3925,-8.4948,-8.5646,-8.5797,-7.731,-7.731,-7.731,-7.731,-7.731,-7.731,-7.731,-7.731,-7.7217,-7.7155,-7.7092,-7.6998,-7.6838,-7.6676,-7.6647,-7.6548,-7.6521,-7.7067,-7.7398,-7.7543,-7.805,-7.8376,-7.881,-7.9281,-7.9499,-7.9643,-7.9897,-8.0187,-8.0368,-7.9788,-7.9535,-7.9462,-7.91,-7.8448,-7.8086,-7.8267,-7.8702,-7.9354,-7.9535,-7.9716,-8.0151,-7.9901,-7.9393,-7.8669,-7.8332,-7.785,-7.7266,-7.78,-7.8202,-7.8634,-7.9251,-7.9645,-8.0006,-8.0585,-8.055,-8.0443,-8.0583,-8.032,-8.032,-7.9808,-7.9808,-7.9792,-7.9708,-7.9562,-7.9195,-7.9037,-7.8761,-7.8442,-7.8165,-7.837,-7.8539,-7.8574,-7.8574,-7.8574,-7.8574,-7.8574,-7.8448,-7.8109,-7.7763,-7.75,-7.7054,-7.6824,-7.6625,-7.684,-7.728,-7.789,-7.7991,-7.8416,-7.9092,-7.9329,-7.955,-7.9076,-7.9009,-7.8955,-7.917,-7.9741,-8.0312,-8.0595,-8.0946,-8.1345,-8.1393,-8.1393,-8.149,-8.1585,-8.1668,-8.1715,-8.1763,-8.1918,-8.2407,-8.2916,-8.341,-8.4052,-8.4948,-8.5569,-8.5871,-7.731,-7.731,-7.731,-7.7243,-7.7212,-7.731,-7.7279,-7.7181,-7.7092,-7.6966,-7.6902,-7.6773,-7.6643,-7.6512,-7.6515,-7.6735,-7.6746,-7.7217,-7.8159,-7.8231,-7.881,-7.9318,-7.9716,-7.9969,-8.0295,-8.0476,-8.073,-8.1056,-8.0947,-8.0549,-8.0368,-8.0187,-7.9788,-7.968,-7.9499,-7.9356,-7.9393,-7.9936,-8.019,-8.0262,-8.0551,-8.055,-8.0295,-7.9787,-7.9385,-7.9057,-7.8661,-7.8704,-7.9142,-7.9684,-8.0118,-8.0513,-8.0947,-8.1056,-8.0985,-8.073,-8.0433,-8.013,-8.0054,-8.0092,-7.9982,-7.9899,-7.9974,-7.9935,-7.9822,-7.9515,-7.92,-7.8917,-7.8782,-7.8657,-7.8616,-7.8616,-7.8574,-7.8574,-7.8574,-7.8574,-7.8532,-7.8194,-7.8023,-7.7719,-7.7426,-7.7193,-7.721,-7.7493,-7.7803,-7.848,-7.9124,-7.9481,-7.9667,-7.96,-7.9464,-7.9041,-7.8751,-7.8628,-7.874,-7.9254,-7.9857,-8.0522,-8.0961,-8.1413,-8.1633,-8.1633,-8.1728,-8.1776,-8.1763,-8.1763,-8.1728,-8.2012,-8.2303,-8.2771,-8.3358,-8.4052,-8.4948,-8.5492,-8.5871,-7.731,-7.731,-7.731,-7.7248,-7.7155,-7.7217,-7.715,-7.7061,-7.6902,-7.6741,-7.6614,-7.6614,-7.6551,-7.6417,-7.6417,-7.6855,-7.7507,-7.7688,-7.8557,-7.9426,-7.9788,-8.0332,-8.0658,-8.0911,-8.0875,-8.0984,-8.1092,-8.1092,-8.1092,-8.0947,-8.0947,-8.0984,-8.0766,-8.0658,-8.0442,-8.0189,-8.0081,-8.0442,-8.055,-8.0549,-8.0693,-8.0508,-8.0399,-8.0144,-8.0033,-7.9922,-7.9779,-8.0038,-8.0257,-8.0549,-8.084,-8.0984,-8.1092,-8.1092,-8.0948,-8.073,-8.0396,-8.0092,-7.9938,-7.9977,-7.9938,-7.9899,-8.0054,-7.9899,-7.9779,-7.9625,-7.9351,-7.911,-7.887,-7.8741,-7.8657,-7.8616,-7.8574,-7.8574,-7.8574,-7.8574,-7.8574,-7.8448,-7.8279,-7.8049,-7.7727,-7.7605,-7.7853,-7.815,-7.8405,-7.8978,-7.9337,-7.8819,-7.8905,-7.8619,-7.8499,-7.8258,-7.8085,-7.8162,-7.8456,-7.8934,-7.9741,-8.0527,-8.0863,-8.1267,-8.1569,-8.1776,-8.1776,-8.1776,-8.1776,-8.1776,-8.1776,-8.1823,-8.1918,-8.2488,-8.3271,-8.384,-8.4666,-8.5453,-8.5909,-7.731,-7.731,-7.731,-7.7248,-7.7092,-7.687,-7.6838,-7.6834,-7.6708,-7.661,-7.6614,-7.6445,-7.6632,-7.7144,-7.7144,-7.7651,-7.8303,-7.8919,-7.939,-7.9969,-8.044,-8.0839,-8.102,-8.1092,-8.1092,-8.1056,-8.1056,-8.1021,-8.1056,-8.1056,-8.1056,-8.1092,-8.1092,-8.1092,-8.0948,-8.0659,-8.0695,-8.0694,-8.0693,-8.0656,-8.0656,-8.0582,-8.0619,-8.0656,-8.0657,-8.0583,-8.0657,-8.0767,-8.0876,-8.0948,-8.1021,-8.1092,-8.1092,-8.1056,-8.0948,-8.0582,-8.0245,-7.9938,-7.9899,-7.9899,-7.9899,-7.9899,-7.9977,-7.9938,-7.9783,-7.9625,-7.9467,-7.9231,-7.8993,-7.8864,-7.8699,-7.8616,-7.8616,-7.8574,-7.8574,-7.8574,-7.8574,-7.8532,-7.8441,-7.8431,-7.811,-7.83,-7.8568,-7.8716,-7.9021,-7.9542,-7.9493,-7.8759,-7.8209,-7.7957,-7.7803,-7.7595,-7.7536,-7.7727,-7.825,-7.8725,-7.9668,-8.0463,-8.0763,-8.1155,-8.1603,-8.1776,-8.1776,-8.1776,-8.1776,-8.1776,-8.1776,-8.1858,-8.1858,-8.2498,-8.3271,-8.3755,-8.442,-8.5258,-8.5871,-7.731,-7.731,-7.7212,-7.7124,-7.687,-7.661,-7.6545,-7.6574,-7.6512,-7.6478,-7.6445,-7.6378,-7.6746,-7.7362,-7.7507,-7.805,-7.9173,-7.9535,-8.0006,-8.0549,-8.0875,-8.0984,-8.1092,-8.1092,-8.1092,-8.1056,-8.0912,-8.0767,-8.0767,-8.0767,-8.0731,-8.1092,-8.1092,-8.1092,-8.1056,-8.0948,-8.084,-8.0803,-8.073,-8.0693,-8.0693,-8.0767,-8.0876,-8.0985,-8.1021,-8.1056,-8.1092,-8.1092,-8.1092,-8.1092,-8.1092,-8.1092,-8.1021,-8.0948,-8.0803,-8.0471,-8.013,-7.9938,-7.9899,-7.9899,-7.9899,-7.9899,-7.9899,-7.9899,-7.9861,-7.9743,-7.9586,-7.9427,-7.915,-7.8911,-7.8782,-7.8657,-7.8616,-7.8574,-7.8574,-7.8574,-7.8574,-7.8574,-7.8659,-7.8726,-7.8842,-7.9009,-7.9178,-7.9295,-7.9296,-7.9385,-7.8982,-7.8122,-7.7711,-7.7498,-7.7459,-7.7352,-7.7305,-7.7358,-7.7981,-7.8774,-7.9555,-8.02,-8.0315,-8.0776,-8.1431,-8.1776,-8.1776,-8.1776,-8.1776,-8.1845,-8.1914,-8.181,-8.1918,-8.2579,-8.3075,-8.3489,-8.4171,-8.5143,-8.5644,-7.731,-7.731,-7.7155,-7.6902,-7.6614,-7.6412,-7.6309,-7.6311,-7.6454,-7.6348,-7.6345,-7.6384,-7.6927,-7.7688,-7.7977,-7.881,-7.968,-8.0187,-8.0476,-8.1056,-8.1056,-8.1092,-8.1092,-8.1056,-8.1021,-8.0912,-8.0767,-8.0546,-8.0286,-8.0288,-8.0547,-8.1056,-8.1092,-8.1092,-8.1056,-8.1056,-8.0985,-8.0876,-8.0767,-8.0693,-8.0656,-8.0693,-8.0803,-8.0876,-8.0985,-8.1092,-8.1092,-8.1092,-8.1092,-8.1092,-8.1092,-8.1092,-8.0985,-8.0803,-8.0619,-8.0433,-8.013,-8.0015,-7.9977,-7.9977,-7.9938,-7.9938,-7.9938,-7.9938,-7.9938,-7.9861,-7.9704,-7.9507,-7.9271,-7.9069,-7.8864,-7.8699,-7.8616,-7.8574,-7.8574,-7.8574,-7.8574,-7.8785,-7.9192,-7.9336,-7.947,-7.9684,-7.9578,-7.9683,-7.9196,-7.913,-7.8588,-7.7733,-7.7292,-7.71,-7.6985,-7.706,-7.7298,-7.7486,-7.8348,-7.9062,-7.9579,-8.0017,-8.0224,-8.0707,-8.1569,-8.1776,-8.1776,-8.1879,-8.1948,-8.2017,-8.2052,-8.2086,-8.2134,-8.2336,-8.2742,-8.312,-8.3876,-8.4823,-8.5709,-7.731,-7.7243,-7.7029,-7.6773,-7.6545,-7.6378,-7.6311,-7.6348,-7.6963,-7.6891,-7.6492,-7.6963,-7.7651,-7.8376,-7.8919,-7.9752,-8.0513,-8.0658,-8.0911,-8.1056,-8.1092,-8.1092,-8.1056,-8.1021,-8.0912,-8.0693,-8.0508,-8.0285,-8.0135,-8.0173,-8.0399,-8.0985,-8.1056,-8.1092,-8.1092,-8.1092,-8.1021,-8.0948,-8.0912,-8.0803,-8.073,-8.0767,-8.084,-8.0948,-8.1093,-8.1056,-8.1056,-8.1092,-8.1092,-8.1092,-8.1092,-8.1092,-8.1056,-8.084,-8.0656,-8.0471,-8.0283,-8.0169,-8.013,-8.013,-8.013,-8.013,-8.013,-8.013,-8.0092,-7.9977,-7.9822,-7.9625,-7.9387,-7.915,-7.8947,-7.8782,-7.8574,-7.8574,-7.8574,-7.8574,-7.8574,-7.9094,-7.969,-7.994,-8.0124,-8.007,-7.9942,-7.9567,-7.9223,-7.8695,-7.813,-7.7507,-7.7106,-7.6815,-7.6591,-7.6768,-7.7379,-7.7819,-7.8772,-7.9383,-7.9867,-8.0431,-8.0776,-8.1259,-8.1741,-8.1948,-8.2086,-8.2086,-8.2155,-8.2293,-8.2431,-8.2604,-8.2652,-8.2389,-8.2429,-8.2716,-8.3314,-8.4171,-8.5419,-7.731,-7.7243,-7.6929,-7.6676,-7.6551,-7.6707,-7.6818,-7.6963,-7.7688,-7.7796,-7.7434,-7.7869,-7.8484,-7.9136,-7.9716,-8.0368,-8.102,-8.1092,-8.1056,-8.1092,-8.1092,-8.1092,-8.1021,-8.0912,-8.062,-8.036,-7.9672,-7.9436,-7.9672,-7.9789,-7.9982,-8.0657,-8.084,-8.1092,-8.1092,-8.1092,-8.1092,-8.1056,-8.1092,-8.0948,-8.0839,-8.0803,-8.084,-8.0948,-8.0948,-8.0985,-8.1056,-8.1092,-8.1092,-8.1092,-8.1092,-8.1092,-8.1021,-8.0876,-8.073,-8.0619,-8.0471,-8.032,-8.032,-8.032,-8.032,-8.032,-8.032,-8.032,-8.032,-8.0245,-8.0207,-8.0015,-7.955,-7.9276,-7.915,-7.8947,-7.8699,-7.8574,-7.8574,-7.8574,-7.882,-7.9241,-7.9694,-8.0098,-8.0051,-7.9658,-7.9339,-7.8544,-7.8177,-7.7789,-7.7296,-7.7212,-7.6846,-7.6842,-7.6564,-7.6551,-7.7298,-7.864,-7.9973,-8.0209,-8.0143,-8.0707,-8.1155,-8.1431,-8.1672,-8.2086,-8.2362,-8.2328,-8.2431,-8.2673,-8.2845,-8.2811,-8.25,-8.2134,-8.2197,-8.2396,-8.3005,-8.3619,-8.4777,-7.7243,-7.7181,-7.6929,-7.668,-7.6562,-7.7144,-7.7543,-7.776,-7.8484,-7.8847,-7.8847,-7.8955,-7.9426,-7.9716,-8.0078,-8.0549,-8.0911,-8.1056,-8.1092,-8.1092,-8.1092,-8.1092,-8.0912,-8.0657,-8.0211,-7.9558,-7.8794,-7.867,-7.8753,-7.9079,-7.9637,-8.0137,-8.0621,-8.1092,-8.1092,-8.1092,-8.1092,-8.1092,-8.1056,-8.0948,-8.084,-8.0767,-8.0767,-8.0767,-8.0803,-8.0876,-8.0985,-8.1056,-8.1056,-8.1092,-8.1092,-8.1092,-8.1056,-8.0948,-8.084,-8.073,-8.0619,-8.0545,-8.0545,-8.0545,-8.0545,-8.0545,-8.0545,-8.0545,-8.0545,-8.0545,-8.0508,-8.0322,-7.9867,-7.9475,-7.9316,-7.9074,-7.8864,-7.8679,-7.8679,-7.889,-7.9241,-7.9662,-8.0098,-8.0523,-8.0129,-7.9684,-7.8875,-7.804,-7.7473,-7.7056,-7.6816,-7.6678,-7.6709,-7.6965,-7.7026,-7.7142,-7.7625,-7.9105,-8.02,-8.0725,-8.0327,-8.0534,-8.0914,-8.1259,-8.1603,-8.1948,-8.2259,-8.25,-8.2638,-8.2845,-8.2776,-8.2638,-8.2293,-8.2017,-8.1987,-8.2199,-8.2544,-8.3253,-8.4202,-7.7118,-7.6897,-7.6834,-7.6971,-7.7251,-7.747,-7.7833,-7.8557,-7.9318,-7.968,-7.9825,-8.0332,-8.0513,-7.9969,-8.0621,-8.102,-8.102,-8.1092,-8.1092,-8.1092,-8.1092,-8.1092,-8.0767,-8.0173,-7.9597,-7.8876,-7.8202,-7.8116,-7.842,-7.8958,-7.9519,-8.0099,-8.0767,-8.1056,-8.1092,-8.1092,-8.1092,-8.1092,-8.1021,-8.0985,-8.073,-8.0656,-8.0656,-8.0693,-8.073,-8.0767,-8.0876,-8.1021,-8.1056,-8.1092,-8.1092,-8.1092,-8.1056,-8.1021,-8.0948,-8.0876,-8.0767,-8.0767,-8.073,-8.073,-8.073,-8.073,-8.073,-8.073,-8.073,-8.073,-8.0767,-8.0803,-8.036,-7.9864,-7.9629,-7.9276,-7.9028,-7.9051,-7.9066,-7.9733,-8.0259,-8.0805,-8.1366,-8.1335,-8.1053,-8.0327,-7.9556,-7.8736,-7.7972,-7.7588,-7.7439,-7.7345,-7.7182,-7.7312,-7.742,-7.7584,-7.785,-7.7447,-7.7716,-8.0059,-8.0362,-8.05,-8.0741,-8.1224,-8.1569,-8.1741,-8.2052,-8.2466,-8.2707,-8.288,-8.2742,-8.2569,-8.25,-8.2293,-8.1983,-8.1999,-8.2303,-8.2941,-8.396]},{"header":{"parameterUnit":"m.s-1","parameterCategory":1,"la1":31.0,"la2":29.5877,"lo1":-88.7671,"lo2":-86.6584,"dx":0.0162,"dy":0.0185,"nx":115,"ny":88,"refTime":"2023-01-16T06:00:00:Z","depth":0,"parameterNumber":3,"parameterNumberName":"V-component_of_WINDS"},"data":[0.0,0.0,0.0,0.0,0.0,0.0,0.0,0.0,0.0,0.0,0.0,0.0,0.0,0.0,0.0,0.0,0.0,0.0,0.0,0.0,0.0,0.0,0.0,0.0,0.0,0.0,0.0,0.0,0.0,0.0,0.0,0.0,0.0,0.0,0.0,0.0,0.0,0.0,0.0,0.0,0.0,0.0,0.0,0.0,0.0,0.0,0.0,0.0,0.0,0.0,0.0,0.0,0.0,0.0,0.0,0.0,0.0,0.0,0.0,0.0,0.0,0.0,0.0,0.0,0.0,0.0,0.0,0.0,0.0,0.0,0.0,0.0,0.0,0.0,0.0,0.0,0.0,0.0,0.0,0.0,0.0,0.0,0.0,0.0,0.0,0.0,0.0,0.0,0.0,0.0,0.0,0.0,0.0,0.0,0.0,0.0,0.0,0.0,0.0,0.0,0.0,0.0,0.0,0.0,0.0,0.0,0.0,0.0,0.0,0.0,0.0,0.0,0.0,0.0,0.0,0.0,0.0,0.0,0.0,0.0,0.0,0.0,0.0,0.0,0.0,0.0,0.0,0.0,0.0,0.0,0.0,0.0,0.0,0.0,0.0,0.0,0.0,0.0,0.0,0.0,0.0,0.0,0.0,0.0,0.0,0.0,0.0,0.0,0.0,0.0,0.0,0.0,0.0,0.0,0.0,0.0,0.0,0.0,0.0,0.0,0.0,0.0,0.0,0.0,0.0,0.0,0.0,0.0,0.0,0.0,0.0,0.0,0.0,0.0,0.0,0.0,0.0,0.0,0.0,0.0,0.0,0.0,0.0,0.0,0.0,0.0,0.0,0.0,0.0,0.0,0.0,0.0,0.0,0.0,0.0,0.0,0.0,0.0,0.0,0.0,0.0,0.0,0.0,0.0,0.0,0.0,0.0,0.0,0.0,0.0,0.0,0.0,0.0,0.0,0.0,0.0,0.0,0.0,0.0,0.0,0.0,0.0,0.0,0.0,0.0,0.0,0.0,0.0,0.0,0.0,0.0,0.0,0.0,0.0,0.0,0.0,0.0,0.0,0.0,0.0,0.0,0.0,0.0,0.0,0.0,0.0,0.0,0.0,0.0,0.0,0.0,0.0,0.0,0.0,0.0,0.0,0.0,0.0,0.0,0.0,0.0,0.0,0.0,0.0,0.0,0.0,0.0,0.0,0.0,0.0,0.0,0.0,0.0,0.0,0.0,0.0,0.0,0.0,0.0,0.0,0.0,0.0,0.0,0.0,0.0,0.0,0.0,0.0,0.0,0.0,0.0,0.0,0.0,0.0,0.0,0.0,0.0,0.0,0.0,0.0,0.0,0.0,0.0,0.0,0.0,0.0,0.0,0.0,0.0,0.0,0.0,0.0,0.0,0.0,0.0,0.0,0.0,0.0,0.0,0.0,0.0,0.0,0.0,0.0,0.0,0.0,0.0,0.0,0.0,0.0,0.0,0.0,0.0,0.0,0.0,0.0,0.0,0.0,0.0,0.0,0.0,0.0,0.0,0.0,0.0,0.0,0.0,0.0,0.0,0.0,0.0,0.0,0.0,0.0,0.0,0.0,0.0,0.0,0.0,0.0,0.0,0.0,0.0,0.0,0.0,0.0,0.0,0.0,0.0,0.0,0.0,0.0,0.0,0.0,0.0,0.0,0.0,0.0,0.0,0.0,0.0,0.0,0.0,0.0,0.0,0.0,0.0,0.0,0.0,0.0,0.0,0.0,0.0,0.0,0.0,0.0,0.0,0.0,0.0,0.0,0.0,0.0,0.0,0.0,0.0,0.0,0.0,0.0,0.0,0.0,0.0,0.0,0.0,0.0,0.0,0.0,0.0,0.0,0.0,0.0,0.0,0.0,0.0,0.0,0.0,0.0,0.0,0.0,0.0,0.0,0.0,0.0,0.0,0.0,0.0,0.0,0.0,0.0,0.0,0.0,0.0,0.0,0.0,0.0,0.0,0.0,0.0,0.0,0.0,0.0,0.0,0.0,0.0,0.0,0.0,0.0,0.0,0.0,0.0,0.0,0.0,0.0,0.0,0.0,0.0,0.0,0.0,0.0,0.0,0.0,0.0,0.0,0.0,0.0,0.0,0.0,0.0,0.0,0.0,0.0,0.0,0.0,0.0,0.0,0.0,0.0,0.0,0.0,0.0,0.0,0.0,0.0,0.0,0.0,0.0,0.0,0.0,0.0,0.0,0.0,0.0,0.0,0.0,0.0,0.0,0.0,0.0,0.0,0.0,0.0,0.0,0.0,0.0,0.0,0.0,0.0,0.0,0.0,0.0,0.0,0.0,0.0,0.0,0.0,0.0,0.0,0.0,0.0,0.0,0.0,0.0,0.0,0.0,0.0,0.0,0.0,0.0,0.0,0.0,0.0,0.0,0.0,0.0,0.0,0.0,0.0,0.0,0.0,0.0,0.0,0.0,0.0,0.0,0.0,0.0,0.0,0.0,0.0,0.0,0.0,0.0,0.0,0.0,0.0,0.0,0.0,0.0,0.0,0.0,0.0,0.0,0.0,0.0,0.0,0.0,0.0,0.0,0.0,0.0,0.0,0.0,0.0,0.0,0.0,0.0,0.0,0.0,0.0,0.0,0.0,0.0,0.0,0.0,0.0,0.0,0.0,0.0,0.0,0.0,0.0,0.0,0.0,0.0,0.0,0.0,0.0,0.0,0.0,0.0,0.0,0.0,0.0,0.0,0.0,0.0,0.0,0.0,0.0,0.0,0.0,0.0,0.0,0.0,0.0,0.0,0.0,0.0,0.0,0.0,0.0,0.0,0.0,0.0,0.0,0.0,0.0,0.0,0.0,0.0,0.0,0.0,0.0,0.0,0.0,0.0,0.0,0.0,0.0,0.0,0.0,0.0,0.0,0.0,0.0,0.0,0.0,0.0,0.0,0.0,0.0,0.0,0.0,0.0,0.0,0.0,0.0,0.0,0.0,0.0,0.0,0.0,0.0,0.0,0.0,0.0,0.0,0.0,0.0,0.0,0.0,0.0,0.0,0.0,0.0,0.0,0.0,0.0,0.0,0.0,0.0,0.0,0.0,0.0,0.0,0.0,0.0,0.0,0.0,0.0,0.0,0.0,0.0,0.0,0.0,0.0,0.0,0.0,0.0,0.0,0.0,0.0,0.0,0.0,0.0,0.0,0.0,0.0,0.0,0.0,0.0,0.0,0.0,0.0,0.0,0.0,0.0,0.0,0.0,0.0,0.0,0.0,0.0,0.0,0.0,0.0,0.0,0.0,0.0,0.0,0.0,0.0,0.0,0.0,0.0,0.0,0.0,0.0,0.0,0.0,0.0,0.0,0.0,0.0,0.0,0.0,0.0,0.0,0.0,0.0,0.0,0.0,0.0,0.0,0.0,0.0,0.0,0.0,0.0,0.0,0.0,0.0,0.0,0.0,0.0,0.0,0.0,0.0,0.0,0.0,0.0,0.0,0.0,0.0,0.0,0.0,0.0,0.0,0.0,0.0,0.0,0.0,0.0,0.0,0.0,0.0,0.0,0.0,0.0,0.0,0.0,0.0,0.0,0.0,0.0,0.0,0.0,0.0,0.0,0.0,0.0,0.0,0.0,0.0,0.0,0.0,0.0,0.0,0.0,0.0,0.0,0.0,0.0,0.0,0.0,0.0,0.0,0.0,0.0,0.0,0.0,0.0,0.0,0.0,0.0,0.0,0.0,0.0,0.0,0.0,0.0,0.0,0.0,0.0,0.0,0.0,0.0,0.0,0.0,0.0,0.0,0.0,0.0,0.0,0.0,0.0,0.0,0.0,0.0,0.0,0.0,0.0,0.0,0.0,0.0,0.0,0.0,0.0,0.0,0.0,0.0,0.0,0.0,0.0,0.0,0.0,0.0,0.0,0.0,0.0,0.0,0.0,0.0,0.0,0.0,0.0,0.0,0.0,0.0,0.0,0.0,0.0,0.0,0.0,0.0,0.0,0.0,0.0,0.0,0.0,0.0,0.0,0.0,0.0,0.0,0.0,0.0,0.0,0.0,0.0,0.0,0.0,0.0,0.0,0.0,0.0,0.0,0.0,0.0,0.0,0.0,0.0,0.0,0.0,0.0,0.0,0.0,0.0,0.0,0.0,0.0,0.0,0.0,0.0,0.0,0.0,0.0,0.0,0.0,0.0,0.0,0.0,0.0,0.0,0.0,0.0,0.0,0.0,0.0,0.0,0.0,0.0,0.0,0.0,0.0,0.0,0.0,0.0,0.0,0.0,0.0,0.0,0.0,0.0,0.0,0.0,0.0,-0.7575,0.0,0.0,0.0,0.0,0.0,0.0,0.0,0.0,0.0,0.0,0.0,0.0,0.0,0.0,0.0,0.0,0.0,0.0,0.0,0.0,0.0,0.0,0.0,0.0,0.0,0.0,0.0,0.0,0.0,0.0,0.0,0.0,0.0,0.0,0.0,0.0,0.0,0.0,0.0,0.0,0.0,0.0,0.0,0.0,0.0,0.0,0.0,0.0,0.0,0.0,0.0,0.0,0.0,0.0,0.0,0.0,0.0,0.0,0.0,0.0,0.0,0.0,0.0,0.0,0.0,0.0,0.0,0.0,0.0,0.0,0.0,0.0,0.0,0.0,0.0,0.0,0.0,0.0,0.0,0.0,0.0,0.0,0.0,0.0,0.0,0.0,0.0,0.0,0.0,0.0,0.0,0.0,0.0,0.0,0.0,0.0,0.0,0.0,0.0,0.0,0.0,0.0,0.0,0.0,0.0,0.0,0.0,0.0,0.0,0.0,-0.7764,-0.7504,-0.7984,-0.8016,-0.7551,0.0,0.0,0.0,0.0,0.0,0.0,0.0,0.0,0.0,0.0,0.0,0.0,0.0,0.0,0.0,0.0,0.0,0.0,0.0,0.0,0.0,0.0,0.0,0.0,0.0,0.0,0.0,0.0,0.0,0.0,0.0,0.0,0.0,0.0,0.0,0.0,0.0,0.0,0.0,0.0,0.0,0.0,0.0,0.0,0.0,0.0,0.0,0.0,0.0,0.0,0.0,0.0,0.0,0.0,0.0,0.0,0.0,0.0,0.0,0.0,0.0,0.0,0.0,0.0,0.0,0.0,0.0,0.0,0.0,0.0,0.0,0.0,0.0,0.0,0.0,0.0,0.0,0.0,0.0,0.0,0.0,0.0,0.0,0.0,0.0,0.0,0.0,0.0,0.0,0.0,0.0,0.0,0.0,0.0,0.0,0.0,0.0,0.0,0.0,0.0,0.0,0.0,0.0,0.0,0.0,0.0,0.0,0.0,0.0,0.0,0.0,0.0,-0.8146,-0.822,-0.7791,0.0,0.0,0.0,0.0,0.0,0.0,0.0,0.0,0.0,0.0,0.0,0.0,0.0,0.0,0.0,0.0,0.0,0.0,0.0,0.0,0.0,0.0,0.0,0.0,0.0,0.0,0.0,0.0,0.0,0.0,0.0,0.0,0.0,0.0,0.0,0.0,0.0,0.0,0.0,0.0,0.0,0.0,0.0,0.0,0.0,0.0,0.0,0.0,0.0,0.0,0.0,0.0,0.0,0.0,0.0,0.0,0.0,0.0,0.0,0.0,0.0,0.0,0.0,0.0,0.0,0.0,0.0,0.0,0.0,0.0,0.0,0.0,0.0,0.0,0.0,0.0,0.0,0.0,0.0,0.0,0.0,0.0,0.0,0.0,0.0,0.0,0.0,0.0,0.0,0.0,0.0,0.0,0.0,0.0,0.0,0.0,0.0,0.0,0.0,0.0,0.0,0.0,0.0,0.0,0.0,0.0,0.0,0.0,0.0,0.0,-0.7667,-0.7959,-0.8032,0.0,-0.8457,0.0,0.0,0.0,0.0,0.0,0.0,0.0,0.0,0.0,0.0,0.0,0.0,0.0,0.0,0.0,0.0,0.0,0.0,0.0,0.0,0.0,0.0,0.0,0.0,0.0,0.0,0.0,0.0,0.0,0.0,0.0,0.0,0.0,0.0,0.0,0.0,0.0,0.0,0.0,0.0,0.0,0.0,0.0,0.0,0.0,0.0,0.0,0.0,0.0,0.0,0.0,0.0,0.0,0.0,0.0,0.0,0.0,0.0,0.0,0.0,0.0,0.0,0.0,0.0,0.0,0.0,0.0,0.0,0.0,0.0,0.0,0.0,0.0,0.0,0.0,0.0,0.0,0.0,0.0,0.0,0.0,0.0,0.0,0.0,0.0,0.0,0.0,0.0,0.0,0.0,0.0,0.0,0.0,0.0,0.0,0.0,0.0,0.0,0.0,0.0,0.0,0.0,0.0,0.0,0.0,0.0,0.0,0.0,0.0,0.0,-0.7813,-0.817,-0.828,-0.8335,0.0,0.0,0.0,0.0,0.0,0.0,0.0,0.0,0.0,0.0,0.0,0.0,0.0,0.0,0.0,0.0,0.0,0.0,0.0,0.0,0.0,0.0,0.0,0.0,0.0,0.0,0.0,0.0,0.0,0.0,0.0,0.0,0.0,0.0,0.0,0.0,0.0,0.0,0.0,0.0,0.0,0.0,0.0,0.0,0.0,0.0,0.0,0.0,0.0,0.0,0.0,0.0,0.0,0.0,0.0,0.0,0.0,0.0,0.0,0.0,0.0,0.0,0.0,0.0,0.0,0.0,0.0,0.0,0.0,0.0,0.0,0.0,0.0,0.0,0.0,0.0,0.0,0.0,0.0,0.0,0.0,0.0,0.0,0.0,0.0,0.0,0.0,0.0,0.0,0.0,0.0,0.0,0.0,0.0,0.0,0.0,0.0,0.0,0.0,0.0,0.0,0.0,0.0,0.0,0.0,0.0,0.0,0.0,0.0,0.0,-0.7853,-0.8065,-0.8398,-0.8598,-0.8658,-0.8489,0.0,0.0,0.0,0.0,0.0,0.0,0.0,0.0,0.0,0.0,0.0,0.0,0.0,0.0,0.0,0.0,0.0,0.0,0.0,0.0,0.0,0.0,0.0,0.0,0.0,0.0,0.0,0.0,0.0,0.0,0.0,0.0,0.0,0.0,0.0,0.0,0.0,0.0,0.0,0.0,0.0,0.0,0.0,0.0,0.0,0.0,0.0,0.0,0.0,0.0,0.0,0.0,0.0,0.0,0.0,0.0,0.0,0.0,0.0,0.0,0.0,0.0,0.0,0.0,0.0,0.0,0.0,0.0,0.0,0.0,0.0,0.0,0.0,0.0,0.0,0.0,0.0,0.0,0.0,0.0,0.0,0.0,0.0,0.0,0.0,0.0,0.0,0.0,0.0,0.0,0.0,0.0,0.0,0.0,0.0,0.0,0.0,0.0,0.0,0.0,0.0,0.0,0.0,0.0,0.0,0.0,0.0,0.0,0.0,-0.817,-0.826,-0.8771,-0.9103,-0.9141,0.0,0.0,0.0,0.0,0.0,0.0,0.0,0.0,0.0,0.0,0.0,0.0,0.0,0.0,0.0,0.0,0.0,0.0,0.0,0.0,0.0,0.0,0.0,0.0,0.0,0.0,0.0,0.0,0.0,0.0,0.0,0.0,0.0,0.0,0.0,0.0,0.0,0.0,0.0,0.0,0.0,0.0,0.0,0.0,0.0,0.0,0.0,0.0,0.0,0.0,0.0,0.0,0.0,0.0,0.0,0.0,0.0,0.0,0.0,0.0,0.0,0.0,0.0,0.0,0.0,0.0,0.0,0.0,0.0,0.0,0.0,0.0,0.0,0.0,0.0,0.0,0.0,0.0,0.0,0.0,0.0,0.0,0.0,0.0,0.0,0.0,0.0,0.0,0.0,0.0,0.0,0.0,0.0,0.0,0.0,0.0,0.0,0.0,0.0,0.0,0.0,0.0,0.0,0.0,0.0,0.0,0.0,0.0,0.0,-0.7575,-0.7845,-0.8333,-0.8942,-0.8983,-0.8982,0.0,0.0,0.0,0.0,0.0,0.0,0.0,0.0,0.0,0.0,0.0,0.0,0.0,0.0,0.0,0.0,0.0,0.0,0.0,0.0,0.0,0.0,0.0,0.0,0.0,0.0,0.0,0.0,0.0,0.0,0.0,0.0,0.0,0.0,0.0,0.0,0.0,0.0,0.0,0.0,0.0,0.0,0.0,0.0,0.0,0.0,0.0,0.0,0.0,0.0,0.0,0.0,0.0,0.0,0.0,0.0,0.0,0.0,0.0,0.0,0.0,0.0,0.0,0.0,0.0,0.0,0.0,0.0,0.0,0.0,0.0,0.0,0.0,0.0,0.0,0.0,0.0,0.0,0.0,0.0,0.0,0.0,0.0,0.0,0.0,0.0,0.0,0.0,0.0,0.0,0.0,0.0,0.0,0.0,0.0,0.0,0.0,0.0,0.0,0.0,0.0,0.0,0.0,0.0,0.0,0.0,0.0,0.0,0.0,-0.7518,0.0,-0.8633,-0.8958,-0.8999,-0.8869,0.0,0.0,0.0,0.0,0.0,0.0,0.0,0.0,0.0,0.0,0.0,0.0,0.0,0.0,0.0,0.0,0.0,0.0,0.0,0.0,0.0,0.0,0.0,0.0,0.0,0.0,0.0,0.0,0.0,0.0,0.0,0.0,0.0,0.0,0.0,0.0,0.0,0.0,0.0,0.0,0.0,0.0,0.0,0.0,0.0,0.0,0.0,0.0,0.0,0.0,0.0,0.0,0.0,0.0,0.0,0.0,0.0,0.0,0.0,0.0,0.0,0.0,0.0,0.0,0.0,0.0,0.0,0.0,0.0,0.0,0.0,0.0,0.0,0.0,0.0,0.0,0.0,0.0,0.0,0.0,0.0,0.0,0.0,0.0,0.0,0.0,0.0,0.0,0.0,0.0,0.0,0.0,0.0,0.0,0.0,0.0,0.0,0.0,0.0,0.0,0.0,0.0,0.0,0.0,0.0,0.0,0.0,0.0,-0.7488,-0.8503,-0.9031,-0.9082,-0.8791,-0.9032,-0.8754,0.0,0.0,0.0,0.0,0.0,0.0,0.0,0.0,0.0,0.0,0.0,0.0,0.0,0.0,0.0,0.0,0.0,0.0,0.0,0.0,0.0,0.0,0.0,0.0,0.0,0.0,0.0,0.0,0.0,0.0,0.0,0.0,0.0,0.0,0.0,0.0,0.0,0.0,0.0,0.0,0.0,0.0,0.0,0.0,0.0,0.0,0.0,0.0,0.0,0.0,0.0,0.0,0.0,0.0,0.0,0.0,0.0,0.0,0.0,0.0,0.0,0.0,0.0,0.0,0.0,0.0,0.0,0.0,0.0,0.0,0.0,0.0,0.0,0.0,0.0,0.0,0.0,0.0,0.0,0.0,0.0,0.0,0.0,0.0,0.0,0.0,0.0,0.0,0.0,0.0,0.0,0.0,0.0,0.0,0.0,0.0,0.0,0.0,0.0,0.0,0.0,0.0,0.0,0.0,0.0,0.0,0.0,0.0,0.0,-0.7379,-0.7701,-0.7724,-0.7449,-0.7849,-0.7944,0.0,0.0,0.0,0.0,0.0,0.0,0.0,0.0,0.0,0.0,0.0,0.0,0.0,0.0,0.0,0.0,0.0,0.0,0.0,0.0,0.0,0.0,0.0,0.0,0.0,0.0,0.0,0.0,0.0,0.0,0.0,0.0,0.0,0.0,0.0,0.0,0.0,0.0,0.0,0.0,0.0,0.0,0.0,0.0,0.0,0.0,0.0,0.0,0.0,0.0,0.0,0.0,0.0,0.0,0.0,0.0,0.0,0.0,0.0,0.0,0.0,0.0,0.0,0.0,0.0,0.0,0.0,0.0,0.0,0.0,0.0,0.0,0.0,0.0,0.0,0.0,0.0,0.0,0.0,0.0,0.0,0.0,0.0,0.0,0.0,0.0,0.0,0.0,0.0,0.0,0.0,0.0,0.0,0.0,0.0,0.0,0.0,0.0,0.0,0.0,0.0,0.0,0.0,0.0,0.0,0.0,0.0,0.0,0.0,-0.7015,-0.7563,-0.7585,-0.6954,-0.7389,-0.764,-0.7597,0.0,0.0,0.0,0.0,0.0,0.0,0.0,0.0,0.0,0.0,0.0,0.0,0.0,0.0,0.0,0.0,0.0,0.0,0.0,0.0,0.0,0.0,0.0,0.0,0.0,0.0,0.0,0.0,0.0,0.0,0.0,0.0,0.0,0.0,0.0,0.0,0.0,0.0,0.0,0.0,0.0,0.0,0.0,0.0,0.0,0.0,0.0,0.0,0.0,0.0,0.0,0.0,0.0,0.0,0.0,0.0,0.0,0.0,0.0,0.0,0.0,0.0,0.0,0.0,0.0,0.0,0.0,0.0,0.0,0.0,0.0,0.0,0.0,0.0,0.0,0.0,0.0,0.0,0.0,0.0,0.0,0.0,0.0,0.0,0.0,0.0,0.0,0.0,0.0,0.0,0.0,0.0,0.0,0.0,0.0,0.0,0.0,0.0,0.0,0.0,0.0,0.0,0.0,0.0,0.0,0.0,0.0,0.0,-0.7376,-0.8435,-0.8347,-0.714,-0.7578,-0.7706,0.0,0.0,0.0,0.0,0.0,0.0,0.0,0.0,0.0,0.0,0.0,0.0,0.0,0.0,0.0,0.0,0.0,0.0,0.0,0.0,0.0,0.0,0.0,0.0,0.0,0.0,0.0,0.0,0.0,0.0,0.0,0.0,0.0,0.0,0.0,0.0,0.0,0.0,0.0,0.0,0.0,0.0,0.0,0.0,0.0,0.0,0.0,0.0,0.0,0.0,0.0,0.0,0.0,0.0,0.0,0.0,0.0,0.0,0.0,0.0,0.0,0.0,0.0,0.0,0.0,0.0,0.0,0.0,0.0,0.0,0.0,0.0,0.0,0.0,0.0,0.0,0.0,0.0,0.0,0.0,0.0,0.0,0.0,0.0,0.0,0.0,0.0,0.0,0.0,0.0,0.0,0.0,0.0,0.0,0.0,0.0,0.0,0.0,0.0,0.0,0.0,0.0,0.0,0.0,0.0,0.0,0.0,0.0,0.0,-0.8886,-0.8749,-0.7807,-0.6074,-0.6945,-0.7345,0.0,0.0,0.0,0.0,0.0,0.0,0.0,0.0,0.0,0.0,0.0,0.0,0.0,0.0,0.0,0.0,0.0,0.0,0.0,0.0,0.0,0.0,0.0,0.0,0.0,0.0,0.0,0.0,0.0,0.0,0.0,0.0,0.0,0.0,0.0,0.0,0.0,0.0,0.0,0.0,0.0,0.0,0.0,0.0,0.0,0.0,0.0,0.0,0.0,0.0,0.0,0.0,0.0,0.0,0.0,0.0,0.0,0.0,0.0,0.0,0.0,0.0,0.0,0.0,0.0,0.0,0.0,0.0,0.0,0.0,0.0,0.0,0.0,0.0,0.0,0.0,0.0,0.0,0.0,0.0,0.0,0.0,0.0,0.0,0.0,0.0,0.0,0.0,0.0,0.0,0.0,0.0,0.0,0.0,0.0,0.0,0.0,0.0,0.0,0.0,0.0,0.0,0.0,0.0,0.0,0.0,0.0,0.0,-0.9884,-0.9815,-0.9479,-0.8378,-0.6446,-0.723,-0.7464,0.0,0.0,0.0,0.0,0.0,0.0,0.0,0.0,0.0,0.0,0.0,0.0,0.0,0.0,0.0,0.0,0.0,0.0,0.0,0.0,0.0,0.0,0.0,0.0,0.0,0.0,0.0,0.0,0.0,0.0,0.0,0.0,0.0,0.0,0.0,0.0,0.0,0.0,0.0,0.0,0.0,0.0,0.0,0.0,0.0,0.0,0.0,0.0,0.0,0.0,0.0,0.0,0.0,0.0,0.0,0.0,0.0,0.0,0.0,0.0,0.0,0.0,0.0,0.0,0.0,0.0,0.0,0.0,0.0,0.0,0.0,0.0,0.0,0.0,0.0,0.0,0.0,0.0,0.0,0.0,0.0,0.0,0.0,0.0,0.0,0.0,0.0,0.0,0.0,0.0,0.0,0.0,0.0,0.0,0.0,0.0,0.0,0.0,0.0,0.0,0.0,0.0,0.0,0.0,0.0,0.0,0.0,0.0,-1.0672,-1.049,-1.039,-0.9536,-0.8024,-0.8113,-0.7899,0.0,0.0,0.0,0.0,0.0,0.0,0.0,0.0,0.0,0.0,0.0,0.0,0.0,0.0,0.0,0.0,0.0,0.0,0.0,0.0,0.0,0.0,0.0,0.0,0.0,0.0,0.0,0.0,0.0,0.0,0.0,0.0,0.0,0.0,0.0,0.0,0.0,0.0,0.0,0.0,0.0,0.0,0.0,0.0,0.0,0.0,0.0,0.0,0.0,0.0,0.0,0.0,0.0,0.0,0.0,0.0,0.0,0.0,0.0,0.0,0.0,0.0,0.0,0.0,0.0,0.0,0.0,0.0,0.0,0.0,0.0,0.0,0.0,0.0,0.0,0.0,0.0,0.0,0.0,0.0,0.0,0.0,0.0,0.0,0.0,0.0,0.0,0.0,0.0,0.0,0.0,0.0,0.0,0.0,0.0,0.0,0.0,0.0,0.0,0.0,0.0,0.0,0.0,0.0,0.0,0.0,0.0,0.0,-1.1141,-1.164,-1.0917,-1.0369,-0.997,-0.963,-0.8771,0.0,0.0,0.0,0.0,0.0,0.0,0.0,0.0,0.0,0.0,0.0,0.0,0.0,0.0,0.0,0.0,0.0,0.0,0.0,0.0,0.0,0.0,0.0,0.0,0.0,0.0,0.0,0.0,0.0,0.0,0.0,0.0,0.0,0.0,0.0,0.0,0.0,0.0,0.0,0.0,0.0,0.0,0.0,0.0,0.0,0.0,0.0,0.0,-1.2452,0.0,0.0,0.0,0.0,0.0,0.0,0.0,0.0,0.0,0.0,0.0,0.0,0.0,0.0,0.0,0.0,0.0,0.0,0.0,0.0,0.0,0.0,0.0,0.0,0.0,0.0,0.0,0.0,0.0,0.0,0.0,0.0,0.0,0.0,0.0,0.0,0.0,0.0,0.0,0.0,0.0,0.0,0.0,0.0,0.0,0.0,0.0,0.0,0.0,0.0,0.0,0.0,0.0,0.0,0.0,0.0,0.0,0.0,0.0,-1.1565,-1.2247,-1.1689,-1.115,-1.0698,-1.0762,-0.9983,0.0,0.0,0.0,0.0,0.0,0.0,0.0,0.0,0.0,0.0,0.0,0.0,0.0,0.0,0.0,0.0,0.0,0.0,0.0,0.0,0.0,0.0,0.0,0.0,0.0,0.0,0.0,0.0,0.0,0.0,0.0,0.0,0.0,0.0,0.0,0.0,0.0,0.0,0.0,0.0,0.0,0.0,0.0,0.0,0.0,0.0,0.0,0.0,0.0,0.0,0.0,0.0,0.0,0.0,0.0,0.0,0.0,0.0,0.0,0.0,0.0,0.0,0.0,0.0,0.0,0.0,0.0,0.0,0.0,0.0,0.0,0.0,0.0,0.0,0.0,0.0,0.0,0.0,0.0,0.0,0.0,0.0,0.0,0.0,0.0,0.0,0.0,0.0,0.0,0.0,0.0,0.0,0.0,0.0,0.0,0.0,0.0,0.0,0.0,0.0,0.0,0.0,0.0,0.0,0.0,0.0,0.0,-1.1307,-1.1841,-1.2588,-1.2418,-1.1956,-1.1124,-1.1697,-1.104,-0.9082,0.0,0.0,0.0,0.0,0.0,0.0,0.0,0.0,0.0,0.0,0.0,0.0,0.0,0.0,0.0,0.0,0.0,0.0,0.0,0.0,0.0,0.0,0.0,0.0,0.0,0.0,0.0,0.0,0.0,0.0,0.0,0.0,0.0,0.0,0.0,0.0,0.0,0.0,-1.2087,-1.3934,0.0,0.0,0.0,0.0,0.0,0.0,0.0,0.0,-1.3214,0.0,0.0,0.0,0.0,0.0,0.0,0.0,0.0,0.0,0.0,0.0,0.0,0.0,0.0,0.0,0.0,0.0,0.0,0.0,0.0,0.0,0.0,0.0,0.0,0.0,0.0,0.0,0.0,0.0,0.0,0.0,0.0,0.0,0.0,0.0,0.0,0.0,0.0,0.0,0.0,0.0,0.0,0.0,0.0,0.0,0.0,0.0,0.0,0.0,0.0,0.0,0.0,0.0,0.0,0.0,0.0,-1.1201,-1.1396,-1.1849,-1.2604,-1.2596,-1.2451,-1.2315,-1.2136,-1.139,-1.023,0.0,0.0,0.0,0.0,0.0,0.0,0.0,0.0,0.0,0.0,0.0,0.0,0.0,0.0,0.0,0.0,0.0,0.0,0.0,0.0,0.0,0.0,0.0,0.0,0.0,0.0,0.0,0.0,0.0,0.0,0.0,0.0,0.0,0.0,0.0,0.0,0.0,0.0,0.0,-1.5562,-1.6492,0.0,0.0,0.0,0.0,0.0,0.0,0.0,0.0,-1.4205,0.0,0.0,0.0,0.0,0.0,0.0,0.0,0.0,0.0,0.0,0.0,0.0,0.0,0.0,0.0,0.0,0.0,0.0,0.0,0.0,0.0,0.0,0.0,0.0,0.0,0.0,0.0,0.0,0.0,0.0,0.0,0.0,0.0,0.0,0.0,0.0,0.0,0.0,0.0,0.0,0.0,0.0,0.0,0.0,0.0,0.0,0.0,0.0,0.0,0.0,0.0,0.0,0.0,0.0,0.0,-1.1944,-1.2704,-1.2946,-1.2751,-1.2702,-1.2661,-1.2628,-1.2393,-1.1719,0.0,0.0,0.0,0.0,0.0,0.0,0.0,0.0,0.0,0.0,0.0,0.0,0.0,0.0,0.0,0.0,0.0,0.0,0.0,0.0,0.0,0.0,0.0,0.0,0.0,0.0,0.0,0.0,0.0,0.0,0.0,0.0,0.0,0.0,0.0,0.0,0.0,0.0,0.0,0.0,-1.6373,-1.6961,-1.7091,0.0,0.0,0.0,0.0,0.0,0.0,-1.535,-1.5021,0.0,0.0,0.0,0.0,0.0,0.0,0.0,0.0,0.0,0.0,0.0,0.0,0.0,0.0,0.0,0.0,0.0,0.0,0.0,0.0,0.0,0.0,0.0,0.0,0.0,0.0,0.0,0.0,0.0,0.0,0.0,0.0,0.0,0.0,0.0,0.0,0.0,0.0,0.0,0.0,0.0,0.0,0.0,0.0,0.0,0.0,0.0,0.0,0.0,0.0,0.0,0.0,0.0,0.0,0.0,-1.3052,-1.3983,-1.4116,-1.3326,-1.3021,-1.28,-1.2621,-1.258,-1.1906,0.0,0.0,0.0,0.0,0.0,0.0,0.0,0.0,0.0,0.0,0.0,0.0,0.0,0.0,0.0,0.0,0.0,0.0,0.0,0.0,0.0,0.0,0.0,0.0,0.0,0.0,0.0,0.0,0.0,0.0,0.0,0.0,0.0,0.0,0.0,0.0,0.0,0.0,0.0,0.0,0.0,-1.7372,-1.7838,-1.7194,0.0,0.0,0.0,0.0,-1.6769,-1.6522,0.0,0.0,0.0,0.0,0.0,0.0,0.0,0.0,0.0,0.0,0.0,0.0,0.0,0.0,0.0,0.0,0.0,0.0,0.0,0.0,0.0,0.0,0.0,0.0,0.0,0.0,0.0,0.0,0.0,0.0,0.0,0.0,0.0,0.0,0.0,0.0,0.0,0.0,0.0,0.0,0.0,0.0,0.0,0.0,0.0,0.0,0.0,0.0,0.0,0.0,0.0,0.0,0.0,0.0,0.0,0.0,-1.4896,-1.4417,-1.4411,-1.494,-1.3729,-1.2978,-1.2808,-1.2645,-1.2024,0.0,0.0,0.0,0.0,0.0,0.0,0.0,0.0,0.0,0.0,0.0,0.0,0.0,0.0,0.0,0.0,0.0,0.0,0.0,0.0,0.0,0.0,0.0,0.0,0.0,0.0,0.0,0.0,0.0,0.0,0.0,0.0,0.0,0.0,0.0,0.0,0.0,0.0,0.0,0.0,0.0,-1.816,-1.8233,-1.7896,-1.7721,0.0,0.0,-1.7765,-1.8408,-1.8885,0.0,0.0,0.0,0.0,0.0,0.0,0.0,0.0,0.0,0.0,0.0,0.0,0.0,0.0,0.0,0.0,0.0,0.0,0.0,0.0,0.0,0.0,0.0,0.0,0.0,0.0,0.0,0.0,0.0,0.0,0.0,0.0,0.0,0.0,0.0,0.0,0.0,0.0,0.0,0.0,0.0,0.0,0.0,0.0,0.0,0.0,0.0,0.0,0.0,0.0,0.0,0.0,0.0,0.0,0.0,-1.5907,-1.5928,-1.6688,-1.6592,-1.551,-1.4652,-1.3831,-1.2986,-1.2905,-1.2182,0.0,0.0,0.0,0.0,0.0,0.0,0.0,0.0,0.0,0.0,0.0,0.0,0.0,0.0,0.0,0.0,0.0,0.0,0.0,0.0,0.0,0.0,0.0,0.0,0.0,0.0,0.0,0.0,0.0,0.0,0.0,0.0,0.0,0.0,0.0,0.0,0.0,0.0,0.0,0.0,0.0,0.0,-1.9263,-1.8803,0.0,0.0,0.0,-1.9273,-2.0308,0.0,0.0,0.0,0.0,0.0,0.0,0.0,0.0,0.0,0.0,0.0,0.0,0.0,0.0,0.0,0.0,0.0,0.0,0.0,0.0,0.0,0.0,0.0,0.0,0.0,0.0,0.0,0.0,0.0,0.0,0.0,0.0,0.0,0.0,0.0,0.0,0.0,0.0,0.0,0.0,0.0,0.0,0.0,0.0,0.0,0.0,0.0,0.0,0.0,0.0,0.0,0.0,0.0,0.0,0.0,0.0,0.0,-1.7039,-1.8443,-1.8195,-1.6284,-1.5201,-1.4224,-1.3241,-1.3124,0.0,0.0,0.0,0.0,0.0,0.0,0.0,0.0,0.0,0.0,0.0,0.0,0.0,0.0,0.0,0.0,0.0,0.0,0.0,0.0,0.0,0.0,0.0,0.0,0.0,0.0,0.0,-1.0766,0.0,0.0,0.0,0.0,0.0,0.0,0.0,0.0,0.0,0.0,0.0,0.0,0.0,0.0,-1.9081,-2.0208,-1.9813,-1.9905,0.0,0.0,-2.1015,-2.2347,-2.2889,-2.2798,0.0,0.0,0.0,0.0,0.0,0.0,0.0,0.0,0.0,0.0,0.0,0.0,0.0,0.0,0.0,0.0,0.0,0.0,0.0,0.0,0.0,0.0,0.0,0.0,0.0,0.0,0.0,0.0,0.0,0.0,0.0,0.0,0.0,0.0,0.0,0.0,0.0,0.0,0.0,0.0,0.0,0.0,0.0,0.0,0.0,0.0,0.0,0.0,0.0,0.0,0.0,0.0,0.0,0.0,0.0,-1.8878,-1.8697,-1.8391,-1.7876,-1.5135,-1.3608,-1.3428,-1.3189,-1.2426,0.0,0.0,0.0,0.0,0.0,0.0,0.0,0.0,0.0,0.0,0.0,0.0,0.0,0.0,0.0,0.0,0.0,0.0,0.0,0.0,0.0,0.0,0.0,0.0,0.0,0.0,0.0,0.0,0.0,0.0,0.0,0.0,0.0,0.0,0.0,0.0,0.0,0.0,0.0,0.0,0.0,-1.8906,-2.0472,-2.0896,-2.1636,0.0,0.0,-2.3076,-2.4672,-2.5622,-2.5148,-2.2146,0.0,0.0,0.0,0.0,0.0,0.0,0.0,0.0,0.0,0.0,0.0,0.0,0.0,0.0,0.0,0.0,0.0,0.0,0.0,0.0,0.0,0.0,0.0,0.0,0.0,0.0,0.0,0.0,0.0,0.0,0.0,0.0,0.0,0.0,0.0,0.0,0.0,0.0,0.0,0.0,0.0,0.0,0.0,0.0,0.0,0.0,0.0,0.0,0.0,0.0,0.0,0.0,0.0,-1.8907,-1.9484,-2.0423,-2.0155,-1.8586,-1.6797,-1.5113,-1.3539,-1.3474,-1.2865,0.0,0.0,0.0,0.0,0.0,0.0,0.0,0.0,0.0,0.0,0.0,0.0,0.0,0.0,0.0,0.0,0.0,0.0,0.0,0.0,0.0,0.0,0.0,0.0,0.0,0.0,0.0,0.0,-1.4212,-1.4041,-1.3163,0.0,0.0,0.0,0.0,0.0,0.0,0.0,0.0,0.0,0.0,-2.0984,-2.1789,-2.2527,0.0,0.0,-2.5085,-2.5711,-2.7132,-2.7006,-2.6385,-2.5182,-2.4523,0.0,0.0,0.0,0.0,0.0,0.0,0.0,0.0,0.0,0.0,0.0,0.0,0.0,0.0,0.0,0.0,0.0,0.0,0.0,0.0,0.0,0.0,0.0,0.0,0.0,0.0,0.0,0.0,0.0,0.0,0.0,0.0,0.0,0.0,0.0,0.0,0.0,0.0,0.0,0.0,0.0,0.0,0.0,0.0,0.0,0.0,0.0,0.0,0.0,0.0,0.0,0.0,-1.9246,-1.9832,-2.1266,-2.1053,-1.8927,-1.783,-1.6164,-1.3796,-1.3941,-1.3519,0.0,0.0,0.0,0.0,0.0,0.0,0.0,0.0,0.0,0.0,0.0,0.0,0.0,0.0,0.0,0.0,0.0,0.0,0.0,0.0,0.0,0.0,0.0,0.0,0.0,0.0,0.0,0.0,-1.534,-1.4961,-1.396,0.0,0.0,0.0,0.0,0.0,0.0,0.0,0.0,0.0,0.0,-2.2467,-2.3501,-2.4132,-2.4996,-2.6356,-2.6734,-2.7246,-2.841,-2.8151,-2.7715,-2.7215,0.0,0.0,0.0,0.0,0.0,0.0,0.0,0.0,0.0,0.0,0.0,0.0,0.0,0.0,0.0,0.0,0.0,0.0,0.0,0.0,0.0,0.0,0.0,0.0,0.0,0.0,0.0,0.0,0.0,0.0,0.0,0.0,0.0,0.0,0.0,0.0,0.0,0.0,0.0,0.0,0.0,0.0,0.0,0.0,0.0,0.0,0.0,0.0,0.0,0.0,0.0,0.0,0.0,-1.958,-2.023,-2.0967,-2.0536,-1.8997,-1.783,-1.6221,-1.4102,-1.4771,-1.4444,-1.2685,0.0,0.0,0.0,0.0,0.0,0.0,0.0,0.0,0.0,0.0,0.0,0.0,0.0,0.0,0.0,0.0,0.0,0.0,0.0,0.0,0.0,0.0,0.0,0.0,0.0,0.0,-1.4106,-1.4065,-1.3916,0.0,0.0,0.0,0.0,0.0,0.0,0.0,0.0,0.0,0.0,-2.1262,-2.2827,-2.5628,-2.5533,-2.5909,-2.8175,-2.7607,-2.7246,-2.8175,-2.916,-2.9336,0.0,0.0,0.0,0.0,0.0,0.0,0.0,0.0,0.0,0.0,0.0,0.0,0.0,0.0,0.0,0.0,0.0,0.0,0.0,0.0,0.0,0.0,0.0,0.0,0.0,0.0,0.0,-1.6842,-1.6534,0.0,0.0,0.0,0.0,0.0,0.0,0.0,0.0,0.0,0.0,0.0,-1.621,-1.6593,0.0,0.0,0.0,0.0,0.0,0.0,0.0,0.0,0.0,0.0,0.0,0.0,-1.992,-2.0527,-2.1703,-2.1734,-2.0409,-1.9111,-1.771,-1.623,-1.6445,-1.5943,-1.4556,0.0,0.0,0.0,0.0,0.0,0.0,0.0,0.0,0.0,0.0,0.0,0.0,0.0,0.0,0.0,0.0,0.0,0.0,0.0,0.0,0.0,0.0,0.0,0.0,0.0,-1.4896,0.0,0.0,0.0,0.0,0.0,0.0,0.0,0.0,0.0,0.0,0.0,-1.9784,-2.1189,-2.2667,-2.4242,-2.5952,-2.676,-2.7733,0.0,0.0,0.0,0.0,0.0,0.0,0.0,0.0,0.0,0.0,0.0,0.0,0.0,0.0,-2.9838,-2.6078,-2.5316,-2.5254,-2.5399,0.0,0.0,0.0,0.0,0.0,0.0,0.0,0.0,0.0,0.0,0.0,0.0,0.0,0.0,0.0,0.0,-1.6803,0.0,0.0,0.0,0.0,0.0,0.0,0.0,0.0,-1.7519,-1.7368,-1.7066,-1.7356,-1.726,0.0,-1.6721,-1.6258,0.0,0.0,0.0,0.0,0.0,0.0,0.0,0.0,-2.0457,-2.154,-2.2428,-2.2366,-2.1252,-2.0167,-1.8843,-1.7348,-1.7278,-1.6775,-1.5709,-1.4609,-1.3995,0.0,0.0,0.0,0.0,0.0,0.0,0.0,0.0,0.0,0.0,0.0,0.0,0.0,0.0,0.0,0.0,0.0,0.0,0.0,0.0,0.0,0.0,0.0,-1.5921,0.0,0.0,0.0,0.0,0.0,0.0,0.0,0.0,0.0,-1.7779,-1.9755,-2.1584,-2.2564,-2.4084,-2.5591,-2.6869,0.0,0.0,0.0,0.0,0.0,0.0,0.0,-2.9872,-3.0898,-3.0218,-2.9667,-3.0255,-3.1794,-3.2843,-3.2339,0.0,0.0,-2.9435,-2.8587,-2.8524,-2.869,-2.9209,-2.9352,-2.8531,-2.9225,-2.9762,0.0,0.0,0.0,0.0,0.0,0.0,0.0,0.0,-1.7227,-1.7241,0.0,-1.6868,0.0,0.0,0.0,0.0,0.0,0.0,0.0,0.0,-1.864,-1.8342,-1.8412,-1.8342,-1.8422,-1.8422,-1.8233,-1.7783,-1.7215,-1.7683,0.0,0.0,0.0,0.0,0.0,0.0,-2.1233,-2.2985,-2.2976,-2.2366,-2.1321,-2.0931,-1.968,-1.757,-1.7419,-1.6967,-1.6056,-1.5544,-1.4706,-1.3478,-1.2513,0.0,0.0,0.0,0.0,0.0,0.0,0.0,0.0,0.0,0.0,0.0,0.0,0.0,0.0,0.0,0.0,0.0,0.0,0.0,0.0,-1.6974,0.0,0.0,0.0,0.0,0.0,0.0,0.0,0.0,0.0,0.0,-2.0373,-2.1467,-2.2828,-2.432,0.0,0.0,0.0,0.0,-2.9683,-3.1099,-3.0433,-2.9944,-3.0405,-3.118,-3.1932,-3.2435,0.0,0.0,-3.2519,-3.3998,-3.4817,-3.3161,-3.4258,-3.5128,-3.4155,-3.2851,-3.2173,-3.2566,-3.2318,-3.203,-3.1981,-3.2612,-3.3335,-1.4837,0.0,0.0,0.0,0.0,-1.7637,-1.8411,-1.8936,-1.937,-1.901,-1.8148,-1.8617,0.0,0.0,0.0,0.0,0.0,0.0,-1.8752,-1.9262,-1.8351,-1.811,-1.8433,-1.8433,-1.8633,-1.9181,-1.9125,-1.929,-1.9681,-2.0548,-1.9076,-1.539,0.0,0.0,0.0,0.0,-2.233,-2.3072,-2.3454,-2.327,-2.2435,-2.1829,-2.0943,-1.975,-1.9181,-1.8519,-1.7676,-1.694,-1.5712,-1.4142,-1.3761,0.0,0.0,0.0,0.0,0.0,0.0,0.0,0.0,0.0,0.0,0.0,0.0,0.0,0.0,0.0,0.0,0.0,0.0,0.0,-1.595,-1.7443,-1.7999,0.0,0.0,0.0,0.0,0.0,0.0,0.0,0.0,0.0,-2.2623,-2.3354,-2.3969,0.0,0.0,-2.605,-2.7768,-2.8509,-2.9587,-3.1523,0.0,0.0,0.0,-3.2527,-3.3063,-3.3493,-3.4445,-3.4923,-3.4552,-3.5025,-3.5252,-3.4653,-3.5066,-3.5191,-3.478,-3.4573,-3.4447,-3.455,-3.4346,-3.4003,-3.374,-3.4,-3.4055,-1.5134,-1.5721,-1.5753,-1.6148,-1.6787,-1.8028,-1.856,-1.8742,-1.9824,-1.9737,-1.8747,-1.9046,-1.8406,-1.7291,-1.8957,0.0,0.0,0.0,-2.0133,-2.0582,-1.9657,-1.9343,-1.9625,-1.9637,-1.9838,-2.0321,-2.0216,-2.0438,-2.105,-2.1735,-2.0451,-1.7421,0.0,0.0,-1.9843,-2.1772,-2.3237,-2.3992,-2.3979,-2.368,-2.3033,-2.1961,-2.1151,-2.0735,-2.0237,-1.9599,-1.8832,-1.7993,-1.6879,-1.5407,-1.4741,-1.4589,0.0,0.0,0.0,0.0,0.0,0.0,0.0,0.0,0.0,0.0,0.0,-1.3901,0.0,0.0,0.0,0.0,-1.6859,-1.7677,-1.8496,-1.9403,0.0,0.0,0.0,0.0,0.0,0.0,0.0,-2.1789,-2.2915,-2.3779,-2.4291,-2.4701,-2.4832,-2.451,-2.5323,-2.6439,-2.7933,0.0,-3.0539,-3.2419,-3.3369,-3.3785,-3.3501,-3.3721,-3.4092,-3.4606,-3.5127,-3.5662,-3.5914,-3.5976,-3.5893,-3.5788,-3.5767,-3.5641,-3.5263,-3.5389,-3.5372,-3.5066,-3.5002,-3.4873,-3.4558,-3.4635,-3.4565,-1.5528,-1.5518,-1.561,-1.6313,-1.729,-1.8494,-1.8538,-1.7849,-1.9103,-1.9613,-1.9311,-1.8519,-1.8882,-2.0147,-2.0244,0.0,0.0,-2.2112,-2.202,-2.2586,-2.181,-2.145,-2.145,-2.145,-2.1522,-2.1582,-2.141,-2.141,-2.1701,-2.1868,-2.151,-2.0757,-2.2084,-2.27,-2.262,-2.3049,-2.3977,-2.5491,-2.4642,-2.3873,-2.3287,-2.1634,-2.0735,-2.0804,-2.0804,-2.0457,-1.9738,-1.8971,-1.8165,-1.7251,-1.5668,-1.5052,-1.5606,0.0,0.0,0.0,0.0,0.0,0.0,0.0,0.0,0.0,0.0,0.0,0.0,0.0,0.0,0.0,-2.0603,0.0,-2.2462,-2.2067,0.0,0.0,0.0,-2.0077,-2.0559,-2.1847,-2.2857,-2.3252,0.0,0.0,0.0,0.0,-2.5461,-2.5169,-2.6262,-2.7469,-2.8589,-3.0105,-3.1801,-3.3358,-3.3993,-3.4429,-3.4553,-3.4568,-3.4753,-3.5381,-3.5686,-3.5885,-3.6485,-3.6699,-3.6591,-3.6292,-3.6269,-3.6119,-3.5731,-3.5606,-3.5425,-3.4579,-3.4822,-3.502,-3.4784,-3.4893,-3.5001,-1.5634,-1.5512,-1.566,-1.5783,-1.5812,-1.6869,-1.7218,-1.718,-1.8386,-1.8311,-1.7558,-1.8837,-1.9996,-2.0885,-1.9844,-2.058,-2.2621,-2.1827,-2.1889,-2.2515,-2.1798,-2.145,-2.145,-2.145,-2.181,-2.23,-2.2308,-2.2607,-2.3255,-2.3266,-2.3236,-2.3037,-2.3583,-2.3317,-2.2405,-2.3808,-2.4868,-2.552,-2.5557,-2.4791,-2.33,-2.1565,-2.0943,-2.1565,-2.1553,-2.1402,-2.1183,-2.0491,-1.9692,-1.893,-1.7323,-1.7467,-1.9705,-1.6294,0.0,0.0,0.0,0.0,0.0,0.0,0.0,0.0,0.0,-1.7106,-1.535,0.0,-1.816,0.0,-2.2564,-2.3252,-2.1701,-2.2067,0.0,0.0,-2.1628,-2.1672,-2.3662,-2.3588,-2.3779,-2.4832,-2.5227,-2.5535,-2.5857,-2.59,-2.5871,-2.5798,-2.6066,-2.677,-2.8232,-2.9267,-3.0771,-3.325,-3.4594,-3.5056,-3.4939,-3.4537,-3.4614,-3.5309,-3.558,-3.5731,-3.5945,-3.6204,-3.6418,-3.6289,-3.601,-3.5751,-3.5466,-3.5276,-3.5191,-3.4758,-3.4927,-3.5137,-3.5072,-3.4975,-3.4858,-1.5837,-1.5756,-1.5764,-1.5658,-1.5543,-1.6607,-1.6683,-1.6372,-1.8068,-1.8376,-1.7768,-1.9619,-2.0681,-2.1083,-2.0796,-2.1597,-2.3263,-2.2949,-2.3041,-2.3476,-2.3053,-2.2908,-2.2895,-2.2895,-2.3126,-2.3476,-2.3476,-2.3707,-2.4155,-2.4022,-2.4098,-2.4242,-2.432,-2.4095,-2.3766,-2.4685,-2.5252,-2.5545,-2.5495,-2.4946,-2.3788,-2.2384,-2.1663,-2.1628,-2.2047,-2.206,-2.1603,-2.1258,-2.0605,-1.9685,-1.8451,-1.8439,-1.9993,-1.8066,-1.7899,0.0,0.0,0.0,0.0,0.0,0.0,0.0,0.0,0.0,0.0,0.0,-1.9798,0.0,-2.3296,0.0,-2.2432,-2.3135,-2.3779,-2.3954,-2.3354,-2.3501,-2.4973,-2.4701,-2.473,-2.5447,-2.5666,-2.5871,-2.6193,-2.6237,-2.6437,-2.6855,-2.6941,-2.7372,-2.8643,-3.009,-3.1965,-3.4139,-3.5789,-3.6543,-3.6097,-3.5142,-3.4834,-3.5486,-3.6064,-3.6515,-3.6851,-3.7273,-3.7427,-3.7273,-3.6938,-3.6515,-3.6198,-3.613,-3.6062,-3.5995,-3.6245,-3.6442,-3.617,-3.5989,-3.5927,-1.6113,-1.6097,-1.5918,-1.5853,-1.5943,-1.6799,-1.6526,-1.5671,-1.7873,-1.875,-1.8868,-2.0362,-2.1009,-2.105,-2.2051,-2.3032,-2.4035,-2.4357,-2.4581,-2.469,-2.469,-2.475,-2.471,-2.471,-2.471,-2.4784,-2.4784,-2.471,-2.471,-2.4528,-2.4539,-2.4802,-2.4613,-2.4832,-2.5441,-2.554,-2.5569,-2.5711,-2.5102,-2.4666,-2.4358,-2.3365,-2.2418,-2.154,-2.2485,-2.2633,-2.1764,-2.188,-2.1491,-2.0361,-1.9564,-1.9176,-1.9358,-1.9965,-2.0178,0.0,-2.0515,0.0,0.0,0.0,0.0,0.0,0.0,0.0,0.0,-2.1496,-2.1452,-2.1072,-2.3486,-2.4701,-2.3866,-2.4554,-2.5066,-2.5119,-2.5163,-2.5178,-2.5125,-2.5403,-2.5608,-2.5652,-2.59,-2.6208,-2.6515,-2.6631,-2.7036,-2.7837,-2.8289,-2.8716,-2.9579,-3.1378,-3.3269,-3.5074,-3.6872,-3.7308,-3.6855,-3.583,-3.5168,-3.5901,-3.6675,-3.7496,-3.8027,-3.8665,-3.8934,-3.8436,-3.8067,-3.7727,-3.7395,-3.7285,-3.7344,-3.7285,-3.7927,-3.8326,-3.7561,-3.7488,-3.7738,-1.6479,-1.6462,-1.6276,-1.6292,-1.6414,-1.6477,-1.6155,-1.5592,-1.6766,-1.8116,-1.9473,-1.9812,-2.0216,-2.0697,-2.1535,-2.2336,-2.3035,-2.3922,-2.4605,-2.4997,-2.5385,-2.5323,-2.5092,-2.5433,-2.558,-2.558,-2.558,-2.5433,-2.5079,-2.5377,-2.535,-2.5144,-2.5368,-2.5506,-2.5425,0.0,0.0,0.0,-2.5243,-2.4344,-2.405,-2.3052,-2.2245,-2.1858,-2.3064,0.0,-2.3512,-2.3515,-2.3447,-2.3145,-2.1891,0.0,0.0,0.0,0.0,0.0,0.0,0.0,0.0,0.0,0.0,0.0,-2.1774,-2.1862,-2.2023,-2.316,-2.353,-2.2766,-2.3855,-2.4709,-2.4803,-2.4935,-2.5066,-2.5066,-2.5286,-2.5432,-2.5447,-2.5725,-2.6018,-2.6296,-2.6369,-2.653,-2.6822,-2.7186,-2.7563,-2.8145,-2.9174,-3.0099,-3.0628,-3.1265,-3.2299,-3.4144,-3.5635,-3.6062,-3.583,-3.5404,-3.51,-3.5386,-3.6437,-3.7324,-3.7594,-3.8718,-3.9251,-3.8567,-3.8407,-3.8212,-3.7492,-3.7578,-3.7871,-3.7812,-3.899,-3.9634,-3.8427,-3.8702,-3.9032,-1.7247,0.0,-1.6648,-1.691,0.0,-1.6817,-1.6952,-1.7673,-1.7018,-1.7665,-1.9378,-2.0201,-2.0733,-2.0989,-2.2109,-2.2775,-2.3109,-2.4355,-2.5132,-2.5607,-2.5821,-2.5889,-2.5963,-2.6187,-2.6164,-2.6038,-2.6192,-2.6033,-2.5534,-2.588,-2.6024,-2.6038,-2.6259,-2.6396,-2.6473,-2.6619,-2.6765,-2.6998,-2.5984,-2.5354,-2.5211,-2.4551,-2.3678,-2.2697,0.0,0.0,0.0,0.0,0.0,0.0,0.0,0.0,0.0,0.0,0.0,-2.3515,-2.2581,-2.195,-2.217,-2.2185,-2.2623,-2.3735,-2.4115,-2.4094,-2.3594,-2.4262,-2.4606,-2.428,-2.4678,-2.5106,-2.5466,-2.5535,-2.5535,-2.5535,-2.5666,-2.5769,-2.5798,-2.6061,-2.631,-2.6486,-2.6647,-2.6808,-2.6969,-2.7715,-2.8358,-2.8899,-3.013,-3.1243,-3.1996,-3.247,-3.3468,-3.5194,-3.565,-3.596,-3.6033,-3.5814,-3.5595,-3.576,-3.6729,-3.7571,-3.7663,-3.8958,-3.9758,-3.903,-3.9042,-3.9009,-3.8414,-3.8437,-3.874,-3.942,-4.0472,-4.1273,-4.0822,-4.0912,-4.0841,-1.8108,-1.8022,-1.7068,-1.7494,-1.8694,-1.74,-1.8081,-1.9975,0.0,0.0,0.0,-2.0982,-2.1573,-2.1588,-2.2885,-2.3557,-2.3732,-2.5049,-2.5792,-2.6058,-2.6211,-2.6475,-2.6799,-2.6875,-2.6824,-2.6584,-2.6838,-2.6683,-2.6129,-2.6401,-2.6663,-2.6944,-2.6975,-2.7198,-2.7539,-2.7247,-2.7071,-2.7056,-2.6632,-2.6383,-2.6325,-2.6076,-2.5175,-2.3521,-2.4244,-2.3928,-2.2405,-2.365,-2.3845,-2.2779,-2.3299,-2.3603,-2.3545,-2.353,-2.4013,-2.5037,-2.5207,-2.5237,-2.5295,-2.5295,-2.5344,-2.5593,-2.5857,-2.5761,-2.5137,-2.497,-2.5015,-2.5356,-2.537,-2.544,-2.5877,-2.5947,-2.6018,-2.6018,-2.6076,-2.6105,-2.612,-2.6383,-2.6603,-2.6617,-2.6881,-2.7144,-2.7393,-2.8233,-2.9225,-3.008,-3.1089,-3.2207,-3.3197,-3.3787,-3.4543,-3.5609,-3.572,-3.5941,-3.6275,-3.6238,-3.6163,-3.6292,-3.7241,-3.7952,-3.831,-3.9368,-3.9978,-3.9275,-3.9581,-3.9581,-3.9316,-3.9221,-3.9829,-4.1038,-4.1956,-4.2719,-4.3521,-4.331,-4.2795,-1.8427,-1.8331,-1.7223,-1.7672,-1.9104,-1.8328,-1.87,-1.9952,-2.0034,-2.0625,-2.1588,-2.1541,-2.19,-2.2487,-2.33,-2.4044,-2.4632,-2.578,-2.6211,0.0,-2.6744,-2.6899,-2.6724,-2.7406,-2.7694,-2.7665,-2.7708,-2.7528,-2.7201,-2.7285,-2.73,-2.7366,-2.7389,-2.7538,-2.7757,-2.7569,-2.7408,-2.7393,-2.6544,-2.5944,-2.5597,-2.5622,-2.506,-2.4006,-2.5123,-2.5396,-2.4554,-2.5268,-2.5659,-2.5484,-2.5539,-2.5476,-2.5213,-2.5169,-2.5271,-2.5447,-2.5461,-2.5579,-2.5857,-2.5886,-2.59,-2.5944,-2.5988,-2.5918,-2.5819,-2.5242,-2.5045,-2.537,-2.5187,-2.5088,-2.544,-2.5821,-2.6061,-2.6061,-2.6281,-2.6442,-2.6457,-2.6735,-2.7012,-2.7027,-2.7203,-2.7777,-2.844,-2.9159,-3.0118,-3.1129,-3.2035,-3.2817,-3.3498,-3.3827,-3.4012,-3.4197,-3.4499,-3.4799,-3.5396,-3.5548,-3.6103,-3.662,-3.7408,-3.8066,-3.8349,-3.949,-4.0025,-3.9336,-3.9586,-3.9644,-3.9318,-3.9567,-4.0451,-4.1915,-4.2932,-4.3739,-4.4866,-4.5224,-4.4656,-1.9728,-1.9108,-1.8157,-1.8862,-2.0752,-2.1429,-2.1277,-2.0752,-2.1508,-2.1536,-2.1306,-2.1618,-2.2113,-2.2659,-2.3428,-2.4234,-2.5005,-2.5925,-2.6477,-2.6605,-2.737,-2.7762,-2.7898,-2.8602,-2.8812,-2.8491,-2.8637,-2.8384,-2.7766,-2.7903,-2.799,-2.7969,-2.799,-2.8081,-2.8107,-2.7891,-2.773,-2.7715,-2.6954,-2.6471,-2.6325,-2.6325,-2.5897,-2.5031,-2.5442,-2.5128,-2.3896,-2.4889,-2.5229,-2.4805,-2.5525,-2.5944,-2.5798,-2.5798,-2.5798,-2.5798,-2.5798,-2.5857,-2.6003,-2.6179,-2.6281,-2.6281,-2.6442,-2.6544,-2.6544,-2.587,-2.5555,-2.5855,-2.5812,-2.5884,-2.6243,-2.6401,-2.6544,-2.6544,-2.6837,-2.7027,-2.7144,-2.7526,-2.794,-2.8177,-2.852,-2.8998,-2.9575,-3.0468,-3.1215,-3.1861,-3.2802,-3.3712,-3.4034,-3.4316,-3.4368,-3.4273,-3.5199,-3.5798,-3.578,-3.6634,-3.718,-3.7212,-3.7644,-3.8059,-3.8359,-3.9315,-3.9622,-3.9139,-3.9427,-3.9756,-3.9585,-3.989,-4.1074,-4.2961,-4.3963,-4.4886,-4.6057,-4.6082,-4.485,-2.0868,-2.0163,-1.9466,-2.0327,-2.2223,-2.3795,-2.3365,-2.1735,-2.2427,-2.2182,-2.1495,-2.2051,-2.2687,-2.3237,-2.3953,-2.4801,-2.5615,-2.6268,-2.6759,-2.7091,-2.7856,-2.8368,-2.8811,-2.9508,-2.9603,-2.9164,-2.9295,-2.8988,-2.8359,-2.8388,-2.8447,-2.8447,-2.8505,-2.8549,-2.8534,-2.8227,-2.799,-2.7947,-2.7495,-2.7174,-2.71,-2.7027,-2.6619,-2.5859,-2.5562,-2.4929,-2.3739,-2.4497,-2.4788,-2.4501,-2.5513,-2.6135,-2.612,-2.612,-2.612,-2.612,-2.612,-2.6164,-2.6237,-2.6471,-2.6617,-2.6617,-2.6852,-2.6998,-2.6969,-2.6532,-2.6272,-2.6357,-2.6357,-2.6546,-2.6837,-2.7086,-2.713,-2.7203,-2.7422,-2.7628,-2.7762,-2.8327,-2.8912,-2.9287,-2.9738,-3.0233,-3.0804,-3.157,-3.2283,-3.2768,-3.3712,-3.4487,-3.4556,-3.5081,-3.5401,-3.5477,-3.6344,-3.7031,-3.6718,-3.7623,-3.8119,-3.7598,-3.7778,-3.8112,-3.8411,-3.9138,-3.9538,-3.9099,-3.9472,-3.9967,-4.0145,-4.0413,-4.1676,-4.3865,-4.4753,-4.5445,-4.6939,-4.6089,-4.4889,-2.1215,-2.1215,-2.1022,-2.1618,-2.2654,-2.3279,-2.3193,-2.2589,-2.2686,-2.3049,-2.3208,-2.3557,-2.4027,-2.4795,-2.545,-2.6156,-2.6998,-2.7175,-2.7243,-2.7324,-2.8177,-2.861,-2.8691,-2.9543,-2.9837,-2.9734,-2.9515,-2.9325,-2.9149,-2.8681,-2.8447,-2.8476,-2.871,-2.8827,-2.8812,-2.8549,-2.8311,-2.8311,-2.7961,-2.7715,-2.7437,-2.7144,-2.6619,-2.58,-2.5772,-2.5684,-2.5437,-2.5377,-2.571,-2.6547,-2.6459,-2.6457,-2.6457,-2.6457,-2.6457,-2.6457,-2.6457,-2.6588,-2.6852,-2.6925,-2.6939,-2.6939,-2.6969,-2.7013,-2.7027,-2.7232,-2.704,-2.6646,-2.6414,-2.663,-2.686,-2.7274,-2.7539,-2.7669,-2.7786,-2.8056,-2.8432,-2.8897,-2.9287,-2.9676,-3.0498,-3.1109,-3.1851,-3.2449,-3.3069,-3.4103,-3.4762,-3.5305,-3.5478,-3.6383,-3.724,-3.7114,-3.7185,-3.7294,-3.7792,-3.8042,-3.8284,-3.808,-3.7998,-3.8346,-3.8921,-3.9197,-3.9344,-3.9608,-3.9711,-4.008,-4.0683,-4.1157,-4.2059,-4.4555,-4.5424,-4.5628,-4.6871,-4.6216,-4.5117,-2.1822,-2.1389,-2.1888,-2.2309,-2.274,-2.3537,-2.3287,-2.2492,-2.2622,-2.2803,-2.3032,-2.4163,-2.4987,-2.5612,-2.5899,-2.6436,-2.7268,-2.735,-2.735,-2.7445,-2.8426,-2.8919,-2.9015,-2.9939,-3.0334,-3.0211,-2.9822,-2.9639,-2.9325,-2.8915,-2.871,-2.8725,-2.8842,-2.8886,-2.8886,-2.8769,-2.8695,-2.8695,-2.8403,-2.8081,-2.7759,-2.7437,-2.7041,-2.656,-2.6546,-2.6253,-2.5932,-2.6111,-2.6329,-2.6298,-2.6634,-2.6793,-2.6793,-2.6793,-2.6793,-2.6793,-2.6793,-2.6852,-2.6983,-2.6998,-2.6998,-2.6998,-2.7174,-2.7276,-2.7291,-2.7569,-2.7611,-2.736,-2.7256,-2.7314,-2.7505,-2.7669,-2.7817,-2.7874,-2.8049,-2.847,-2.9215,-2.9762,-3.0494,-3.1345,-3.1896,-3.2548,-3.3297,-3.3787,-3.4522,-3.5579,-3.6206,-3.6592,-3.739,-3.8342,-3.9112,-3.9717,-3.9797,-3.9353,-3.9043,-3.943,-3.9386,-3.8901,-3.8731,-3.8988,-3.9392,-3.9593,-3.9667,-3.9932,-3.9968,-4.0295,-4.0914,-4.1523,-4.2384,-4.4823,-4.6987,-4.7591,-4.8239,-4.696,-4.5986,-2.1908,-2.1475,-2.233,-2.2837,-2.3095,-2.3537,-2.319,-2.2546,-2.2869,-2.3093,-2.3387,-2.4985,-2.6133,-2.6543,-2.6587,-2.7,-2.7509,-2.7509,-2.7591,-2.7769,-2.8731,-2.9325,-2.9519,-3.0368,-3.07,-3.0451,-3.0056,-2.9647,-2.9266,-2.9017,-2.8886,-2.8886,-2.8886,-2.8886,-2.8886,-2.8886,-2.8886,-2.8871,-2.8666,-2.8297,-2.7903,-2.773,-2.7334,-2.6735,-2.6692,-2.6399,-2.5873,-2.6314,-2.6459,-2.6166,-2.6605,-2.6896,-2.6983,-2.6998,-2.6998,-2.6998,-2.6998,-2.6998,-2.6998,-2.7071,-2.713,-2.7144,-2.7422,-2.7613,-2.7656,-2.7891,-2.799,-2.8005,-2.8078,-2.8107,-2.8005,-2.8005,-2.8034,-2.8198,-2.8432,-2.8857,-2.9578,-3.0392,-3.127,-3.2299,-3.2959,-3.3805,-3.4505,-3.5158,-3.6025,-3.6743,-3.7595,-3.8319,-3.9351,-3.9968,-4.0685,-4.1559,-4.2024,-4.1659,-4.0349,-4.0468,-4.0619,-3.9887,-3.9373,-3.9502,-3.9987,-4.0079,-4.0207,-4.0409,-4.0363,-4.0692,-4.148,-4.208,-4.2876,-4.5289,-4.7257,-4.8525,-4.8381,-4.717,-4.6345,-2.1302,-2.1475,-2.233,-2.3193,-2.3978,-2.3117,-2.2762,-2.2794,-2.3623,-2.4469,-2.5191,-2.6261,-2.7194,-2.7985,-2.7959,-2.8083,-2.8167,-2.814,-2.8308,-2.8644,-2.9174,-2.9718,-3.015,-3.0582,-3.0817,-3.0715,-3.0188,-2.9573,-2.8988,-2.89,-2.8886,-2.8886,-2.8886,-2.8886,-2.8886,-2.8886,-2.8886,-2.8886,-2.8856,-2.8564,-2.7976,-2.7859,-2.7239,-2.6178,-2.5873,-2.5946,-2.5845,-2.5592,-2.5868,-2.6896,-2.6648,-2.6691,-2.6954,-2.6998,-2.6998,-2.6998,-2.6998,-2.6998,-2.7042,-2.7276,-2.7437,-2.7495,-2.7744,-2.7859,-2.7874,-2.8227,-2.8403,-2.8417,-2.8637,-2.8681,-2.8461,-2.8403,-2.852,-2.8739,-2.8827,-2.909,-2.9493,-3.0608,-3.1456,-3.2227,-3.3429,-3.4384,-3.4994,-3.6358,-3.7084,-3.7722,-3.878,-3.9886,-4.0315,-4.1035,-4.1695,-4.2202,-4.2985,-4.3559,-4.1994,-4.158,-4.1139,-4.0316,-3.985,-3.996,-4.0235,-4.0473,-4.0657,-4.0971,-4.112,-4.1574,-4.2205,-4.3054,-4.4005,-4.5717,-4.7246,-4.8172,-4.8012,-4.7031,-4.6144,-2.1108,-2.2233,-2.2589,-2.3204,-2.3978,-2.3117,-2.2933,-2.341,-2.3909,-2.4473,-2.5301,-2.6368,-2.6953,-2.7292,-2.7968,-2.8234,-2.8234,-2.8234,-2.8403,-2.8824,-2.9314,-2.9747,-3.0165,-3.0582,-3.0817,-3.0759,-3.0378,-2.9917,-2.9237,-2.8988,-2.8886,-2.8886,-2.8886,-2.8886,-2.8886,-2.8886,-2.8886,-2.8886,-2.8886,-2.8681,-2.8209,-2.7976,-2.758,-2.6951,-2.6646,-2.6546,-2.6531,-2.643,-2.6576,-2.6983,-2.6881,-2.6866,-2.6969,-2.6998,-2.6998,-2.6998,-2.6998,-2.7086,-2.7276,-2.7408,-2.7569,-2.7788,-2.8005,-2.818,-2.8238,-2.8534,-2.8725,-2.8754,-2.8798,-2.8812,-2.8769,-2.8725,-2.8769,-2.8856,-2.8886,-2.9119,-2.9787,-3.0483,-3.1324,-3.2647,-3.4071,-3.5172,-3.5546,-3.6729,-3.8049,-3.8952,-4.0141,-4.1366,-4.2479,-4.318,-4.3416,-4.378,-4.4218,-4.4208,-4.2839,-4.2264,-4.1763,-4.0871,-4.029,-4.0455,-4.0675,-4.0785,-4.1016,-4.0998,-4.1444,-4.1946,-4.2447,-4.3589,-4.4678,-4.5657,-4.7213,-4.7613,-4.7512,-4.6467,-4.5657,-2.0888,-2.2242,-2.2621,-2.3075,-2.366,-2.3323,-2.3362,-2.3909,-2.4667,-2.524,-2.5808,-2.6791,-2.722,-2.7376,-2.8052,-2.8403,-2.8403,-2.8389,-2.8642,-2.9076,-2.9495,-2.9998,-3.0415,-3.0665,-3.0773,-3.0627,-3.0349,-2.991,-2.9412,-2.9149,-2.9003,-2.8886,-2.8886,-2.8886,-2.8886,-2.8886,-2.8886,-2.8886,-2.8886,-2.8739,-2.8447,-2.8227,-2.7964,-2.7656,-2.7408,-2.7188,-2.7013,-2.6998,-2.6998,-2.6998,-2.6998,-2.6998,-2.6998,-2.6998,-2.6998,-2.6998,-2.71,-2.7232,-2.7466,-2.7671,-2.7891,-2.8095,-2.8403,-2.8578,-2.8593,-2.8769,-2.8871,-2.8886,-2.8886,-2.8886,-2.8886,-2.8886,-2.8886,-2.8886,-2.8886,-2.9178,-2.9814,-3.0338,-3.1512,-3.3198,-3.4604,-3.5418,-3.5846,-3.7091,-3.839,-3.9707,-4.1036,-4.2537,-4.3906,-4.4463,-4.4608,-4.494,-4.5026,-4.4478,-4.3435,-4.2871,-4.214,-4.1211,-4.0685,-4.0804,-4.0914,-4.1108,-4.1145,-4.1229,-4.1546,-4.2132,-4.2946,-4.4103,-4.5005,-4.5739,-4.6306,-4.679,-4.6387,-4.582,-4.5087,-2.054,-2.1653,-2.2349,-2.2902,-2.3315,-2.3735,-2.4064,-2.4543,-2.5933,-2.6601,-2.6901,-2.7799,-2.8136,-2.8234,-2.8655,-2.8824,-2.8824,-2.8908,-2.9076,-2.9481,-2.9914,-3.0332,-3.0734,-3.0788,-3.0642,-3.0475,-3.0056,-2.9734,-2.9427,-2.9354,-2.9193,-2.8944,-2.8886,-2.8886,-2.8886,-2.8886,-2.8886,-2.8886,-2.8886,-2.8739,-2.8399,-2.8341,-2.8165,-2.7903,-2.783,-2.7613,-2.7071,-2.7056,-2.7071,-2.7027,-2.7027,-2.6998,-2.6998,-2.6998,-2.6998,-2.7042,-2.7276,-2.7452,-2.7554,-2.8037,-2.8344,-2.8461,-2.871,-2.8842,-2.8842,-2.8871,-2.8886,-2.8886,-2.8886,-2.8886,-2.8886,-2.8886,-2.8886,-2.89,-2.8915,-2.914,-2.9503,-3.0175,-3.1526,-3.3705,-3.4912,-3.5606,-3.6184,-3.741,-3.8682,-3.9899,-4.1445,-4.3014,-4.4272,-4.4795,-4.496,-4.5147,-4.5178,-4.4764,-4.3995,-4.3215,-4.2378,-4.1612,-4.1221,-4.1024,-4.1005,-4.106,-4.106,-4.1229,-4.1816,-4.2383,-4.3112,-4.4186,-4.4596,-4.525,-4.5657,-4.5901,-4.5576,-4.5169,-4.4596,-2.02,-2.0891,-2.2176,-2.3162,-2.3872,-2.408,-2.4749,-2.5933,-2.6613,-2.7135,-2.7799,-2.8318,-2.8655,-2.874,-2.9062,-2.923,-2.9314,-2.9579,-2.983,-2.9998,-3.0179,-3.043,-3.0705,-3.0598,-3.0534,-3.0431,-3.0328,-3.0108,-2.972,-2.9486,-2.9208,-2.8944,-2.8886,-2.8886,-2.8886,-2.8886,-2.8886,-2.8886,-2.8886,-2.8827,-2.8725,-2.8549,-2.8388,-2.8209,-2.799,-2.7771,-2.7671,-2.7656,-2.7539,-2.7349,-2.732,-2.7232,-2.7042,-2.6998,-2.6998,-2.7027,-2.7305,-2.7583,-2.7817,-2.8183,-2.8549,-2.871,-2.8842,-2.8886,-2.8886,-2.8886,-2.8886,-2.8886,-2.8886,-2.8886,-2.8886,-2.8886,-2.89,-2.89,-2.909,-2.933,-2.968,-3.106,-3.2536,-3.358,-3.5006,-3.5897,-3.6448,-3.7747,-3.9286,-4.0322,-4.2171,-4.3861,-4.4927,-4.5312,-4.5623,-4.5871,-4.5493,-4.4845,-4.3906,-4.3041,-4.2224,-4.1565,-4.1229,-4.106,-4.106,-4.1145,-4.1145,-4.1481,-4.2068,-4.2652,-4.3463,-4.3939,-4.435,-4.4596,-4.476,-4.4924,-4.4924,-4.4596,-4.4123,-2.0025,-2.0548,-2.2436,-2.3682,-2.4482,-2.4843,-2.569,-2.6796,-2.7207,-2.7714,-2.8403,-2.8655,-2.8908,-2.9146,-2.9565,-2.9747,-2.983,-3.0248,-3.0415,-3.0415,-3.0415,-3.0582,-3.0788,-3.0495,-3.0431,-3.0401,-3.0299,-3.0152,-2.9851,-2.9529,-2.9208,-2.8944,-2.8886,-2.8886,-2.8886,-2.8886,-2.8886,-2.8886,-2.8886,-2.8886,-2.8856,-2.871,-2.8608,-2.8578,-2.8403,-2.8238,-2.83,-2.8224,-2.8095,-2.7715,-2.7554,-2.732,-2.7027,-2.6998,-2.6998,-2.7071,-2.7393,-2.7744,-2.7888,-2.8359,-2.8666,-2.8856,-2.8886,-2.8886,-2.8886,-2.8886,-2.8886,-2.8886,-2.8886,-2.8886,-2.8886,-2.8886,-2.893,-2.9061,-2.9251,-2.9645,-3.0346,-3.1972,-3.3337,-3.4132,-3.5254,-3.5987,-3.6719,-3.74,-3.9308,-4.0504,-4.2208,-4.417,-4.5162,-4.583,-4.6018,-4.5941,-4.5434,-4.4618,-4.3609,-4.2799,-4.2132,-4.1565,-4.1145,-4.106,-4.106,-4.1145,-4.1145,-4.1816,-4.2402,-4.2902,-4.3628,-4.3691,-4.3939,-4.4021,-4.4123,-4.4041,-4.4123,-4.4123,-4.3793,-2.0112,-2.0715,-2.3043,-2.4201,-2.4731,-2.6056,-2.6783,-2.7122,-2.7812,-2.8403,-2.8824,-2.8992,-2.916,-2.9579,-2.9998,-3.0248,-3.0263,-3.0582,-3.0734,-3.0734,-3.0734,-3.0803,-3.07,-3.0525,-3.0422,-3.032,-3.0167,-2.9925,-2.9851,-2.9529,-2.9208,-2.893,-2.8886,-2.8886,-2.8886,-2.8886,-2.8886,-2.8886,-2.8886,-2.8886,-2.8886,-2.8871,-2.8871,-2.8856,-2.8827,-2.8812,-2.8798,-2.8783,-2.8549,-2.7961,-2.7671,-2.7349,-2.71,-2.7027,-2.7056,-2.71,-2.7627,-2.7844,-2.8034,-2.852,-2.8856,-2.8886,-2.8886,-2.8886,-2.8886,-2.8886,-2.8886,-2.8886,-2.8886,-2.8886,-2.8886,-2.8886,-2.9125,-2.9498,-2.9659,-3.0245,-3.1498,-3.2749,-3.3756,-3.4653,-3.5581,-3.6251,-3.6594,-3.6972,-3.8536,-4.0472,-4.1886,-4.3496,-4.5046,-4.5977,-4.6042,-4.5698,-4.5107,-4.4268,-4.3214,-4.2383,-4.1733,-4.1481,-4.1145,-4.1163,-4.1145,-4.1229,-4.1397,-4.2068,-4.269,-4.317,-4.3546,-4.3628,-4.3711,-4.3774,-4.3711,-4.3463,-4.338,-4.3463,-4.3297,-2.0462,-2.1419,-2.3303,-2.4632,-2.5512,-2.6398,-2.7389,-2.8234,-2.8487,-2.8894,-2.9314,-2.9663,-2.983,-3.0081,-3.0415,-3.0665,-3.0665,-3.0734,-3.0817,-3.0817,-3.0817,-3.0671,-3.0568,-3.0642,-3.0568,-3.0364,-3.0217,-3.0181,-2.9932,-2.9515,-2.9193,-2.89,-2.8886,-2.8886,-2.8886,-2.8886,-2.8886,-2.8886,-2.8886,-2.8886,-2.8886,-2.8886,-2.8886,-2.8886,-2.8886,-2.8886,-2.8886,-2.8886,-2.8725,-2.8315,-2.7759,-2.7452,-2.7438,-2.7349,-2.7349,-2.7511,-2.792,-2.8224,-2.8297,-2.8666,-2.8871,-2.8886,-2.8886,-2.8886,-2.8886,-2.8886,-2.8886,-2.8886,-2.8886,-2.8886,-2.8886,-2.8993,-2.9464,-3.051,-3.0716,-3.0935,-3.1802,-3.2987,-3.413,-3.4686,-3.5803,-3.6498,-3.7084,-3.7965,-3.914,-4.1128,-4.2581,-4.3753,-4.5392,-4.5859,-4.5881,-4.5291,-4.4616,-4.3793,-4.2882,-4.1965,-4.1397,-4.1229,-4.1163,-4.1163,-4.1229,-4.1378,-4.1714,-4.2318,-4.2933,-4.3452,-4.3623,-4.373,-4.3711,-4.3808,-4.3463,-4.3234,-4.3068,-4.2985,-4.2818,-2.0743,-2.2249,-2.3937,-2.5261,-2.624,-2.7029,-2.7883,-2.8655,-2.8824,-2.916,-2.9747,-3.0095,-3.0179,-3.0263,-3.0582,-3.0665,-3.0582,-3.0734,-3.0817,-3.0817,-3.0817,-3.0656,-3.0495,-3.0671,-3.0656,-3.0446,-3.0217,-3.0123,-2.9888,-2.9398,-2.9076,-2.893,-2.8886,-2.8886,-2.8886,-2.8886,-2.89,-2.8886,-2.8886,-2.8886,-2.8886,-2.8886,-2.8886,-2.8886,-2.8886,-2.8886,-2.8886,-2.8886,-2.8754,-2.8432,-2.8081,-2.7907,-2.791,-2.776,-2.7746,-2.7925,-2.823,-2.8432,-2.8491,-2.871,-2.8871,-2.8886,-2.8886,-2.8886,-2.8886,-2.8886,-2.8886,-2.8886,-2.8886,-2.8886,-2.9022,-2.9434,-3.0469,-3.1675,-3.2143,-3.2422,-3.2788,-3.3916,-3.4818,-3.5526,-3.6288,-3.7005,-3.7465,-3.8565,-4.0088,-4.1688,-4.3137,-4.4377,-4.5616,-4.5596,-4.5454,-4.4964,-4.437,-4.3628,-4.2965,-4.2132,-4.1686,-4.1452,-4.1505,-4.1468,-4.1611,-4.1826,-4.2264,-4.274,-4.3299,-4.371,-4.3896,-4.4062,-4.4043,-4.396,-4.3471,-4.3087,-4.2838,-4.2485,-4.2318,-2.1108,-2.2998,-2.4726,-2.5921,-2.6796,-2.7812,-2.8403,-2.874,-2.8908,-2.9328,-2.9914,-3.0179,-3.0179,-3.0179,-3.0415,-3.0499,-3.0263,-3.0415,-3.0567,-3.0651,-3.0719,-3.0685,-3.051,-3.07,-3.0642,-3.0431,-3.0093,-2.9851,-2.9647,-2.9178,-2.893,-2.8886,-2.8886,-2.8886,-2.8915,-2.893,-2.8959,-2.8973,-2.9003,-2.9003,-2.8973,-2.8944,-2.8886,-2.8886,-2.8886,-2.8886,-2.8886,-2.8886,-2.8769,-2.8659,-2.8523,-2.8623,-2.8626,-2.8295,-2.8295,-2.8581,-2.862,-2.852,-2.8534,-2.8754,-2.8886,-2.8886,-2.8886,-2.8886,-2.89,-2.8944,-2.9081,-2.9316,-2.913,-2.939,-2.9777,-3.0737,-3.1869,-3.2953,-3.371,-3.4425,-3.4882,-3.5196,-3.5741,-3.6501,-3.7007,-3.7398,-3.8093,-3.9073,-4.0417,-4.2099,-4.3288,-4.4169,-4.5087,-4.527,-4.5046,-4.4616,-4.4041,-4.3546,-4.2965,-4.2383,-4.204,-4.1798,-4.1933,-4.2026,-4.2227,-4.2425,-4.2846,-4.3304,-4.3742,-4.4143,-4.4622,-4.4668,-4.4512,-4.411,-4.3581,-4.3074,-4.2523,-4.2151,-4.19,-2.2071,-2.388,-2.4982,-2.5921,-2.6868,-2.7799,-2.8403,-2.8824,-2.9146,-2.9495,-2.9747,-2.9998,-3.0179,-3.0179,-2.9998,-2.9914,-3.0081,-2.9998,-2.99,-3.0346,-3.0665,-3.0803,-3.0715,-3.0803,-3.0642,-3.0431,-3.0027,-2.9749,-2.9471,-2.9193,-2.89,-2.89,-2.8944,-2.89,-2.893,-2.9134,-2.9266,-2.9266,-2.9251,-2.9237,-2.9149,-2.8988,-2.8886,-2.8886,-2.8886,-2.8886,-2.8886,-2.8886,-2.9168,-2.9529,-2.9563,-2.9549,-2.9564,-2.9382,-2.9306,-2.929,-2.8979,-2.8783,-2.8798,-2.892,-2.8886,-2.8964,-2.8993,-2.8886,-2.8915,-2.9228,-2.9646,-3.0115,-3.0517,-3.0926,-3.1557,-3.2794,-3.3563,-3.416,-3.4925,-3.5747,-3.6031,-3.6003,-3.6223,-3.6828,-3.7486,-3.8028,-3.907,-3.9494,-4.083,-4.2447,-4.3361,-4.3876,-4.4452,-4.5025,-4.4862,-4.4616,-4.4205,-4.373,-4.3407,-4.2964,-4.2696,-4.2471,-4.2571,-4.2702,-4.2904,-4.314,-4.3602,-4.3864,-4.4,-4.4603,-4.5366,-4.5058,-4.4863,-4.4337,-4.3729,-4.3098,-4.2507,-4.2013,-4.1565,-2.3009,-2.4738,-2.5677,-2.6613,-2.7461,-2.7981,-2.8403,-2.8824,-2.9314,-2.9495,-2.9579,-2.9998,-2.9928,-2.9579,-2.9495,-2.9579,-2.9579,-2.9565,-2.9747,-3.0179,-3.0415,-3.0582,-3.0817,-3.0817,-3.0715,-3.051,-3.0071,-2.9837,-2.972,-2.9369,-2.9134,-2.912,-2.912,-2.9134,-2.912,-2.931,-2.9354,-2.9354,-2.9369,-2.9325,-2.9134,-2.8988,-2.8886,-2.8886,-2.8886,-2.8886,-2.8886,-2.9275,-2.9664,-3.016,-3.0653,-3.0941,-3.0635,-3.0253,-3.0023,-3.0069,-2.9311,-2.9042,-2.9134,-2.9212,-2.929,-2.9461,-2.9409,-2.9419,-2.9587,-2.9888,-3.037,-3.0907,-3.1507,-3.2221,-3.3209,-3.3754,-3.4432,-3.5181,-3.5791,-3.6491,-3.6717,-3.6654,-3.6775,-3.7402,-3.8234,-3.8831,-3.9533,-4.0264,-4.1276,-4.2882,-4.3958,-4.4534,-4.4924,-4.5352,-4.5107,-4.476,-4.4452,-4.4057,-4.3812,-4.3606,-4.3348,-4.3282,-4.3413,-4.3566,-4.3738,-4.3985,-4.4337,-4.4582,-4.4948,-4.5576,-4.6121,-4.5667,-4.5273,-4.4927,-4.4315,-4.3403,-4.2574,-4.2003,-4.1536,-2.3955,-2.5665,-2.6443,-2.7292,-2.815,-2.8234,-2.8403,-2.874,-2.923,-2.9314,-2.9398,-2.9747,-2.9509,-2.8992,-2.916,-2.8992,-2.8992,-2.9328,-2.9747,-2.9998,-3.0332,-3.0582,-3.0749,-3.0817,-3.0803,-3.0759,-3.0261,-3.01,-3.0093,-2.9844,-2.9471,-2.9456,-2.9456,-2.9456,-2.9456,-2.9515,-2.9559,-2.9515,-2.95,-2.9354,-2.9061,-2.8959,-2.8886,-2.8886,-2.8886,-2.9042,-2.9275,-2.9741,-3.0206,-3.0516,-3.1824,-3.2283,-3.1916,-3.1055,-3.0438,-3.0824,-2.9724,-2.9252,-2.9531,-2.9625,-2.9811,-3.0219,-3.0148,-3.0091,-3.0166,-3.068,-3.1247,-3.1884,-3.2538,-3.3578,-3.4448,-3.4692,-3.5181,-3.5872,-3.6375,-3.6816,-3.7176,-3.7296,-3.7484,-3.7894,-3.8661,-3.943,-4.0415,-4.121,-4.2299,-4.3297,-4.4288,-4.5127,-4.5515,-4.5739,-4.5495,-4.525,-4.4842,-4.4403,-4.4096,-4.4276,-4.4061,-4.4129,-4.4242,-4.4396,-4.454,-4.4952,-4.5222,-4.568,-4.6168,-4.6511,-4.6544,-4.6119,-4.5723,-4.5519,-4.4748,-4.3613,-4.2763,-4.1994,-4.146,-2.4909,-2.6626,-2.6698,-2.7376,-2.815,-2.8234,-2.8221,-2.8403,-2.874,-2.874,-2.8558,-2.8824,-2.8992,-2.874,-2.8487,-2.8403,-2.8558,-2.9062,-2.9565,-2.983,-3.0248,-3.0665,-3.0734,-3.0817,-3.0817,-3.0729,-3.0437,-3.0299,-3.0137,-2.9903,-2.9793,-2.9778,-2.9778,-2.9778,-2.9851,-3.0079,-3.0049,-2.9749,-2.972,-2.9559,-2.9222,-2.9047,-2.8973,-2.8973,-2.9052,-2.932,-2.9756,-3.0067,-3.0747,-3.2053,-3.2435,-3.2528,-3.2348,-3.1581,-3.1134,-3.0856,-3.0028,-2.9532,-2.9957,-3.0181,-3.0555,-3.0775,-3.0645,-3.0515,-3.0671,-3.1285,-3.2099,-3.3081,-3.421,-3.5507,-3.5736,-3.5655,-3.5923,-3.644,-3.6679,-3.6953,-3.745,-3.769,-3.7792,-3.8186,-3.9108,-4.0028,-4.0873,-4.1714,-4.2716,-4.338,-4.4123,-4.4944,-4.5413,-4.5901,-4.6063,-4.5739,-4.5413,-4.4875,-4.4361,-4.4698,-4.4857,-4.4934,-4.5039,-4.5212,-4.5435,-4.5832,-4.62,-4.6351,-4.6339,-4.6331,-4.6276,-4.6394,-4.6122,-4.582,-4.4884,-4.3832,-4.3055,-4.2302,-4.1135,-2.5592,-2.6796,-2.7292,-2.7799,-2.8136,-2.8234,-2.8234,-2.8318,-2.8571,-2.8571,-2.8403,-2.8571,-2.8655,-2.8487,-2.8318,-2.8318,-2.8655,-2.8894,-2.9411,-2.983,-3.0248,-3.0582,-3.0734,-3.0817,-3.0817,-3.0788,-3.0656,-3.051,-3.0349,-3.0188,-3.0129,-3.0115,-3.0115,-3.0115,-3.0129,-3.0328,-3.024,-3.002,-2.9851,-2.9632,-2.9222,-2.9105,-2.9208,-2.9404,-2.9695,-3.0013,-3.0358,-3.1196,-3.1747,-3.2485,-3.2769,-3.2852,-3.2532,-3.1948,-3.1136,-3.0902,-3.0156,-2.9952,-3.0525,-3.0771,-3.1136,-3.1647,-3.1385,-3.133,-3.173,-3.2401,-3.3174,-3.4391,-3.5103,-3.6097,-3.608,-3.6251,-3.644,-3.6645,-3.6936,-3.733,-3.7672,-3.7912,-3.8118,-3.8477,-3.9586,-4.0536,-4.1024,-4.1965,-4.3048,-4.3711,-4.4123,-4.476,-4.5474,-4.6063,-4.6548,-4.6573,-4.627,-4.5853,-4.5272,-4.5285,-4.5445,-4.5541,-4.5638,-4.5793,-4.5958,-4.6114,-4.6405,-4.6548,-4.6509,-4.6383,-4.6722,-4.6927,-4.6548,-4.5957,-4.5086,-4.4109,-4.3349,-4.246,-4.1391,-2.6273,-2.7135,-2.7883,-2.8234,-2.8234,-2.8234,-2.8234,-2.8234,-2.8571,-2.8487,-2.8305,-2.8487,-2.8487,-2.8318,-2.8234,-2.8389,-2.8824,-2.8908,-2.9495,-3.0081,-3.0346,-3.0499,-3.0734,-3.0817,-3.0817,-3.0817,-3.0803,-3.0817,-3.0715,-3.0554,-3.0466,-3.0437,-3.0437,-3.0451,-3.0451,-3.0481,-3.0232,-3.0064,-2.9925,-2.9632,-2.9295,-2.9339,-2.9748,-3.0144,-3.0559,-3.0818,-3.1496,-3.2181,-3.261,-3.289,-3.3022,-3.3015,-3.2611,-3.1777,-3.1026,-3.0635,-3.0224,-3.065,-3.1032,-3.1542,-3.1941,-3.2681,-3.2274,-3.2448,-3.2933,-3.3498,-3.4327,-3.5693,-3.62,-3.6234,-3.6303,-3.6542,-3.6765,-3.6987,-3.7398,-3.7809,-3.7929,-3.8186,-3.8477,-3.9093,-4.0282,-4.0873,-4.121,-4.2364,-4.3463,-4.3793,-4.4205,-4.5087,-4.5739,-4.6467,-4.6954,-4.7268,-4.7194,-4.6796,-4.6396,-4.6021,-4.6094,-4.5997,-4.6017,-4.6094,-4.6221,-4.6308,-4.6512,-4.6647,-4.684,-4.6821,-4.7228,-4.7248,-4.6647,-4.5909,-4.5163,-4.4358,-4.3622,-4.2642,-4.151,-2.7207,-2.8052,-2.815,-2.8234,-2.8234,-2.8234,-2.8234,-2.8234,-2.8305,-2.8221,-2.8234,-2.8221,-2.8234,-2.8234,-2.8221,-2.8473,-2.8824,-2.9244,-2.9747,-3.0263,-3.0582,-3.0734,-3.0817,-3.0817,-3.0817,-3.0817,-3.0817,-3.0817,-3.0803,-3.0759,-3.0744,-3.0729,-3.0715,-3.0744,-3.07,-3.07,-3.0451,-3.0027,-3.0211,-3.0167,-2.9888,-2.9778,-3.0239,-3.0831,-3.1186,-3.1792,-3.2807,-3.3401,-3.3524,-3.3417,-3.3483,-3.276,-3.1696,-3.1572,-3.1061,-3.0736,-3.0669,-3.1091,-3.1655,-3.2201,-3.2815,-3.345,-3.3333,-3.356,-3.3871,-3.4376,-3.5044,-3.5935,-3.6337,-3.6542,-3.6611,-3.6919,-3.7244,-3.7467,-3.7672,-3.7981,-3.8152,-3.8169,-3.8477,-3.9348,-4.0367,-4.0873,-4.121,-4.2531,-4.3691,-4.3939,-4.435,-4.5169,-4.6063,-4.6629,-4.7185,-4.7541,-4.7587,-4.7231,-4.6952,-4.6615,-4.6385,-4.6308,-4.6308,-4.6308,-4.6308,-4.6308,-4.6464,-4.6706,-4.6832,-4.6832,-4.6832,-4.6658,-4.6396,-4.5919,-4.5184,-4.4481,-4.3747,-4.272,-4.1383,-2.7799,-2.8234,-2.8234,-2.8234,-2.8234,-2.8234,-2.8234,-2.8234,-2.8234,-2.8234,-2.8234,-2.8234,-2.8234,-2.8221,-2.8389,-2.8824,-2.9244,-2.9663,-3.0165,-3.0415,-3.0749,-3.0817,-3.0817,-3.0817,-3.0817,-3.0817,-3.0817,-3.0817,-3.0817,-3.0817,-3.0817,-3.0817,-3.0817,-3.0803,-3.0817,-3.0817,-3.0554,-3.0261,-3.0196,-3.0181,-3.0196,-3.0225,-3.0706,-3.1671,-3.1988,-3.2874,-3.3703,-3.4328,-3.4104,-3.3743,-3.3367,-3.2633,-3.1664,-3.1242,-3.0943,-3.0778,-3.1025,-3.1452,-3.1976,-3.2772,-3.3476,-3.3902,-3.3984,-3.4033,-3.4539,-3.5142,-3.573,-3.6307,-3.6525,-3.6713,-3.697,-3.7296,-3.7535,-3.7758,-3.7929,-3.8083,-3.8255,-3.8289,-3.858,-3.9519,-4.0451,-4.1126,-4.1714,-4.278,-4.3711,-4.3774,-4.4021,-4.4596,-4.5657,-4.6709,-4.725,-4.7753,-4.7693,-4.7501,-4.7203,-4.684,-4.6425,-4.6308,-4.6308,-4.6308,-4.6308,-4.6396,-4.6464,-4.6396,-4.6221,-4.6221,-4.6308,-4.6221,-4.6133,-4.5628,-4.5173,-4.4097,-4.3019,-4.1745,-4.0364,-2.8234,-2.8234,-2.8234,-2.8234,-2.8234,-2.8234,-2.8234,-2.8234,-2.8234,-2.8234,-2.8234,-2.8234,-2.8234,-2.8318,-2.8571,-2.8992,-2.9481,-2.9998,-3.0415,-3.0665,-3.0817,-3.0817,-3.0817,-3.0817,-3.0817,-3.0832,-3.0817,-3.0817,-3.0817,-3.0817,-3.0817,-3.0817,-3.0817,-3.0817,-3.0817,-3.0817,-3.0671,-3.0495,-3.0188,-3.0217,-3.049,-3.078,-3.1489,-3.2289,-3.3059,-3.3807,-3.4562,-3.4731,-3.4421,-3.3658,-3.3017,-3.2251,-3.1414,-3.1173,-3.1018,-3.1062,-3.144,-3.1864,-3.2418,-3.3068,-3.3882,-3.4375,-3.4851,-3.5196,-3.5275,-3.591,-3.6285,-3.6577,-3.6748,-3.6987,-3.7313,-3.7672,-3.7878,-3.8015,-3.8135,-3.8255,-3.8409,-3.858,-3.9178,-4.0113,-4.1126,-4.1882,-4.255,-4.3214,-4.3628,-4.3691,-4.3856,-4.4123,-4.5148,-4.6451,-4.7172,-4.7631,-4.746,-4.7389,-4.7365,-4.7054,-4.6551,-4.6308,-4.6221,-4.6221,-4.6221,-4.6308,-4.6396,-4.6133,-4.5783,-4.5695,-4.5695,-4.5783,-4.5763,-4.5228,-4.4605,-4.3309,-4.2049,-4.0713,-3.9312,-2.8234,-2.8234,-2.8234,-2.8234,-2.8234,-2.8234,-2.8234,-2.8234,-2.8234,-2.8234,-2.8234,-2.8234,-2.8234,-2.8318,-2.874,-2.916,-2.9565,-2.9998,-3.0415,-3.0665,-3.0817,-3.0817,-3.0832,-3.0846,-3.0861,-3.0876,-3.0949,-3.0949,-3.0846,-3.0934,-3.0876,-3.0817,-3.0846,-3.0832,-3.0817,-3.0817,-3.0846,-3.0729,-3.0525,-3.0554,-3.1008,-3.1497,-3.2324,-3.3296,-3.4197,-3.5075,-3.5804,-3.5201,-3.4456,-3.3628,-3.2792,-3.1994,-3.1337,-3.1208,-3.1271,-3.1399,-3.197,-3.2399,-3.2722,-3.3495,-3.455,-3.5626,-3.6222,-3.6272,-3.6053,-3.6331,-3.6546,-3.6666,-3.7039,-3.733,-3.769,-3.8015,-3.8152,-3.8203,-3.8255,-3.8272,-3.858,-3.9178,-3.9774,-4.0789,-4.163,-4.2318,-4.2882,-4.3463,-4.3628,-4.3691,-4.3906,-4.4194,-4.4995,-4.6085,-4.6866,-4.7255,-4.7159,-4.7269,-4.7394,-4.7074,-4.6483,-4.6133,-4.6133,-4.6114,-4.6114,-4.6114,-4.5958,-4.5783,-4.5431,-4.5255,-4.5078,-4.499,-4.4902,-4.4706,-4.3923,-4.2371,-4.0434,-3.8712,-3.7648,-2.8234,-2.8234,-2.8234,-2.8234,-2.8234,-2.8234,-2.8234,-2.8234,-2.8234,-2.8234,-2.8234,-2.8234,-2.8318,-2.8655,-2.9076,-2.9495,-2.9914,-3.0415,-3.0665,-3.0749,-3.0817,-3.0817,-3.0861,-3.1037,-3.1139,-3.1168,-3.1285,-3.1417,-3.1432,-3.1227,-3.1139,-3.1081,-3.0964,-3.0846,-3.0817,-3.0861,-3.0949,-3.1081,-3.1037,-3.1095,-3.1429,-3.1741,-3.2495,-3.3695,-3.3928,-3.4883,-3.5727,-3.519,-3.449,-3.3715,-3.285,-3.2038,-3.1498,-3.152,-3.1593,-3.1707,-3.2468,-3.2785,-3.3111,-3.3976,-3.5073,-3.5575,-3.6092,-3.6309,-3.6241,-3.6141,-3.6709,-3.7028,-3.7416,-3.7655,-3.8049,-3.822,-3.8289,-3.8323,-3.8323,-3.8323,-3.858,-3.9263,-4.0028,-4.0873,-4.1798,-4.2652,-4.3131,-4.3691,-4.3691,-4.3711,-4.3965,-4.4366,-4.5107,-4.5704,-4.636,-4.6811,-4.6771,-4.6769,-4.6975,-4.6619,-4.6221,-4.6046,-4.5939,-4.5763,-4.5675,-4.5412,-4.5255,-4.5147,-4.499,-4.4636,-4.437,-4.4104,-4.4015,-4.4104,-4.2819,-4.1058,-3.9059,-3.6884,-3.6173,-2.8234,-2.8234,-2.8234,-2.8234,-2.8234,-2.8234,-2.8234,-2.8234,-2.8234,-2.8318,-2.8403,-2.8389,-2.8642,-2.9062,-2.9495,-2.983,-3.0248,-3.0582,-3.0822,-3.0949,-3.0993,-3.1022,-3.1168,-3.1315,-3.1461,-3.152,-3.1637,-3.1768,-3.1724,-3.1549,-3.1476,-3.1388,-3.1227,-3.1095,-3.0846,-3.0949,-3.1124,-3.1388,-3.1476,-3.1534,-3.1768,-3.2438,-3.2974,-3.4227,-3.4712,-3.5477,-3.5904,-3.546,-3.4617,-3.3814,-3.3068,-3.2244,-3.1981,-3.1871,-3.1929,-3.2232,-3.2722,-3.3269,-3.3597,-3.4274,-3.5326,-3.5949,-3.605,-3.617,-3.6139,-3.619,-3.6812,-3.7554,-3.7741,-3.7912,-3.8272,-3.8323,-3.8323,-3.8323,-3.8323,-3.8323,-3.858,-3.9093,-4.0028,-4.0873,-4.1798,-4.2754,-4.3413,-4.3848,-4.4023,-4.4023,-4.4121,-4.4433,-4.496,-4.5391,-4.5693,-4.612,-4.6207,-4.6264,-4.6385,-4.6056,-4.5832,-4.5783,-4.5607,-4.5343,-4.5166,-4.4902,-4.4725,-4.4636,-4.437,-4.4015,-4.3837,-4.3748,-4.3659,-4.357,-4.1922,-3.9987,-3.7791,-3.5879,-3.5428,-2.8234,-2.8234,-2.8234,-2.8234,-2.8234,-2.8234,-2.8234,-2.8234,-2.8221,-2.8389,-2.874,-2.874,-2.9076,-2.9495,-2.9928,-3.0179,-3.036,-3.0709,-3.0993,-3.1183,-3.1285,-3.1476,-3.1622,-3.1739,-3.1798,-3.1783,-3.1915,-3.1973,-3.1885,-3.1827,-3.1798,-3.1754,-3.1637,-3.1417,-3.092,-3.1154,-3.1461,-3.1739,-3.1783,-3.1827,-3.2158,-3.3218,-3.3855,-3.4424,-3.5252,-3.5958,-3.5975,-3.5025,-3.425,-3.4039,-3.2795,-3.2114,-3.203,-3.2178,-3.2266,-3.2455,-3.3143,-3.3541,-3.3659,-3.4501,-3.5262,-3.5924,-3.5978,-3.6187,-3.6723,-3.7013,-3.7098,-3.7641,-3.7861,-3.7998,-3.8186,-3.8323,-3.8323,-3.8323,-3.8323,-3.8323,-3.858,-3.9093,-4.0028,-4.0705,-4.1733,-4.269,-4.3491,-4.4043,-4.4316,-4.4394,-4.4394,-4.4648,-4.5058,-4.5378,-4.5746,-4.5726,-4.5923,-4.577,-4.5725,-4.5716,-4.5549,-4.548,-4.5255,-4.4902,-4.4725,-4.4548,-4.437,-4.4193,-4.4015,-4.3856,-4.3659,-4.3481,-4.3034,-4.2389,-4.0731,-3.8801,-3.6606,-3.5148,-3.4882,-2.8234,-2.8234,-2.8234,-2.8234,-2.8234,-2.8234,-2.8234,-2.8234,-2.8487,-2.8655,-2.8824,-2.9076,-2.9495,-2.9914,-3.0095,-3.0346,-3.0625,-3.0942,-3.1271,-3.1329,-3.1534,-3.1666,-3.1841,-3.2032,-3.212,-3.2178,-3.228,-3.2398,-3.2471,-3.2237,-3.2134,-3.2105,-3.1959,-3.1695,-3.1549,-3.1622,-3.1798,-3.2061,-3.2134,-3.2207,-3.2485,-3.3096,-3.37,-3.4002,-3.4773,-3.5273,-3.5518,-3.4334,-3.3902,-3.3886,-3.2726,-3.228,-3.2324,-3.2559,-3.2749,-3.3115,-3.3895,-3.4612,-3.4612,-3.4909,-3.4909,-3.5526,-3.5906,-3.5944,-3.6091,-3.6436,-3.6936,-3.752,-3.7913,-3.8118,-3.8306,-3.8323,-3.8323,-3.8323,-3.8323,-3.8323,-3.858,-3.9263,-3.9943,-4.0451,-4.1294,-4.2694,-4.3684,-4.4252,-4.4505,-4.4856,-4.4915,-4.5273,-4.5664,-4.5801,-4.6044,-4.577,-4.5731,-4.5355,-4.5135,-4.5,-4.4862,-4.4674,-4.4523,-4.4282,-4.4193,-4.4193,-4.4015,-4.3837,-4.3767,-4.3678,-4.3589,-4.3213,-4.2102,-4.1002,-3.9896,-3.8526,-3.6606,-3.5335,-3.4803,-2.8234,-2.8234,-2.8234,-2.8305,-2.8389,-2.8234,-2.8318,-2.8473,-2.8824,-2.916,-2.9328,-2.9663,-2.9998,-3.0332,-3.043,-3.0614,-3.1007,-3.1198,-3.1578,-3.1607,-3.1841,-3.2046,-3.2207,-3.231,-3.2441,-3.2515,-3.2617,-3.2749,-3.2705,-3.2544,-3.2471,-3.2398,-3.2237,-3.2193,-3.212,-3.2263,-3.238,-3.2703,-3.2909,-3.3143,-3.3365,-3.3571,-3.3774,-3.4073,-3.4414,-3.458,-3.4509,-3.4119,-3.3492,-3.3414,-3.3083,-3.2632,-3.2705,-3.2852,-3.3029,-3.3646,-3.4349,-3.505,-3.5225,-3.5137,-3.5193,-3.5573,-3.5502,-3.5589,-3.5748,-3.6237,-3.6827,-3.743,-3.7894,-3.8152,-3.8237,-3.8237,-3.8323,-3.8323,-3.8323,-3.8323,-3.8409,-3.9093,-3.9433,-4.0028,-4.0844,-4.2349,-4.3683,-4.4291,-4.4694,-4.5083,-4.5452,-4.5773,-4.5996,-4.5957,-4.5879,-4.5519,-4.5238,-4.4826,-4.4549,-4.4271,-4.4152,-4.3834,-4.3844,-4.3745,-4.3748,-4.3748,-4.357,-4.3481,-4.3589,-4.3589,-4.357,-4.3034,-4.2389,-4.1381,-4.0095,-3.8526,-3.6606,-3.5521,-3.4803,-2.8234,-2.8234,-2.8234,-2.8403,-2.8655,-2.8487,-2.8558,-2.8908,-2.9328,-2.9747,-3.0179,-3.0179,-3.0444,-3.0778,-3.0778,-3.1051,-3.1315,-3.1388,-3.1739,-3.209,-3.2237,-3.2456,-3.2588,-3.269,-3.2676,-3.2719,-3.2763,-3.2763,-3.2763,-3.2705,-3.2705,-3.2719,-3.2632,-3.2588,-3.2705,-3.2806,-3.3069,-3.332,-3.3468,-3.3674,-3.3734,-3.4174,-3.4231,-3.4329,-3.4489,-3.4648,-3.4585,-3.418,-3.3964,-3.3674,-3.3279,-3.2925,-3.2763,-3.2763,-3.3117,-3.3646,-3.4437,-3.5137,-3.5486,-3.5399,-3.5486,-3.5573,-3.5225,-3.5573,-3.5938,-3.6183,-3.6687,-3.7205,-3.7619,-3.798,-3.8152,-3.8237,-3.8323,-3.8323,-3.8323,-3.8323,-3.8323,-3.858,-3.8922,-3.9554,-4.0354,-4.159,-4.2933,-4.3766,-4.4585,-4.4683,-4.5001,-4.5277,-4.5441,-4.5391,-4.5207,-4.4842,-4.4516,-4.4222,-4.3938,-4.3641,-4.3634,-4.3496,-4.3449,-4.3438,-4.3371,-4.3481,-4.3481,-4.3481,-4.3481,-4.3481,-4.3481,-4.3392,-4.3213,-4.2029,-4.0277,-3.8984,-3.7254,-3.5615,-3.471,-2.8234,-2.8234,-2.8234,-2.8403,-2.8824,-2.9411,-2.9495,-2.9398,-2.983,-3.0081,-3.0179,-3.0499,-3.0767,-3.1168,-3.1168,-3.1373,-3.1637,-3.1885,-3.2076,-3.231,-3.25,-3.2661,-3.2734,-3.2763,-3.2763,-3.2852,-3.2852,-3.294,-3.2852,-3.2852,-3.2852,-3.2763,-3.2763,-3.2763,-3.2911,-3.3204,-3.3322,-3.3528,-3.3734,-3.3822,-3.3822,-3.3998,-3.391,-3.3822,-3.3719,-3.3895,-3.3719,-3.3558,-3.3293,-3.3117,-3.294,-3.2763,-3.2763,-3.2852,-3.3117,-3.3998,-3.4787,-3.5486,-3.5573,-3.5573,-3.5573,-3.5573,-3.5399,-3.5486,-3.5835,-3.6183,-3.653,-3.6946,-3.7361,-3.7722,-3.8066,-3.8237,-3.8237,-3.8323,-3.8323,-3.8323,-3.8323,-3.8409,-3.8683,-3.9318,-4.0122,-4.1196,-4.2437,-4.3633,-4.4367,-4.4318,-4.4404,-4.4673,-4.4927,-4.4895,-4.4694,-4.4349,-4.3979,-4.3641,-4.3263,-4.2967,-4.3031,-4.3121,-4.3056,-4.3151,-4.3389,-4.3481,-4.3481,-4.3481,-4.3481,-4.3481,-4.3481,-4.341,-4.341,-4.1922,-4.0277,-3.9167,-3.7807,-3.608,-3.4803,-2.8234,-2.8234,-2.8389,-2.874,-2.9411,-3.0081,-3.0248,-3.0067,-3.0332,-3.0415,-3.0499,-3.0665,-3.1007,-3.1256,-3.1315,-3.1534,-3.1988,-3.2134,-3.2324,-3.2544,-3.2676,-3.2719,-3.2763,-3.2763,-3.2763,-3.2852,-3.3205,-3.3558,-3.3455,-3.3455,-3.3543,-3.2763,-3.2763,-3.2763,-3.2852,-3.3014,-3.3279,-3.347,-3.3646,-3.3734,-3.3734,-3.3558,-3.3293,-3.3029,-3.294,-3.2852,-3.2763,-3.2763,-3.2763,-3.2763,-3.2763,-3.2763,-3.294,-3.3117,-3.347,-3.4261,-3.505,-3.5486,-3.5573,-3.5573,-3.5573,-3.5573,-3.5573,-3.5573,-3.5661,-3.5922,-3.6269,-3.6616,-3.7119,-3.7533,-3.7894,-3.8152,-3.8237,-3.8323,-3.8323,-3.8323,-3.8323,-3.8323,-3.8683,-3.9251,-4.0064,-4.102,-4.221,-4.339,-4.3955,-4.3552,-4.3555,-4.3975,-4.4303,-4.4518,-4.4272,-4.3987,-4.3515,-4.3101,-4.2782,-4.2549,-4.2747,-4.2868,-4.2817,-4.2949,-4.3298,-4.3481,-4.3481,-4.3481,-4.3481,-4.3518,-4.3554,-4.3499,-4.3213,-4.1849,-4.0856,-3.9822,-3.8359,-3.6251,-3.5256,-2.8234,-2.8234,-2.8655,-2.9328,-3.0179,-3.0582,-3.0734,-3.0832,-3.0792,-3.0846,-3.0749,-3.0861,-3.1081,-3.1388,-3.1505,-3.1841,-3.2193,-3.2398,-3.2515,-3.2749,-3.2749,-3.2763,-3.2763,-3.2852,-3.294,-3.3205,-3.3558,-3.3983,-3.4494,-3.4391,-3.388,-3.2852,-3.2763,-3.2763,-3.2852,-3.2852,-3.3029,-3.3293,-3.3558,-3.3734,-3.3822,-3.3734,-3.347,-3.3293,-3.3029,-3.2763,-3.2763,-3.2763,-3.2763,-3.2763,-3.2763,-3.2763,-3.3029,-3.347,-3.391,-3.4349,-3.505,-3.5312,-3.5399,-3.5399,-3.5486,-3.5486,-3.5486,-3.5486,-3.5486,-3.5661,-3.6009,-3.6443,-3.686,-3.7291,-3.7722,-3.8066,-3.8237,-3.8323,-3.8323,-3.8323,-3.8323,-3.8426,-3.8838,-3.934,-3.9947,-4.082,-4.1536,-4.2591,-4.3,-4.263,-4.2892,-4.331,-4.3618,-4.3955,-4.4,-4.371,-4.3289,-4.2951,-4.2761,-4.2592,-4.2536,-4.2546,-4.2656,-4.2913,-4.3371,-4.3481,-4.3481,-4.3536,-4.3573,-4.3609,-4.3628,-4.3646,-4.3557,-4.309,-4.2046,-4.0765,-3.9001,-3.6992,-3.5611,-2.8234,-2.8305,-2.8992,-2.9663,-3.0248,-3.0665,-3.0832,-3.0846,-3.1095,-3.1066,-3.0905,-3.1095,-3.1373,-3.1666,-3.1885,-3.2222,-3.2529,-3.2588,-3.269,-3.2749,-3.2763,-3.2763,-3.2852,-3.294,-3.3205,-3.3734,-3.4174,-3.4597,-3.4844,-3.4756,-3.4231,-3.3029,-3.2852,-3.2763,-3.2763,-3.2763,-3.294,-3.3117,-3.3205,-3.347,-3.3646,-3.3558,-3.3382,-3.3117,-3.2866,-3.2852,-3.2852,-3.2763,-3.2763,-3.2763,-3.2763,-3.2763,-3.2852,-3.3382,-3.3822,-3.4261,-3.47,-3.4962,-3.505,-3.505,-3.505,-3.505,-3.505,-3.505,-3.5137,-3.5399,-3.5748,-3.6183,-3.6703,-3.7119,-3.755,-3.7894,-3.8323,-3.8323,-3.8323,-3.8323,-3.8323,-3.8683,-3.8975,-3.953,-3.9949,-4.0578,-4.1173,-4.1641,-4.1792,-4.2284,-4.2753,-4.3073,-4.3071,-4.3349,-4.3665,-4.3433,-4.3223,-4.2914,-4.2881,-4.2654,-4.2578,-4.2766,-4.2949,-4.3206,-4.3463,-4.3573,-4.3646,-4.3646,-4.3683,-4.3756,-4.3829,-4.3921,-4.3831,-4.3576,-4.291,-4.1579,-4.0186,-3.8359,-3.6699,-2.8234,-2.8305,-2.9146,-2.9914,-3.0444,-3.0894,-3.1037,-3.1095,-3.1388,-3.1432,-3.1285,-3.1461,-3.171,-3.1973,-3.2207,-3.2471,-3.2734,-3.2763,-3.2749,-3.2763,-3.2763,-3.2763,-3.294,-3.3205,-3.3807,-3.4422,-3.589,-3.641,-3.589,-3.5629,-3.5193,-3.3719,-3.3279,-3.2763,-3.2763,-3.2763,-3.2763,-3.2852,-3.2763,-3.3117,-3.3485,-3.347,-3.3382,-3.3117,-3.3117,-3.3029,-3.2852,-3.2763,-3.2763,-3.2763,-3.2763,-3.2763,-3.294,-3.3293,-3.3646,-3.391,-3.4261,-3.4612,-3.4612,-3.4612,-3.4612,-3.4612,-3.4612,-3.4612,-3.4612,-3.4787,-3.4875,-3.5312,-3.6253,-3.6757,-3.7119,-3.755,-3.8066,-3.8323,-3.8323,-3.8323,-3.8443,-3.8648,-3.9409,-4.0263,-4.0788,-4.1467,-4.2074,-4.2646,-4.2668,-4.1907,-4.2406,-4.2799,-4.2816,-4.3143,-4.3318,-4.3421,-4.3289,-4.3367,-4.3535,-4.3098,-4.2725,-4.2913,-4.3151,-4.3298,-4.3426,-4.3646,-4.3793,-4.3774,-4.3829,-4.3958,-4.405,-4.4031,-4.3866,-4.3557,-4.3017,-4.2209,-4.0821,-3.9549,-3.7967,-2.8305,-2.8473,-2.9146,-3.0012,-3.0836,-3.1168,-3.1329,-3.1417,-3.171,-3.1856,-3.1856,-3.19,-3.209,-3.2207,-3.2354,-3.2544,-3.269,-3.2749,-3.2763,-3.2763,-3.2763,-3.2763,-3.3205,-3.3719,-3.4669,-3.6047,-3.7688,-3.7946,-3.7774,-3.7086,-3.5874,-3.4741,-3.3704,-3.2763,-3.2763,-3.2763,-3.2763,-3.2763,-3.2852,-3.3117,-3.3382,-3.3558,-3.3558,-3.3558,-3.347,-3.3293,-3.3029,-3.2852,-3.2852,-3.2763,-3.2763,-3.2763,-3.2852,-3.3117,-3.3382,-3.3646,-3.391,-3.4086,-3.4086,-3.4086,-3.4086,-3.4086,-3.4086,-3.4086,-3.4086,-3.4086,-3.4174,-3.4509,-3.5455,-3.6324,-3.667,-3.7188,-3.7722,-3.8375,-3.8375,-3.8477,-3.8648,-3.8854,-3.9826,-4.0808,-4.1491,-4.2257,-4.2937,-4.3481,-4.3054,-4.2274,-4.2143,-4.2394,-4.274,-4.3323,-4.369,-4.3645,-4.3583,-4.3736,-4.3772,-4.3375,-4.2711,-4.2821,-4.3023,-4.3206,-4.3389,-4.3573,-4.3738,-4.3866,-4.394,-4.405,-4.4013,-4.394,-4.3756,-4.3609,-4.325,-4.2676,-4.1832,-4.0493,-3.9041,-2.8642,-2.923,-2.9398,-3.0126,-3.1113,-3.13,-3.1446,-3.1739,-3.2046,-3.2193,-3.2251,-3.2456,-3.2529,-3.231,-3.2573,-3.2734,-3.2734,-3.2763,-3.2763,-3.2763,-3.2763,-3.2763,-3.3455,-3.4756,-3.596,-3.7516,-3.899,-3.916,-3.846,-3.7344,-3.6134,-3.4828,-3.3455,-3.2852,-3.2763,-3.2763,-3.2763,-3.2763,-3.294,-3.3132,-3.3646,-3.3822,-3.3822,-3.3734,-3.3646,-3.3558,-3.3293,-3.294,-3.2852,-3.2763,-3.2763,-3.2763,-3.2852,-3.294,-3.3117,-3.3293,-3.3558,-3.3558,-3.3646,-3.3646,-3.3646,-3.3646,-3.3646,-3.3646,-3.3646,-3.3646,-3.3558,-3.347,-3.4422,-3.5558,-3.608,-3.6757,-3.7378,-3.8236,-3.8563,-3.8888,-3.9145,-3.963,-4.0346,-4.1107,-4.1745,-4.2711,-4.3646,-4.3757,-4.3443,-4.3008,-4.3035,-4.3204,-4.3335,-4.3741,-4.4025,-4.3895,-4.3821,-4.3261,-4.2857,-4.313,-4.2729,-4.2803,-4.2931,-4.3188,-4.3371,-4.3463,-4.3628,-4.3848,-4.3976,-4.4068,-4.3995,-4.3903,-4.3866,-4.3756,-4.3591,-4.3142,-4.2389,-4.1127,-3.9374]}]]